Darstellungsparameter: Aktuell verwendete Einstellungen:
Skalierung der Graphiken ... ?
xyx+y,   Skalierungsfaktor:      Skalierung: Modus: x, Faktor: 1
Darstellungszeitraum ... ?
Vom - - bis: - -   Zeitraum: 30.04.2019 - 29.04.2020
Min/Max/Avg-Anzeige ... ?
Zeige MMA aktuell
Zeige MMA Monat
Zeige MMA alles
Zeige --A aktuell
Zeige --A Monat
Zeige --A alles
Keine MMA-Anzeige
MMA:
Keine MMA-Graphiken
MMA-Basis: 30.04.2019 - 29.04.2020
Quicknavigation für Darstellung... ?
Tage:      1T, 2T, 3T, 5T -1T -2T -3T -5T +1T +2T +3T +5T
Wochen: 1W, 2W, 3W -1W -2W -3W +1W +2W +3W
Monate: 1M, 3M, 6M -1M -3M -6M +1M +3M +6M
Jahre:    1J, 3J, 5J, 10J -1J -3J -5J -10J +1J +3J +5J +10J
Nutze für die Darstellung ... ?
Originaldaten oder ...
Mittelwerte Minima Maxima auf...
Stundenbasis Tagesbasis Wochenbasis
Monatsbasis Jahresbasis      Datenbasis: Mittelwerte auf Stundenbasis
Darstellen als:
Statistik (Auto) Statistik J:M      Darstellung:
Zur Graphik,    zurück zur Übersicht aller Sensoren.
 
Tabellarische Datenbersicht: ?
 
Sensor: Nr:Datum:Temp:Feuchte:Taupunkt:
Aussen-T/F 1 30-04-2019 00:00:00 10.98333 C 87.3333 % 8.96 C
2 30-04-2019 01:00:00 11.16667 C 86.2500 % 8.96 C
3 30-04-2019 02:00:00 10.85 C 88.0833 % 8.96 C
4 30-04-2019 03:00:00 10.59167 C 89.0000 % 8.86 C
5 30-04-2019 04:00:00 10.30833 C 88.9167 % 8.56 C
6 30-04-2019 05:00:00 10.18333 C 88.0833 % 8.3 C
7 30-04-2019 06:00:00 10.05833 C 88.8333 % 8.3 C
8 30-04-2019 07:00:00 10.075 C 88.7500 % 8.31 C
9 30-04-2019 08:00:00 10.725 C 83.9167 % 8.12 C
10 30-04-2019 09:00:00 11.51667 C 76.8333 % 7.6 C
11 30-04-2019 10:00:00 12.61667 C 70.0833 % 7.31 C
12 30-04-2019 11:00:00 13.60833 C 62.7500 % 6.65 C
13 30-04-2019 12:00:00 14.5 C 58.3333 % 6.43 C
14 30-04-2019 13:00:00 15.65833 C 53.2500 % 6.19 C
15 30-04-2019 14:00:00 16.86667 C 48.5000 % 5.95 C
16 30-04-2019 15:00:00 18.59167 C 45.3333 % 6.55 C
17 30-04-2019 16:00:00 20.025 C 40.8333 % 6.32 C
18 30-04-2019 17:00:00 20.46667 C 41.5000 % 6.95 C
19 30-04-2019 18:00:00 20.24167 C 42.8333 % 7.21 C
20 30-04-2019 19:00:00 18.90833 C 48.8333 % 7.92 C
21 30-04-2019 20:00:00 16.95833 C 56.9167 % 8.37 C
22 30-04-2019 21:00:00 15.48333 C 64.8333 % 8.9 C
23 30-04-2019 22:00:00 14.225 C 70.8333 % 9.01 C
24 30-04-2019 23:00:00 12.65833 C 77.9167 % 8.91 C
25 01-05-2019 00:00:00 11.25833 C 83.0833 % 8.5 C
Sensor: Nr:Datum:Temp:Feuchte:Taupunkt:
Aussen-T/F 26 01-05-2019 01:00:00 10.36667 C 85.5000 % 8.04 C
27 01-05-2019 02:00:00 9.26667 C 88.2500 % 7.43 C
28 01-05-2019 03:00:00 8.45833 C 90.8333 % 7.05 C
29 01-05-2019 04:00:00 8.075 C 91.7500 % 6.82 C
30 01-05-2019 05:00:00 6.95833 C 92.2500 % 5.79 C
31 01-05-2019 06:00:00 6.275 C 93.5833 % 5.32 C
32 01-05-2019 07:00:00 6.79167 C 94.9167 % 6.04 C
33 01-05-2019 08:00:00 7.9 C 94.8333 % 7.12 C
34 01-05-2019 09:00:00 8.89167 C 92.9167 % 7.81 C
35 01-05-2019 10:00:00 10.11667 C 89.7500 % 8.51 C
36 01-05-2019 11:00:00 11.40833 C 86.2500 % 9.2 C
37 01-05-2019 12:00:00 13.80833 C 79.0833 % 10.25 C
38 01-05-2019 13:00:00 16.03333 C 66.4167 % 9.78 C
39 01-05-2019 14:00:00 17.69167 C 55.0833 % 8.57 C
40 01-05-2019 15:00:00 19.35 C 48.7500 % 8.3 C
41 01-05-2019 16:00:00 21.31667 C 43.8333 % 8.52 C
42 01-05-2019 17:00:00 21.48333 C 44.2500 % 8.81 C
43 01-05-2019 18:00:00 20.325 C 52.5000 % 10.3 C
44 01-05-2019 19:00:00 18.21667 C 58.2500 % 9.89 C
45 01-05-2019 20:00:00 15.65833 C 63.3333 % 8.72 C
46 01-05-2019 21:00:00 13.53333 C 73.2500 % 8.84 C
47 01-05-2019 22:00:00 12.76667 C 77.9167 % 9.02 C
48 01-05-2019 23:00:00 10.80833 C 85.4167 % 8.46 C
49 02-05-2019 00:00:00 9.98333 C 88.3333 % 8.15 C
50 02-05-2019 01:00:00 8.96667 C 90.4167 % 7.48 C
Sensor: Nr:Datum:Temp:Feuchte:Taupunkt:
Aussen-T/F 51 02-05-2019 02:00:00 8.23333 C 92.7500 % 7.13 C
52 02-05-2019 03:00:00 7.73333 C 93.5833 % 6.77 C
53 02-05-2019 04:00:00 7.025 C 94.0000 % 6.13 C
54 02-05-2019 05:00:00 6.325 C 94.2500 % 5.47 C
55 02-05-2019 06:00:00 5.89167 C 95.0000 % 5.15 C
56 02-05-2019 07:00:00 6.84167 C 96.0000 % 6.25 C
57 02-05-2019 08:00:00 8.325 C 95.7500 % 7.69 C
58 02-05-2019 09:00:00 9.075 C 92.3333 % 7.9 C
59 02-05-2019 10:00:00 10.725 C 82.5833 % 7.89 C
60 02-05-2019 11:00:00 12.15833 C 76.5833 % 8.17 C
61 02-05-2019 12:00:00 12.925 C 74.0000 % 8.41 C
62 02-05-2019 13:00:00 14.15 C 69.5000 % 8.66 C
63 02-05-2019 14:00:00 15.85 C 65.2500 % 9.35 C
64 02-05-2019 15:00:00 16.58333 C 61.0833 % 9.06 C
65 02-05-2019 16:00:00 17.225 C 58.0000 % 8.9 C
66 02-05-2019 17:00:00 17.75 C 51.5000 % 7.63 C
67 02-05-2019 18:00:00 17.96667 C 46.8333 % 6.45 C
68 02-05-2019 19:00:00 15.54167 C 60.2500 % 7.88 C
69 02-05-2019 20:00:00 12.78333 C 76.9167 % 8.84 C
70 02-05-2019 21:00:00 11.44167 C 88.5000 % 9.61 C
71 02-05-2019 22:00:00 10.75833 C 90.9167 % 9.34 C
72 02-05-2019 23:00:00 10.7 C 91.7500 % 9.41 C
73 03-05-2019 00:00:00 10.6 C 92.3333 % 9.41 C
74 03-05-2019 01:00:00 10.51667 C 86.6667 % 8.39 C
75 03-05-2019 02:00:00 9.85 C 84.1667 % 7.31 C
Sensor: Nr:Datum:Temp:Feuchte:Taupunkt:
Aussen-T/F 76 03-05-2019 03:00:00 9.375 C 85.7500 % 7.11 C
77 03-05-2019 04:00:00 9.16667 C 87.6667 % 7.23 C
78 03-05-2019 05:00:00 9.28333 C 88.0000 % 7.4 C
79 03-05-2019 06:00:00 9.25 C 87.7500 % 7.33 C
80 03-05-2019 07:00:00 9.25 C 85.6667 % 6.98 C
81 03-05-2019 08:00:00 9.65833 C 83.5000 % 7 C
82 03-05-2019 09:00:00 10.10833 C 79.5000 % 6.73 C
83 03-05-2019 10:00:00 10.78333 C 73.7500 % 6.29 C
84 03-05-2019 11:00:00 11.16667 C 69.0833 % 5.72 C
85 03-05-2019 12:00:00 11.34167 C 68.9167 % 5.85 C
86 03-05-2019 13:00:00 12.075 C 65.5833 % 5.83 C
87 03-05-2019 14:00:00 12.98333 C 59.5000 % 5.29 C
88 03-05-2019 15:00:00 14.38333 C 52.9167 % 4.92 C
89 03-05-2019 16:00:00 15 C 51.0000 % 4.96 C
90 03-05-2019 17:00:00 14.125 C 53.9167 % 4.94 C
91 03-05-2019 18:00:00 13.64167 C 56.3333 % 5.12 C
92 03-05-2019 19:00:00 12.4 C 60.0000 % 4.86 C
93 03-05-2019 20:00:00 11.18333 C 64.2500 % 4.69 C
94 03-05-2019 21:00:00 9.875 C 70.1667 % 4.7 C
95 03-05-2019 22:00:00 9.375 C 74.3333 % 5.05 C
96 03-05-2019 23:00:00 8.65833 C 78.5833 % 5.15 C
97 04-05-2019 00:00:00 8.05833 C 81.6667 % 5.12 C
98 04-05-2019 01:00:00 7.625 C 83.1667 % 4.96 C
99 04-05-2019 02:00:00 7.575 C 84.7500 % 5.18 C
100 04-05-2019 03:00:00 7.43333 C 86.7500 % 5.37 C
Sensor: Nr:Datum:Temp:Feuchte:Taupunkt:
Aussen-T/F 101 04-05-2019 04:00:00 7.4 C 90.0833 % 5.88 C
102 04-05-2019 05:00:00 5.025 C 91.3333 % 3.73 C
103 04-05-2019 06:00:00 3.74167 C 92.3333 % 2.62 C
104 04-05-2019 07:00:00 3.23333 C 93.0000 % 2.21 C
105 04-05-2019 08:00:00 3.26667 C 93.8333 % 2.37 C
106 04-05-2019 09:00:00 3.99167 C 94.0000 % 3.12 C
107 04-05-2019 10:00:00 4.64167 C 91.0000 % 3.3 C
108 04-05-2019 11:00:00 5.00833 C 89.0833 % 3.36 C
109 04-05-2019 12:00:00 5.93333 C 85.6667 % 3.72 C
110 04-05-2019 13:00:00 7.25833 C 78.2500 % 3.73 C
111 04-05-2019 14:00:00 7.44167 C 77.6667 % 3.8 C
112 04-05-2019 15:00:00 4.74167 C 89.1667 % 3.11 C
113 04-05-2019 16:00:00 7.80833 C 85.1667 % 5.48 C
114 04-05-2019 17:00:00 10.13333 C 77.2500 % 6.34 C
115 04-05-2019 18:00:00 10.36667 C 60.6667 % 3.11 C
116 04-05-2019 19:00:00 9.3 C 67.2500 % 3.55 C
117 04-05-2019 20:00:00 7.475 C 74.9167 % 3.32 C
118 04-05-2019 21:00:00 6.49167 C 79.1667 % 3.15 C
119 04-05-2019 22:00:00 5.00833 C 85.0000 % 2.7 C
120 04-05-2019 23:00:00 3.8 C 89.6667 % 2.26 C
121 05-05-2019 00:00:00 3.71667 C 91.7500 % 2.5 C
122 05-05-2019 01:00:00 3.80833 C 92.6667 % 2.73 C
123 05-05-2019 02:00:00 3.45833 C 92.6667 % 2.39 C
124 05-05-2019 03:00:00 3.68333 C 93.7500 % 2.77 C
125 05-05-2019 04:00:00 3.69167 C 92.7500 % 2.63 C
Sensor: Nr:Datum:Temp:Feuchte:Taupunkt:
Aussen-T/F 126 05-05-2019 05:00:00 3.33333 C 92.0000 % 2.16 C
127 05-05-2019 06:00:00 2.73333 C 92.0833 % 1.58 C
128 05-05-2019 07:00:00 2.46667 C 93.3333 % 1.5 C
129 05-05-2019 08:00:00 3.35833 C 94.0000 % 2.49 C
130 05-05-2019 09:00:00 4.73333 C 90.9167 % 3.38 C
131 05-05-2019 10:00:00 5.84167 C 86.5000 % 3.77 C
132 05-05-2019 11:00:00 6.98333 C 83.5000 % 4.39 C
133 05-05-2019 12:00:00 7.63333 C 80.6667 % 4.53 C
134 05-05-2019 13:00:00 8.91667 C 73.1667 % 4.38 C
135 05-05-2019 14:00:00 9.29167 C 70.7500 % 4.26 C
136 05-05-2019 15:00:00 9.86667 C 68.9167 % 4.44 C
137 05-05-2019 16:00:00 12.39167 C 57.5833 % 4.27 C
138 05-05-2019 17:00:00 12.55833 C 58.7500 % 4.71 C
139 05-05-2019 18:00:00 11.3 C 64.5833 % 4.88 C
140 05-05-2019 19:00:00 9.66667 C 70.1667 % 4.5 C
141 05-05-2019 20:00:00 9.19167 C 71.9167 % 4.4 C
142 05-05-2019 21:00:00 8.26667 C 76.0833 % 4.31 C
143 05-05-2019 22:00:00 7.15 C 80.1667 % 3.97 C
144 05-05-2019 23:00:00 6.25 C 85.3333 % 3.98 C
145 06-05-2019 00:00:00 6.11667 C 86.5000 % 4.04 C
146 06-05-2019 01:00:00 5.90833 C 87.5833 % 4.01 C
147 06-05-2019 02:00:00 5.1 C 87.9167 % 3.27 C
148 06-05-2019 03:00:00 4.25833 C 90.4167 % 2.83 C
149 06-05-2019 04:00:00 3.59167 C 91.2500 % 2.3 C
150 06-05-2019 05:00:00 3.01667 C 92.4167 % 1.91 C
Sensor: Nr:Datum:Temp:Feuchte:Taupunkt:
Aussen-T/F 151 06-05-2019 06:00:00 3.14167 C 93.7500 % 2.23 C
152 06-05-2019 07:00:00 3.70833 C 94.0000 % 2.83 C
153 06-05-2019 08:00:00 4.56667 C 92.3333 % 3.43 C
154 06-05-2019 09:00:00 6.31667 C 84.2500 % 3.86 C
155 06-05-2019 10:00:00 8.01667 C 73.8333 % 3.64 C
156 06-05-2019 11:00:00 9.33333 C 66.7500 % 3.48 C
157 06-05-2019 12:00:00 10.05 C 59.5000 % 2.53 C
158 06-05-2019 13:00:00 10.95 C 56.0833 % 2.55 C
159 06-05-2019 14:00:00 11.24167 C 55.0000 % 2.55 C
160 06-05-2019 15:00:00 11.29167 C 57.1667 % 3.14 C
161 06-05-2019 16:00:00 11.01667 C 60.3333 % 3.64 C
162 06-05-2019 17:00:00 10.675 C 61.1667 % 3.51 C
163 06-05-2019 18:00:00 11.425 C 61.2500 % 4.24 C
164 06-05-2019 19:00:00 10.75833 C 68.2500 % 5.15 C
165 06-05-2019 20:00:00 9.18333 C 75.5000 % 5.09 C
166 06-05-2019 21:00:00 8.26667 C 82.0000 % 5.38 C
167 06-05-2019 22:00:00 7.75 C 85.5000 % 5.48 C
168 06-05-2019 23:00:00 7.30833 C 86.8333 % 5.26 C
169 07-05-2019 00:00:00 7.29167 C 88.5000 % 5.52 C
170 07-05-2019 01:00:00 7.04167 C 89.1667 % 5.38 C
171 07-05-2019 02:00:00 6.7 C 90.0000 % 5.18 C
172 07-05-2019 03:00:00 6.64167 C 90.0000 % 5.12 C
173 07-05-2019 04:00:00 6.35 C 90.1667 % 4.86 C
174 07-05-2019 05:00:00 6.16667 C 91.0000 % 4.81 C
175 07-05-2019 06:00:00 5.85833 C 91.3333 % 4.56 C
Sensor: Nr:Datum:Temp:Feuchte:Taupunkt:
Aussen-T/F 176 07-05-2019 07:00:00 6.38333 C 92.0833 % 5.19 C
177 07-05-2019 08:00:00 7.30833 C 89.2500 % 5.66 C
178 07-05-2019 09:00:00 8.475 C 85.7500 % 6.23 C
179 07-05-2019 10:00:00 9.60833 C 79.9167 % 6.32 C
180 07-05-2019 11:00:00 10.575 C 71.7500 % 5.7 C
181 07-05-2019 12:00:00 11.88333 C 60.5000 % 4.49 C
182 07-05-2019 13:00:00 11.86667 C 58.6667 % 4.04 C
183 07-05-2019 14:00:00 12.76667 C 55.1667 % 4.01 C
184 07-05-2019 15:00:00 13.05833 C 52.6667 % 3.62 C
185 07-05-2019 16:00:00 14.13333 C 50.6667 % 4.06 C
186 07-05-2019 17:00:00 14.9 C 47.4167 % 3.83 C
187 07-05-2019 18:00:00 14.94167 C 46.0000 % 3.44 C
188 07-05-2019 19:00:00 13.4 C 61.8333 % 6.24 C
189 07-05-2019 20:00:00 11.275 C 62.9167 % 4.48 C
190 07-05-2019 21:00:00 9.01667 C 68.3333 % 3.51 C
191 07-05-2019 22:00:00 7.98333 C 75.9167 % 4 C
192 07-05-2019 23:00:00 6.93333 C 80.7500 % 3.86 C
193 08-05-2019 00:00:00 6.325 C 82.9167 % 3.64 C
194 08-05-2019 01:00:00 5.75 C 84.4167 % 3.33 C
195 08-05-2019 02:00:00 5.15 C 87.0000 % 3.17 C
196 08-05-2019 03:00:00 4.7 C 89.4167 % 3.11 C
197 08-05-2019 04:00:00 4.95 C 91.0000 % 3.61 C
198 08-05-2019 05:00:00 5.25 C 91.0000 % 3.9 C
199 08-05-2019 06:00:00 5.49167 C 91.2500 % 4.18 C
200 08-05-2019 07:00:00 6.21667 C 90.5000 % 4.78 C
Sensor: Nr:Datum:Temp:Feuchte:Taupunkt:
Aussen-T/F 201 08-05-2019 08:00:00 7.49167 C 87.9167 % 5.62 C
202 08-05-2019 09:00:00 8.85 C 82.5833 % 6.05 C
203 08-05-2019 10:00:00 9.025 C 87.2500 % 7.02 C
204 08-05-2019 11:00:00 9.69167 C 89.4167 % 8.04 C
205 08-05-2019 12:00:00 11.325 C 88.5833 % 9.51 C
206 08-05-2019 13:00:00 13.61667 C 82.9167 % 10.77 C
207 08-05-2019 14:00:00 14.7 C 78.7500 % 11.05 C
208 08-05-2019 15:00:00 14.56667 C 78.9167 % 10.95 C
209 08-05-2019 16:00:00 13.39167 C 86.7500 % 11.23 C
210 08-05-2019 17:00:00 12.51667 C 91.3333 % 11.14 C
211 08-05-2019 18:00:00 12.5 C 92.9167 % 11.39 C
212 08-05-2019 19:00:00 12.25833 C 93.5000 % 11.24 C
213 08-05-2019 20:00:00 11.71667 C 94.0000 % 10.78 C
214 08-05-2019 21:00:00 10.95833 C 94.5000 % 10.11 C
215 08-05-2019 22:00:00 10.14167 C 94.9167 % 9.36 C
216 08-05-2019 23:00:00 9.41667 C 94.5833 % 8.59 C
217 09-05-2019 00:00:00 8.78333 C 94.5000 % 7.95 C
218 09-05-2019 01:00:00 8.31667 C 94.7500 % 7.53 C
219 09-05-2019 02:00:00 7.425 C 94.8333 % 6.65 C
220 09-05-2019 03:00:00 7.31667 C 95.7500 % 6.68 C
221 09-05-2019 04:00:00 7.75833 C 96.0000 % 7.16 C
222 09-05-2019 05:00:00 7.80833 C 96.0000 % 7.21 C
223 09-05-2019 06:00:00 7.46667 C 95.5833 % 6.81 C
224 09-05-2019 07:00:00 8.7 C 96.3333 % 8.15 C
225 09-05-2019 08:00:00 9.9 C 93.4167 % 8.89 C
Sensor: Nr:Datum:Temp:Feuchte:Taupunkt:
Aussen-T/F 226 09-05-2019 09:00:00 11.4 C 87.4167 % 9.39 C
227 09-05-2019 10:00:00 11.6 C 88.2500 % 9.72 C
228 09-05-2019 11:00:00 12.78333 C 84.0000 % 10.15 C
229 09-05-2019 12:00:00 13.21667 C 84.4167 % 10.65 C
230 09-05-2019 13:00:00 13.26667 C 83.8333 % 10.59 C
231 09-05-2019 14:00:00 13.60833 C 80.0833 % 10.24 C
232 09-05-2019 15:00:00 13.43333 C 82.7500 % 10.56 C
233 09-05-2019 16:00:00 13.80833 C 81.1667 % 10.64 C
234 09-05-2019 17:00:00 14.375 C 81.4167 % 11.24 C
235 09-05-2019 18:00:00 15.625 C 79.3333 % 12.06 C
236 09-05-2019 19:00:00 15.4 C 79.2500 % 11.83 C
237 09-05-2019 20:00:00 13.70833 C 85.5833 % 11.34 C
238 09-05-2019 21:00:00 11.66667 C 90.7500 % 10.21 C
239 09-05-2019 22:00:00 10.89167 C 94.1667 % 9.99 C
240 09-05-2019 23:00:00 10.76667 C 95.0000 % 10 C
241 10-05-2019 00:00:00 10.525 C 95.0000 % 9.76 C
242 10-05-2019 01:00:00 9.51667 C 95.0000 % 8.76 C
243 10-05-2019 02:00:00 8.85833 C 95.5000 % 8.18 C
244 10-05-2019 03:00:00 8.16667 C 95.3333 % 7.47 C
245 10-05-2019 04:00:00 8.56667 C 96.2500 % 8 C
246 10-05-2019 05:00:00 8.28333 C 96.0000 % 7.68 C
247 10-05-2019 06:00:00 8.40833 C 96.0000 % 7.81 C
248 10-05-2019 07:00:00 8.75 C 95.5833 % 8.08 C
249 10-05-2019 08:00:00 9.175 C 94.0833 % 8.27 C
250 10-05-2019 09:00:00 10.7 C 87.5000 % 8.71 C
Sensor: Nr:Datum:Temp:Feuchte:Taupunkt:
Aussen-T/F 251 10-05-2019 10:00:00 12.1 C 81.4167 % 9.02 C
252 10-05-2019 11:00:00 13.23333 C 75.7500 % 9.05 C
253 10-05-2019 12:00:00 14.35 C 67.4167 % 8.4 C
254 10-05-2019 13:00:00 15.44167 C 60.0000 % 7.72 C
255 10-05-2019 14:00:00 16.75 C 54.4167 % 7.51 C
256 10-05-2019 15:00:00 17.21667 C 52.5000 % 7.42 C
257 10-05-2019 16:00:00 17.93333 C 49.3333 % 7.17 C
258 10-05-2019 17:00:00 17.6 C 48.8333 % 6.72 C
259 10-05-2019 18:00:00 17.25 C 50.5833 % 6.91 C
260 10-05-2019 19:00:00 17.18333 C 62.0000 % 9.85 C
261 10-05-2019 20:00:00 14.175 C 71.5000 % 9.1 C
262 10-05-2019 21:00:00 12.35 C 77.4167 % 8.52 C
263 10-05-2019 22:00:00 11.76667 C 81.3333 % 8.68 C
264 10-05-2019 23:00:00 11.53333 C 83.2500 % 8.79 C
265 11-05-2019 00:00:00 11.04167 C 86.5833 % 8.89 C
266 11-05-2019 01:00:00 10.36667 C 91.1667 % 8.99 C
267 11-05-2019 02:00:00 10.1 C 93.3333 % 9.07 C
268 11-05-2019 03:00:00 9.925 C 94.1667 % 9.03 C
269 11-05-2019 04:00:00 9.7 C 95.0000 % 8.94 C
270 11-05-2019 05:00:00 9.775 C 95.7500 % 9.13 C
271 11-05-2019 06:00:00 9.7 C 96.0000 % 9.09 C
272 11-05-2019 07:00:00 9.7 C 96.0000 % 9.09 C
273 11-05-2019 08:00:00 9.65833 C 96.0000 % 9.05 C
274 11-05-2019 09:00:00 9.70833 C 96.0000 % 9.1 C
275 11-05-2019 10:00:00 9.85833 C 96.0000 % 9.25 C
Sensor: Nr:Datum:Temp:Feuchte:Taupunkt:
Aussen-T/F 276 11-05-2019 11:00:00 10.13333 C 96.0000 % 9.52 C
277 11-05-2019 12:00:00 10.36667 C 94.5833 % 9.54 C
278 11-05-2019 13:00:00 9.79167 C 94.0000 % 8.87 C
279 11-05-2019 14:00:00 9.76667 C 94.9167 % 8.99 C
280 11-05-2019 15:00:00 9.91667 C 95.0000 % 9.15 C
281 11-05-2019 16:00:00 10.31667 C 95.9167 % 9.69 C
282 11-05-2019 17:00:00 10.95833 C 95.4167 % 10.25 C
283 11-05-2019 18:00:00 11.79167 C 88.6667 % 9.98 C
284 11-05-2019 19:00:00 12.1 C 81.5833 % 9.05 C
285 11-05-2019 20:00:00 11.3 C 84.1667 % 8.73 C
286 11-05-2019 21:00:00 9.44167 C 91.2500 % 8.09 C
287 11-05-2019 22:00:00 8.33333 C 92.8333 % 7.24 C
288 11-05-2019 23:00:00 7.65 C 94.3333 % 6.8 C
289 12-05-2019 00:00:00 7.41667 C 95.0000 % 6.67 C
290 12-05-2019 01:00:00 6.75 C 95.0000 % 6.01 C
291 12-05-2019 02:00:00 6.43333 C 93.7500 % 5.5 C
292 12-05-2019 03:00:00 5.66667 C 93.0000 % 4.63 C
293 12-05-2019 04:00:00 4.70833 C 93.7500 % 3.79 C
294 12-05-2019 05:00:00 4.225 C 94.6667 % 3.45 C
295 12-05-2019 06:00:00 4.45833 C 95.0000 % 3.73 C
296 12-05-2019 07:00:00 5.68333 C 91.8333 % 4.46 C
297 12-05-2019 08:00:00 6.98333 C 85.5000 % 4.72 C
298 12-05-2019 09:00:00 8.125 C 78.6667 % 4.65 C
299 12-05-2019 10:00:00 8.83333 C 74.3333 % 4.53 C
300 12-05-2019 11:00:00 9.58333 C 69.4167 % 4.27 C
Sensor: Nr:Datum:Temp:Feuchte:Taupunkt:
Aussen-T/F 301 12-05-2019 12:00:00 10.54167 C 64.7500 % 4.19 C
302 12-05-2019 13:00:00 11.66667 C 60.1667 % 4.21 C
303 12-05-2019 14:00:00 12.83333 C 54.8333 % 3.98 C
304 12-05-2019 15:00:00 14.13333 C 50.9167 % 4.13 C
305 12-05-2019 16:00:00 15.25833 C 46.0000 % 3.72 C
306 12-05-2019 17:00:00 14.83333 C 45.5000 % 3.18 C
307 12-05-2019 18:00:00 15.19167 C 43.5833 % 2.9 C
308 12-05-2019 19:00:00 13.96667 C 45.0833 % 2.26 C
309 12-05-2019 20:00:00 13.09167 C 49.2500 % 2.71 C
310 12-05-2019 21:00:00 9.68333 C 71.3333 % 4.76 C
311 12-05-2019 22:00:00 8.375 C 76.7500 % 4.54 C
312 12-05-2019 23:00:00 7.30833 C 78.5833 % 3.84 C
313 13-05-2019 00:00:00 6.45 C 82.1667 % 3.64 C
314 13-05-2019 01:00:00 5.11667 C 87.5833 % 3.23 C
315 13-05-2019 02:00:00 4.15 C 90.5833 % 2.75 C
316 13-05-2019 03:00:00 3.60833 C 92.2500 % 2.47 C
317 13-05-2019 04:00:00 3.075 C 93.2500 % 2.09 C
318 13-05-2019 05:00:00 2.64167 C 94.0000 % 1.78 C
319 13-05-2019 06:00:00 2.30833 C 94.5000 % 1.52 C
320 13-05-2019 07:00:00 2.63333 C 95.2500 % 1.95 C
321 13-05-2019 08:00:00 4.26667 C 96.0000 % 3.69 C
322 13-05-2019 09:00:00 6.13333 C 90.4167 % 4.69 C
323 13-05-2019 10:00:00 9.69167 C 57.8333 % 1.8 C
324 13-05-2019 11:00:00 11.4 C 48.6667 % 0.99 C
325 13-05-2019 12:00:00 13.43333 C 32.5833 % -2.66 C
Sensor: Nr:Datum:Temp:Feuchte:Taupunkt:
Aussen-T/F 326 13-05-2019 13:00:00 14.6 C 29.9167 % -2.79 C
327 13-05-2019 14:00:00 15.575 C 31.0000 % -1.47 C
328 13-05-2019 15:00:00 17.19167 C 29.5833 % -0.7 C
329 13-05-2019 16:00:00 18.43333 C 28.9167 % 0.06 C
330 13-05-2019 17:00:00 18.6 C 28.4167 % -0.04 C
331 13-05-2019 18:00:00 18.08333 C 28.8333 % -0.29 C
332 13-05-2019 19:00:00 16.95833 C 32.8333 % 0.52 C
333 13-05-2019 20:00:00 15.41667 C 34.7500 % -0.05 C
334 13-05-2019 21:00:00 12.25 C 50.4167 % 2.26 C
335 13-05-2019 22:00:00 9.325 C 60.9167 % 2.18 C
336 13-05-2019 23:00:00 7.875 C 69.4167 % 2.63 C
337 14-05-2019 00:00:00 6.7 C 74.8333 % 2.56 C
338 14-05-2019 01:00:00 5.76667 C 77.5000 % 2.15 C
339 14-05-2019 02:00:00 4.74167 C 81.2500 % 1.81 C
340 14-05-2019 03:00:00 3.83333 C 84.6667 % 1.49 C
341 14-05-2019 04:00:00 3.18333 C 87.0000 % 1.23 C
342 14-05-2019 05:00:00 2.66667 C 88.9167 % 1.03 C
343 14-05-2019 06:00:00 2.41667 C 90.8333 % 1.08 C
344 14-05-2019 07:00:00 2.825 C 92.5000 % 1.73 C
345 14-05-2019 08:00:00 4.2 C 92.5833 % 3.11 C
346 14-05-2019 09:00:00 6.50833 C 85.8333 % 4.31 C
347 14-05-2019 10:00:00 9.575 C 69.3333 % 4.25 C
348 14-05-2019 11:00:00 12.65 C 50.8333 % 2.74 C
349 14-05-2019 12:00:00 13.45833 C 45.8333 % 2.03 C
350 14-05-2019 13:00:00 14.21667 C 43.7500 % 2.07 C
Sensor: Nr:Datum:Temp:Feuchte:Taupunkt:
Aussen-T/F 351 14-05-2019 14:00:00 14.79167 C 43.0000 % 2.35 C
352 14-05-2019 15:00:00 16.00833 C 39.8333 % 2.37 C
353 14-05-2019 16:00:00 16.59167 C 37.0833 % 1.89 C
354 14-05-2019 17:00:00 16.8 C 36.4167 % 1.82 C
355 14-05-2019 18:00:00 16.475 C 37.2500 % 1.85 C
356 14-05-2019 19:00:00 16.075 C 38.1667 % 1.83 C
357 14-05-2019 20:00:00 13.73333 C 48.9167 % 3.2 C
358 14-05-2019 21:00:00 10.35 C 60.5833 % 3.07 C
359 14-05-2019 22:00:00 8.73333 C 67.9167 % 3.15 C
360 14-05-2019 23:00:00 7.69167 C 71.9167 % 2.96 C
361 15-05-2019 00:00:00 6.88333 C 73.5000 % 2.48 C
362 15-05-2019 01:00:00 5.89167 C 77.3333 % 2.24 C
363 15-05-2019 02:00:00 4.74167 C 81.4167 % 1.84 C
364 15-05-2019 03:00:00 3.98333 C 84.5000 % 1.61 C
365 15-05-2019 04:00:00 3.15 C 87.4167 % 1.27 C
366 15-05-2019 05:00:00 2.60833 C 89.0000 % 0.98 C
367 15-05-2019 06:00:00 2.325 C 91.0000 % 1.01 C
368 15-05-2019 07:00:00 2.75833 C 92.4167 % 1.65 C
369 15-05-2019 08:00:00 3.775 C 92.7500 % 2.71 C
370 15-05-2019 09:00:00 5.99167 C 85.3333 % 3.72 C
371 15-05-2019 10:00:00 10.15833 C 54.6667 % 1.45 C
372 15-05-2019 11:00:00 12.05 C 45.6667 % 0.7 C
373 15-05-2019 12:00:00 12.95 C 40.9167 % 0 C
374 15-05-2019 13:00:00 14.08333 C 35.9167 % -0.77 C
375 15-05-2019 14:00:00 14.95 C 37.1667 % 0.46 C
Sensor: Nr:Datum:Temp:Feuchte:Taupunkt:
Aussen-T/F 376 15-05-2019 15:00:00 15.975 C 34.0833 % 0.18 C
377 15-05-2019 16:00:00 17.19167 C 34.3333 % 1.35 C
378 15-05-2019 17:00:00 17.58333 C 33.0833 % 1.18 C
379 15-05-2019 18:00:00 17.38333 C 33.9167 % 1.35 C
380 15-05-2019 19:00:00 16.55833 C 35.2500 % 1.16 C
381 15-05-2019 20:00:00 15.10833 C 42.2500 % 2.39 C
382 15-05-2019 21:00:00 11.45833 C 56.8333 % 3.21 C
383 15-05-2019 22:00:00 9.525 C 60.3333 % 2.24 C
384 15-05-2019 23:00:00 8.09167 C 63.9167 % 1.69 C
385 16-05-2019 00:00:00 7.39167 C 66.5833 % 1.59 C
386 16-05-2019 01:00:00 6.64167 C 73.4167 % 2.24 C
387 16-05-2019 02:00:00 5.725 C 78.7500 % 2.33 C
388 16-05-2019 03:00:00 5.58333 C 82.1667 % 2.79 C
389 16-05-2019 04:00:00 5.71667 C 83.5833 % 3.16 C
390 16-05-2019 05:00:00 5.83333 C 84.0833 % 3.36 C
391 16-05-2019 06:00:00 5.95 C 85.4167 % 3.7 C
392 16-05-2019 07:00:00 6.64167 C 85.1667 % 4.33 C
393 16-05-2019 08:00:00 7.98333 C 82.8333 % 5.25 C
394 16-05-2019 09:00:00 9.95 C 72.7500 % 5.29 C
395 16-05-2019 10:00:00 11.65833 C 62.9167 % 4.84 C
396 16-05-2019 11:00:00 12.20833 C 58.5833 % 4.34 C
397 16-05-2019 12:00:00 13.13333 C 58.8333 % 5.27 C
398 16-05-2019 13:00:00 14.68333 C 56.6667 % 6.18 C
399 16-05-2019 14:00:00 15.4 C 55.8333 % 6.63 C
400 16-05-2019 15:00:00 17.38333 C 52.0833 % 7.46 C
Sensor: Nr:Datum:Temp:Feuchte:Taupunkt:
Aussen-T/F 401 16-05-2019 16:00:00 18.23333 C 49.6667 % 7.55 C
402 16-05-2019 17:00:00 16.90833 C 54.0000 % 7.55 C
403 16-05-2019 18:00:00 15.44167 C 61.5833 % 8.1 C
404 16-05-2019 19:00:00 14.075 C 68.0833 % 8.28 C
405 16-05-2019 20:00:00 12.56667 C 73.1667 % 7.9 C
406 16-05-2019 21:00:00 11.175 C 76.0000 % 7.11 C
407 16-05-2019 22:00:00 10.23333 C 81.7500 % 7.26 C
408 16-05-2019 23:00:00 9.60833 C 86.3333 % 7.44 C
409 17-05-2019 00:00:00 9.08333 C 90.9167 % 7.68 C
410 17-05-2019 01:00:00 8.79167 C 92.5000 % 7.64 C
411 17-05-2019 02:00:00 8.7 C 93.6667 % 7.74 C
412 17-05-2019 03:00:00 8.63333 C 94.1667 % 7.75 C
413 17-05-2019 04:00:00 8.475 C 94.9167 % 7.71 C
414 17-05-2019 05:00:00 8.36667 C 95.0000 % 7.61 C
415 17-05-2019 06:00:00 8.45 C 95.5833 % 7.79 C
416 17-05-2019 07:00:00 8.71667 C 96.0000 % 8.12 C
417 17-05-2019 08:00:00 8.96667 C 96.0000 % 8.36 C
418 17-05-2019 09:00:00 9.29167 C 96.0000 % 8.69 C
419 17-05-2019 10:00:00 9.625 C 96.0000 % 9.02 C
420 17-05-2019 11:00:00 10.2 C 95.0833 % 9.45 C
421 17-05-2019 12:00:00 11.175 C 93.7500 % 10.21 C
422 17-05-2019 13:00:00 12.825 C 89.1667 % 11.09 C
423 17-05-2019 14:00:00 14.44167 C 84.1667 % 11.8 C
424 17-05-2019 15:00:00 15.54167 C 79.8333 % 12.08 C
425 17-05-2019 16:00:00 16.35 C 75.2500 % 11.96 C
Sensor: Nr:Datum:Temp:Feuchte:Taupunkt:
Aussen-T/F 426 17-05-2019 17:00:00 17.35 C 70.8333 % 12.01 C
427 17-05-2019 18:00:00 16.8 C 78.3333 % 13.01 C
428 17-05-2019 19:00:00 16.625 C 80.1667 % 13.19 C
429 17-05-2019 20:00:00 13.975 C 85.3333 % 11.55 C
430 17-05-2019 21:00:00 12.00833 C 89.6667 % 10.36 C
431 17-05-2019 22:00:00 11.96667 C 92.0000 % 10.71 C
432 17-05-2019 23:00:00 12.05833 C 93.4167 % 11.03 C
433 18-05-2019 00:00:00 11.6 C 94.0000 % 10.67 C
434 18-05-2019 01:00:00 10.44167 C 94.4167 % 9.58 C
435 18-05-2019 02:00:00 10.58333 C 95.8333 % 9.95 C
436 18-05-2019 03:00:00 10.43333 C 95.9167 % 9.81 C
437 18-05-2019 04:00:00 9.925 C 96.0000 % 9.32 C
438 18-05-2019 05:00:00 9.31667 C 96.0000 % 8.71 C
439 18-05-2019 06:00:00 9.35833 C 96.5000 % 8.83 C
440 18-05-2019 07:00:00 10.23333 C 97.0000 % 9.78 C
441 18-05-2019 08:00:00 11.2 C 96.8333 % 10.72 C
442 18-05-2019 09:00:00 12.275 C 94.6667 % 11.44 C
443 18-05-2019 10:00:00 14.16667 C 91.3333 % 12.78 C
444 18-05-2019 11:00:00 16.9 C 77.2500 % 12.89 C
445 18-05-2019 12:00:00 18.14167 C 71.5000 % 12.91 C
446 18-05-2019 13:00:00 19.01667 C 69.0833 % 13.22 C
447 18-05-2019 14:00:00 20.34167 C 62.5000 % 12.95 C
448 18-05-2019 15:00:00 21.05833 C 58.4167 % 12.59 C
449 18-05-2019 16:00:00 22.41667 C 60.3333 % 14.36 C
450 18-05-2019 17:00:00 21.04167 C 70.5833 % 15.49 C
Sensor: Nr:Datum:Temp:Feuchte:Taupunkt:
Aussen-T/F 451 18-05-2019 18:00:00 18.54167 C 76.5833 % 14.35 C
452 18-05-2019 19:00:00 15.85 C 86.9167 % 13.68 C
453 18-05-2019 20:00:00 14.79167 C 90.4167 % 13.24 C
454 18-05-2019 21:00:00 13.71667 C 92.0000 % 12.44 C
455 18-05-2019 22:00:00 12.75 C 93.3333 % 11.7 C
456 18-05-2019 23:00:00 12.53333 C 94.6667 % 11.7 C
457 19-05-2019 00:00:00 12.79167 C 95.0000 % 12.01 C
458 19-05-2019 01:00:00 12.73333 C 95.0000 % 11.95 C
459 19-05-2019 02:00:00 12.26667 C 95.0000 % 11.49 C
460 19-05-2019 03:00:00 11.71667 C 95.5000 % 11.02 C
461 19-05-2019 04:00:00 11.625 C 96.0000 % 11.01 C
462 19-05-2019 05:00:00 11.38333 C 96.0000 % 10.77 C
463 19-05-2019 06:00:00 11.475 C 96.8333 % 10.99 C
464 19-05-2019 07:00:00 12.13333 C 97.0000 % 11.67 C
465 19-05-2019 08:00:00 12.825 C 97.0000 % 12.36 C
466 19-05-2019 09:00:00 13.73333 C 96.9167 % 13.25 C
467 19-05-2019 10:00:00 15.11667 C 94.8333 % 14.29 C
468 19-05-2019 11:00:00 16.26667 C 90.2500 % 14.67 C
469 19-05-2019 12:00:00 17.99167 C 84.2500 % 15.29 C
470 19-05-2019 13:00:00 18.78333 C 77.5000 % 14.77 C
471 19-05-2019 14:00:00 20.225 C 67.2500 % 13.96 C
472 19-05-2019 15:00:00 22.54167 C 61.3333 % 14.73 C
473 19-05-2019 16:00:00 23.4 C 58.4167 % 14.78 C
474 19-05-2019 17:00:00 19.25833 C 63.3333 % 12.13 C
475 19-05-2019 18:00:00 19.96667 C 65.1667 % 13.23 C
Sensor: Nr:Datum:Temp:Feuchte:Taupunkt:
Aussen-T/F 476 19-05-2019 19:00:00 20.475 C 63.1667 % 13.24 C
477 19-05-2019 20:00:00 18.96667 C 68.5833 % 13.06 C
478 19-05-2019 21:00:00 15.7 C 80.8333 % 12.42 C
479 19-05-2019 22:00:00 14.53333 C 86.1667 % 12.25 C
480 19-05-2019 23:00:00 14.65833 C 84.7500 % 12.12 C
481 20-05-2019 00:00:00 14.48333 C 85.6667 % 12.11 C
482 20-05-2019 01:00:00 13.40833 C 89.3333 % 11.69 C
483 20-05-2019 02:00:00 12.46667 C 91.5833 % 11.14 C
484 20-05-2019 03:00:00 12.23333 C 93.1667 % 11.16 C
485 20-05-2019 04:00:00 12.7 C 94.0000 % 11.76 C
486 20-05-2019 05:00:00 13.13333 C 93.0000 % 12.03 C
487 20-05-2019 06:00:00 13.15 C 92.0000 % 11.88 C
488 20-05-2019 07:00:00 13.16667 C 92.0000 % 11.9 C
489 20-05-2019 08:00:00 13.475 C 91.7500 % 12.16 C
490 20-05-2019 09:00:00 13.95 C 89.9167 % 12.32 C
491 20-05-2019 10:00:00 14.25833 C 89.0833 % 12.49 C
492 20-05-2019 11:00:00 14.125 C 91.9167 % 12.83 C
493 20-05-2019 12:00:00 14.08333 C 92.0833 % 12.82 C
494 20-05-2019 13:00:00 13.85833 C 92.0000 % 12.58 C
495 20-05-2019 14:00:00 14.29167 C 91.4167 % 12.91 C
496 20-05-2019 15:00:00 14.6 C 89.2500 % 12.85 C
497 20-05-2019 16:00:00 14.84167 C 87.7500 % 12.83 C
498 20-05-2019 17:00:00 14.93333 C 87.0000 % 12.79 C
499 20-05-2019 18:00:00 14.86667 C 86.0833 % 12.56 C
500 20-05-2019 19:00:00 14.65 C 86.6667 % 12.45 C
Sensor: Nr:Datum:Temp:Feuchte:Taupunkt:
Aussen-T/F 501 20-05-2019 20:00:00 14.5 C 87.2500 % 12.41 C
502 20-05-2019 21:00:00 14.19167 C 88.0000 % 12.23 C
503 20-05-2019 22:00:00 14.1 C 88.0000 % 12.14 C
504 20-05-2019 23:00:00 14.21667 C 86.5833 % 12.01 C
505 21-05-2019 00:00:00 14.23333 C 86.6667 % 12.04 C
506 21-05-2019 01:00:00 13.8 C 89.5000 % 12.1 C
507 21-05-2019 02:00:00 13.56667 C 90.6667 % 12.07 C
508 21-05-2019 03:00:00 13.275 C 91.5000 % 11.92 C
509 21-05-2019 04:00:00 13.11667 C 91.0000 % 11.68 C
510 21-05-2019 05:00:00 12.71667 C 91.5833 % 11.38 C
511 21-05-2019 06:00:00 12.21667 C 93.7500 % 11.24 C
512 21-05-2019 07:00:00 12.23333 C 94.0000 % 11.3 C
513 21-05-2019 08:00:00 12.3 C 93.5833 % 11.3 C
514 21-05-2019 09:00:00 12.3 C 93.5833 % 11.3 C
515 21-05-2019 10:00:00 12.23333 C 93.6667 % 11.24 C
516 21-05-2019 11:00:00 12.15 C 93.0833 % 11.07 C
517 21-05-2019 12:00:00 12.11667 C 93.8333 % 11.15 C
518 21-05-2019 13:00:00 12.225 C 94.0000 % 11.29 C
519 21-05-2019 14:00:00 12.15 C 93.6667 % 11.16 C
520 21-05-2019 15:00:00 12.15833 C 93.0833 % 11.07 C
521 21-05-2019 16:00:00 12.09167 C 93.9167 % 11.14 C
522 21-05-2019 17:00:00 12.18333 C 94.0833 % 11.26 C
523 21-05-2019 18:00:00 12.275 C 94.0833 % 11.35 C
524 21-05-2019 19:00:00 12.375 C 93.6667 % 11.38 C
525 21-05-2019 20:00:00 12.21667 C 94.8333 % 11.41 C
Sensor: Nr:Datum:Temp:Feuchte:Taupunkt:
Aussen-T/F 526 21-05-2019 21:00:00 12.1 C 95.0000 % 11.32 C
527 21-05-2019 22:00:00 12.04167 C 95.3333 % 11.32 C
528 21-05-2019 23:00:00 11.85833 C 96.0000 % 11.24 C
529 22-05-2019 00:00:00 11.8 C 96.0000 % 11.18 C
530 22-05-2019 01:00:00 11.75 C 96.0000 % 11.13 C
531 22-05-2019 02:00:00 11.56667 C 96.0000 % 10.95 C
532 22-05-2019 03:00:00 11.575 C 96.0000 % 10.96 C
533 22-05-2019 04:00:00 11.44167 C 95.2500 % 10.71 C
534 22-05-2019 05:00:00 11.33333 C 95.0000 % 10.56 C
535 22-05-2019 06:00:00 11.05 C 94.0000 % 10.12 C
536 22-05-2019 07:00:00 10.66667 C 93.3333 % 9.64 C
537 22-05-2019 08:00:00 10.33333 C 91.9167 % 9.08 C
538 22-05-2019 09:00:00 10.475 C 87.2500 % 8.45 C
539 22-05-2019 10:00:00 10.88333 C 83.4167 % 8.19 C
540 22-05-2019 11:00:00 11.51667 C 82.3333 % 8.61 C
541 22-05-2019 12:00:00 12.85 C 76.6667 % 8.86 C
542 22-05-2019 13:00:00 13.65833 C 73.5833 % 9.03 C
543 22-05-2019 14:00:00 15.01667 C 69.6667 % 9.52 C
544 22-05-2019 15:00:00 17.08333 C 63.7500 % 10.17 C
545 22-05-2019 16:00:00 18.625 C 59.0000 % 10.46 C
546 22-05-2019 17:00:00 18.24167 C 58.7500 % 10.04 C
547 22-05-2019 18:00:00 19.46667 C 54.0833 % 9.94 C
548 22-05-2019 19:00:00 19.025 C 56.0833 % 10.08 C
549 22-05-2019 20:00:00 17.24167 C 70.9167 % 11.92 C
550 22-05-2019 21:00:00 13.73333 C 76.5833 % 9.7 C
Sensor: Nr:Datum:Temp:Feuchte:Taupunkt:
Aussen-T/F 551 22-05-2019 22:00:00 11.64167 C 85.5833 % 9.31 C
552 22-05-2019 23:00:00 10.33333 C 89.6667 % 8.71 C
553 23-05-2019 00:00:00 9.5 C 91.6667 % 8.21 C
554 23-05-2019 01:00:00 8.975 C 92.9167 % 7.89 C
555 23-05-2019 02:00:00 8.54167 C 93.6667 % 7.58 C
556 23-05-2019 03:00:00 8.35833 C 94.8333 % 7.58 C
557 23-05-2019 04:00:00 7.93333 C 95.0000 % 7.18 C
558 23-05-2019 05:00:00 7.71667 C 95.2500 % 7.01 C
559 23-05-2019 06:00:00 7.9 C 96.0000 % 7.3 C
560 23-05-2019 07:00:00 8.675 C 96.0000 % 8.07 C
561 23-05-2019 08:00:00 9.59167 C 95.8333 % 8.96 C
562 23-05-2019 09:00:00 11.05833 C 94.0000 % 10.13 C
563 23-05-2019 10:00:00 13.75 C 87.4167 % 11.7 C
564 23-05-2019 11:00:00 17.49167 C 65.9167 % 11.06 C
565 23-05-2019 12:00:00 18.84167 C 57.8333 % 10.36 C
566 23-05-2019 13:00:00 19.83333 C 56.4167 % 10.92 C
567 23-05-2019 14:00:00 21.25833 C 48.8333 % 10.07 C
568 23-05-2019 15:00:00 22.38333 C 46.0833 % 10.23 C
569 23-05-2019 16:00:00 24.39167 C 39.2500 % 9.64 C
570 23-05-2019 17:00:00 24.78333 C 37.5833 % 9.35 C
571 23-05-2019 18:00:00 24.96667 C 37.5000 % 9.48 C
572 23-05-2019 19:00:00 22.80833 C 52.6667 % 12.64 C
573 23-05-2019 20:00:00 19.33333 C 64.8333 % 12.55 C
574 23-05-2019 21:00:00 16.40833 C 74.0833 % 11.78 C
575 23-05-2019 22:00:00 14.68333 C 82.0000 % 11.65 C
Sensor: Nr:Datum:Temp:Feuchte:Taupunkt:
Aussen-T/F 576 23-05-2019 23:00:00 13.66667 C 83.7500 % 10.97 C
577 24-05-2019 00:00:00 12.84167 C 86.3333 % 10.62 C
578 24-05-2019 01:00:00 12.36667 C 87.5833 % 10.37 C
579 24-05-2019 02:00:00 11.83333 C 89.2500 % 10.12 C
580 24-05-2019 03:00:00 11.40833 C 91.0000 % 9.99 C
581 24-05-2019 04:00:00 11.25 C 92.0000 % 10 C
582 24-05-2019 05:00:00 11.16667 C 92.0000 % 9.92 C
583 24-05-2019 06:00:00 11 C 92.9167 % 9.9 C
584 24-05-2019 07:00:00 11.71667 C 92.7500 % 10.58 C
585 24-05-2019 08:00:00 13.29167 C 88.2500 % 11.39 C
586 24-05-2019 09:00:00 15.28333 C 80.2500 % 11.9 C
587 24-05-2019 10:00:00 16.80833 C 76.3333 % 12.62 C
588 24-05-2019 11:00:00 18.925 C 68.1667 % 12.93 C
589 24-05-2019 12:00:00 20.75833 C 57.3333 % 12.02 C
590 24-05-2019 13:00:00 22.09167 C 46.8333 % 10.21 C
591 24-05-2019 14:00:00 22.98333 C 43.2500 % 9.83 C
592 24-05-2019 15:00:00 23.45 C 40.5000 % 9.27 C
593 24-05-2019 16:00:00 23.88333 C 40.6667 % 9.72 C
594 24-05-2019 17:00:00 24.26667 C 42.4167 % 10.69 C
595 24-05-2019 18:00:00 24.40833 C 41.0833 % 10.34 C
596 24-05-2019 19:00:00 21.04167 C 56.5000 % 12.07 C
597 24-05-2019 20:00:00 19.475 C 61.7500 % 11.95 C
598 24-05-2019 21:00:00 16.96667 C 71.5000 % 11.78 C
599 24-05-2019 22:00:00 15.14167 C 79.5833 % 11.64 C
600 24-05-2019 23:00:00 14.06667 C 84.0000 % 11.41 C
Sensor: Nr:Datum:Temp:Feuchte:Taupunkt:
Aussen-T/F 601 25-05-2019 00:00:00 14.75833 C 78.6667 % 11.09 C
602 25-05-2019 01:00:00 13.875 C 77.7500 % 10.06 C
603 25-05-2019 02:00:00 13.125 C 76.0000 % 8.99 C
604 25-05-2019 03:00:00 12.16667 C 76.0833 % 8.08 C
605 25-05-2019 04:00:00 10.84167 C 75.5000 % 6.69 C
606 25-05-2019 05:00:00 10.2 C 77.2500 % 6.4 C
607 25-05-2019 06:00:00 9.525 C 83.5833 % 6.89 C
608 25-05-2019 07:00:00 10.675 C 80.3333 % 7.43 C
609 25-05-2019 08:00:00 13.04167 C 72.1667 % 8.15 C
610 25-05-2019 09:00:00 14.025 C 71.6667 % 8.99 C
611 25-05-2019 10:00:00 15.3 C 68.2500 % 9.49 C
612 25-05-2019 11:00:00 16.25 C 63.5000 % 9.32 C
613 25-05-2019 12:00:00 16.95833 C 64.4167 % 10.2 C
614 25-05-2019 13:00:00 18.45 C 60.1667 % 10.59 C
615 25-05-2019 14:00:00 19.35833 C 55.0833 % 10.12 C
616 25-05-2019 15:00:00 21.01667 C 50.7500 % 10.43 C
617 25-05-2019 16:00:00 22.06667 C 46.6667 % 10.13 C
618 25-05-2019 17:00:00 21.73333 C 46.0000 % 9.61 C
619 25-05-2019 18:00:00 19.95 C 49.0000 % 8.92 C
620 25-05-2019 19:00:00 18.875 C 54.5833 % 9.53 C
621 25-05-2019 20:00:00 17.98333 C 64.1667 % 11.12 C
622 25-05-2019 21:00:00 16.03333 C 71.4167 % 10.87 C
623 25-05-2019 22:00:00 14.81667 C 75.2500 % 10.48 C
624 25-05-2019 23:00:00 13.38333 C 79.7500 % 9.96 C
625 26-05-2019 00:00:00 11.85 C 85.0000 % 9.41 C
Sensor: Nr:Datum:Temp:Feuchte:Taupunkt:
Aussen-T/F 626 26-05-2019 01:00:00 10.775 C 88.8333 % 9.01 C
627 26-05-2019 02:00:00 10.13333 C 90.9167 % 8.72 C
628 26-05-2019 03:00:00 9.44167 C 92.3333 % 8.26 C
629 26-05-2019 04:00:00 8.95 C 93.1667 % 7.91 C
630 26-05-2019 05:00:00 8.825 C 94.4167 % 7.98 C
631 26-05-2019 06:00:00 9.36667 C 94.5000 % 8.53 C
632 26-05-2019 07:00:00 9.9 C 93.6667 % 8.93 C
633 26-05-2019 08:00:00 11.21667 C 93.1667 % 10.15 C
634 26-05-2019 09:00:00 14.3 C 84.5000 % 11.73 C
635 26-05-2019 10:00:00 16.83333 C 72.8333 % 11.93 C
636 26-05-2019 11:00:00 18.16667 C 63.5833 % 11.15 C
637 26-05-2019 12:00:00 18.99167 C 60.8333 % 11.27 C
638 26-05-2019 13:00:00 20.275 C 58.8333 % 11.96 C
639 26-05-2019 14:00:00 21.68333 C 52.8333 % 11.65 C
640 26-05-2019 15:00:00 23.43333 C 49.0833 % 12.14 C
641 26-05-2019 16:00:00 23.725 C 48.5000 % 12.22 C
642 26-05-2019 17:00:00 21.91667 C 55.7500 % 12.68 C
643 26-05-2019 18:00:00 21.45833 C 58.3333 % 12.94 C
644 26-05-2019 19:00:00 19.93333 C 65.5000 % 13.28 C
645 26-05-2019 20:00:00 18.36667 C 72.2500 % 13.29 C
646 26-05-2019 21:00:00 17.93333 C 70.7500 % 12.55 C
647 26-05-2019 22:00:00 17.68333 C 72.0833 % 12.59 C
648 26-05-2019 23:00:00 16.925 C 75.2500 % 12.52 C
649 27-05-2019 00:00:00 16.29167 C 78.4167 % 12.53 C
650 27-05-2019 01:00:00 15.75 C 80.8333 % 12.47 C
Sensor: Nr:Datum:Temp:Feuchte:Taupunkt:
Aussen-T/F 651 27-05-2019 02:00:00 14.7 C 83.2500 % 11.89 C
652 27-05-2019 03:00:00 14.1 C 84.4167 % 11.51 C
653 27-05-2019 04:00:00 13.85 C 87.3333 % 11.78 C
654 27-05-2019 05:00:00 14.19167 C 90.0000 % 12.58 C
655 27-05-2019 06:00:00 13.94167 C 92.8333 % 12.8 C
656 27-05-2019 07:00:00 14.20833 C 94.0000 % 13.26 C
657 27-05-2019 08:00:00 14.94167 C 93.2500 % 13.86 C
658 27-05-2019 09:00:00 15.61667 C 92.6667 % 14.43 C
659 27-05-2019 10:00:00 15.925 C 91.4167 % 14.53 C
660 27-05-2019 11:00:00 15.25 C 91.5833 % 13.89 C
661 27-05-2019 12:00:00 15.00833 C 93.1667 % 13.91 C
662 27-05-2019 13:00:00 14.39167 C 93.5000 % 13.36 C
663 27-05-2019 14:00:00 14.53333 C 94.3333 % 13.63 C
664 27-05-2019 15:00:00 14.825 C 93.9167 % 13.86 C
665 27-05-2019 16:00:00 15.475 C 93.9167 % 14.5 C
666 27-05-2019 17:00:00 16.075 C 92.5833 % 14.87 C
667 27-05-2019 18:00:00 16.275 C 93.0833 % 15.16 C
668 27-05-2019 19:00:00 16.73333 C 92.9167 % 15.58 C
669 27-05-2019 20:00:00 15.78333 C 91.5833 % 14.42 C
670 27-05-2019 21:00:00 14.68333 C 93.0833 % 13.58 C
671 27-05-2019 22:00:00 13.79167 C 94.2500 % 12.88 C
672 27-05-2019 23:00:00 13.4 C 95.0000 % 12.62 C
673 28-05-2019 00:00:00 12.96667 C 95.6667 % 12.29 C
674 28-05-2019 01:00:00 12.45 C 96.0000 % 11.83 C
675 28-05-2019 02:00:00 12.55 C 96.6667 % 12.03 C
Sensor: Nr:Datum:Temp:Feuchte:Taupunkt:
Aussen-T/F 676 28-05-2019 03:00:00 12.41667 C 96.5833 % 11.89 C
677 28-05-2019 04:00:00 11.55 C 96.4167 % 11 C
678 28-05-2019 05:00:00 11.80833 C 97.0000 % 11.35 C
679 28-05-2019 06:00:00 12.18333 C 97.0000 % 11.72 C
680 28-05-2019 07:00:00 12.51667 C 97.0000 % 12.05 C
681 28-05-2019 08:00:00 12.84167 C 97.0000 % 12.38 C
682 28-05-2019 09:00:00 13.425 C 95.5833 % 12.73 C
683 28-05-2019 10:00:00 14.74167 C 87.5000 % 12.69 C
684 28-05-2019 11:00:00 15.65 C 80.8333 % 12.37 C
685 28-05-2019 12:00:00 16.05 C 74.7500 % 11.57 C
686 28-05-2019 13:00:00 17.49167 C 66.4167 % 11.17 C
687 28-05-2019 14:00:00 16.04167 C 70.3333 % 10.65 C
688 28-05-2019 15:00:00 13.65833 C 84.3333 % 11.07 C
689 28-05-2019 16:00:00 15.80833 C 76.7500 % 11.74 C
690 28-05-2019 17:00:00 16.80833 C 69.8333 % 11.27 C
691 28-05-2019 18:00:00 16.78333 C 65.4167 % 10.27 C
692 28-05-2019 19:00:00 16.08333 C 68.0000 % 10.18 C
693 28-05-2019 20:00:00 14.10833 C 75.7500 % 9.9 C
694 28-05-2019 21:00:00 13.10833 C 81.6667 % 10.05 C
695 28-05-2019 22:00:00 12.15 C 87.5000 % 10.14 C
696 28-05-2019 23:00:00 11.78333 C 88.7500 % 9.99 C
697 29-05-2019 00:00:00 11.70833 C 85.8333 % 9.42 C
698 29-05-2019 01:00:00 11.73333 C 86.5833 % 9.57 C
699 29-05-2019 02:00:00 11.875 C 85.7500 % 9.57 C
700 29-05-2019 03:00:00 11.675 C 87.0000 % 9.59 C
Sensor: Nr:Datum:Temp:Feuchte:Taupunkt:
Aussen-T/F 701 29-05-2019 04:00:00 11.44167 C 86.4167 % 9.26 C
702 29-05-2019 05:00:00 11.08333 C 86.5833 % 8.93 C
703 29-05-2019 06:00:00 10.875 C 86.5833 % 8.73 C
704 29-05-2019 07:00:00 10.81667 C 86.0833 % 8.59 C
705 29-05-2019 08:00:00 11.225 C 84.0000 % 8.62 C
706 29-05-2019 09:00:00 12.225 C 80.3333 % 8.94 C
707 29-05-2019 10:00:00 13.83333 C 71.0833 % 8.69 C
708 29-05-2019 11:00:00 15.09167 C 63.7500 % 8.28 C
709 29-05-2019 12:00:00 15.725 C 60.0833 % 8.01 C
710 29-05-2019 13:00:00 16.48333 C 54.0833 % 7.18 C
711 29-05-2019 14:00:00 17.40833 C 48.4167 % 6.42 C
712 29-05-2019 15:00:00 18.99167 C 44.0000 % 6.48 C
713 29-05-2019 16:00:00 20.91667 C 37.9167 % 6.05 C
714 29-05-2019 17:00:00 22.38333 C 35.0000 % 6.19 C
715 29-05-2019 18:00:00 22.1 C 37.9167 % 7.1 C
716 29-05-2019 19:00:00 21.55 C 44.9167 % 9.09 C
717 29-05-2019 20:00:00 18.66667 C 61.5833 % 11.14 C
718 29-05-2019 21:00:00 15.49167 C 67.4167 % 9.49 C
719 29-05-2019 22:00:00 13.29167 C 77.5000 % 9.45 C
720 29-05-2019 23:00:00 12.91667 C 79.2500 % 9.41 C
721 30-05-2019 00:00:00 12.05833 C 81.2500 % 8.95 C
722 30-05-2019 01:00:00 11.44167 C 84.4167 % 8.91 C
723 30-05-2019 02:00:00 10.88333 C 86.1667 % 8.67 C
724 30-05-2019 03:00:00 9.95 C 88.5833 % 8.15 C
725 30-05-2019 04:00:00 9.56667 C 90.5833 % 8.1 C
Sensor: Nr:Datum:Temp:Feuchte:Taupunkt:
Aussen-T/F 726 30-05-2019 05:00:00 9.1 C 92.0000 % 7.87 C
727 30-05-2019 06:00:00 9.71667 C 93.5000 % 8.72 C
728 30-05-2019 07:00:00 10.925 C 91.4167 % 9.58 C
729 30-05-2019 08:00:00 12.375 C 85.9167 % 10.09 C
730 30-05-2019 09:00:00 14.10833 C 81.4167 % 10.98 C
731 30-05-2019 10:00:00 16.09167 C 76.2500 % 11.91 C
732 30-05-2019 11:00:00 18.18333 C 65.4167 % 11.6 C
733 30-05-2019 12:00:00 18.2 C 65.5000 % 11.63 C
734 30-05-2019 13:00:00 18.23333 C 70.0833 % 12.69 C
735 30-05-2019 14:00:00 19.425 C 67.1667 % 13.18 C
736 30-05-2019 15:00:00 21.175 C 64.3333 % 14.18 C
737 30-05-2019 16:00:00 21.95833 C 62.9167 % 14.57 C
738 30-05-2019 17:00:00 21.625 C 64.7500 % 14.7 C
739 30-05-2019 18:00:00 20.95833 C 67.8333 % 14.79 C
740 30-05-2019 19:00:00 19.95 C 72.0000 % 14.75 C
741 30-05-2019 20:00:00 18.94167 C 77.1667 % 14.85 C
742 30-05-2019 21:00:00 17.675 C 81.8333 % 14.53 C
743 30-05-2019 22:00:00 16.54167 C 85.6667 % 14.13 C
744 30-05-2019 23:00:00 15.89167 C 88.0000 % 13.91 C
745 31-05-2019 00:00:00 15.65 C 89.9167 % 14 C
746 31-05-2019 01:00:00 15.61667 C 90.8333 % 14.12 C
747 31-05-2019 02:00:00 15.46667 C 90.8333 % 13.98 C
748 31-05-2019 03:00:00 14.41667 C 92.0833 % 13.15 C
749 31-05-2019 04:00:00 13.56667 C 93.2500 % 12.5 C
750 31-05-2019 05:00:00 12.83333 C 94.5000 % 11.97 C
Sensor: Nr:Datum:Temp:Feuchte:Taupunkt:
Aussen-T/F 751 31-05-2019 06:00:00 12.75 C 95.0000 % 11.97 C
752 31-05-2019 07:00:00 13.1 C 95.9167 % 12.46 C
753 31-05-2019 08:00:00 14.175 C 95.7500 % 13.51 C
754 31-05-2019 09:00:00 16.24167 C 87.9167 % 14.24 C
755 31-05-2019 10:00:00 18.69167 C 74.5833 % 14.09 C
756 31-05-2019 11:00:00 20.225 C 68.2500 % 14.19 C
757 31-05-2019 12:00:00 21.375 C 65.3333 % 14.61 C
758 31-05-2019 13:00:00 22.725 C 60.4167 % 14.67 C
759 31-05-2019 14:00:00 23.925 C 55.5000 % 14.48 C
760 31-05-2019 15:00:00 25.28333 C 51.5833 % 14.6 C
761 31-05-2019 16:00:00 27.3 C 45.1667 % 14.38 C
762 31-05-2019 17:00:00 27.50833 C 44.6667 % 14.4 C
763 31-05-2019 18:00:00 27.58333 C 43.0833 % 13.91 C
764 31-05-2019 19:00:00 25.63333 C 51.5833 % 14.92 C
765 31-05-2019 20:00:00 23.64167 C 58.6667 % 15.07 C
766 31-05-2019 21:00:00 20.09167 C 71.7500 % 14.83 C
767 31-05-2019 22:00:00 17.725 C 78.6667 % 13.97 C
768 31-05-2019 23:00:00 15.91667 C 85.0833 % 13.41 C
769 01-06-2019 00:00:00 14.65 C 88.8333 % 12.83 C
770 01-06-2019 01:00:00 13.91667 C 91.5833 % 12.57 C
771 01-06-2019 02:00:00 13.325 C 92.6667 % 12.16 C
772 01-06-2019 03:00:00 12.83333 C 93.7500 % 11.85 C
773 01-06-2019 04:00:00 12.2 C 94.0000 % 11.26 C
774 01-06-2019 05:00:00 11.75833 C 94.9167 % 10.97 C
775 01-06-2019 06:00:00 11.825 C 95.3333 % 11.1 C
Sensor: Nr:Datum:Temp:Feuchte:Taupunkt:
Aussen-T/F 776 01-06-2019 07:00:00 12.61667 C 96.0000 % 12 C
777 01-06-2019 08:00:00 13.875 C 94.7500 % 13.05 C
778 01-06-2019 09:00:00 15.45 C 91.6667 % 14.1 C
779 01-06-2019 10:00:00 18.14167 C 84.5000 % 15.49 C
780 01-06-2019 11:00:00 20.91667 C 72.0000 % 15.68 C
781 01-06-2019 12:00:00 23.01667 C 63.7500 % 15.78 C
782 01-06-2019 13:00:00 24.31667 C 59.3333 % 15.88 C
783 01-06-2019 14:00:00 25.51667 C 55.6667 % 16 C
784 01-06-2019 15:00:00 27.83333 C 49.5000 % 16.3 C
785 01-06-2019 16:00:00 29.975 C 43.6667 % 16.27 C
786 01-06-2019 17:00:00 30.09167 C 42.1667 % 15.83 C
787 01-06-2019 18:00:00 30.23333 C 43.3333 % 16.38 C
788 01-06-2019 19:00:00 29.675 C 50.7500 % 18.38 C
789 01-06-2019 20:00:00 26.65833 C 58.9167 % 17.96 C
790 01-06-2019 21:00:00 22.7 C 68.0000 % 16.49 C
791 01-06-2019 22:00:00 20.00833 C 76.0833 % 15.67 C
792 01-06-2019 23:00:00 18.20833 C 82.2500 % 15.13 C
793 02-06-2019 00:00:00 16.75833 C 86.5000 % 14.49 C
794 02-06-2019 01:00:00 15.66667 C 89.3333 % 13.92 C
795 02-06-2019 02:00:00 14.925 C 91.7500 % 13.6 C
796 02-06-2019 03:00:00 14.325 C 93.0000 % 13.21 C
797 02-06-2019 04:00:00 13.81667 C 93.9167 % 12.85 C
798 02-06-2019 05:00:00 13.29167 C 94.5833 % 12.44 C
799 02-06-2019 06:00:00 13.40833 C 95.3333 % 12.68 C
800 02-06-2019 07:00:00 13.95833 C 95.9167 % 13.32 C
Sensor: Nr:Datum:Temp:Feuchte:Taupunkt:
Aussen-T/F 801 02-06-2019 08:00:00 15.03333 C 96.0000 % 14.4 C
802 02-06-2019 09:00:00 16.60833 C 95.9167 % 15.95 C
803 02-06-2019 10:00:00 19.64167 C 88.6667 % 17.72 C
804 02-06-2019 11:00:00 23.11667 C 77.1667 % 18.9 C
805 02-06-2019 12:00:00 26.66667 C 57.8333 % 17.67 C
806 02-06-2019 13:00:00 27.96667 C 46.3333 % 15.38 C
807 02-06-2019 14:00:00 29.1 C 45.5833 % 16.16 C
808 02-06-2019 15:00:00 31.04167 C 42.4167 % 16.77 C
809 02-06-2019 16:00:00 32.76667 C 37.2500 % 16.26 C
810 02-06-2019 17:00:00 33.1 C 37.2500 % 16.56 C
811 02-06-2019 18:00:00 33 C 37.9167 % 16.75 C
812 02-06-2019 19:00:00 32.23333 C 40.0000 % 16.91 C
813 02-06-2019 20:00:00 28.7 C 49.5000 % 17.09 C
814 02-06-2019 21:00:00 24.375 C 58.3333 % 15.67 C
815 02-06-2019 22:00:00 21.35833 C 67.9167 % 15.19 C
816 02-06-2019 23:00:00 19.30833 C 74.8333 % 14.73 C
817 03-06-2019 00:00:00 17.75833 C 79.8333 % 14.23 C
818 03-06-2019 01:00:00 16.825 C 82.3333 % 13.8 C
819 03-06-2019 02:00:00 16.15 C 84.9167 % 13.61 C
820 03-06-2019 03:00:00 15.51667 C 87.5833 % 13.47 C
821 03-06-2019 04:00:00 14.84167 C 89.9167 % 13.2 C
822 03-06-2019 05:00:00 14.775 C 91.8333 % 13.46 C
823 03-06-2019 06:00:00 15.23333 C 92.0000 % 13.94 C
824 03-06-2019 07:00:00 16.11667 C 91.5833 % 14.75 C
825 03-06-2019 08:00:00 17.63333 C 88.6667 % 15.74 C
Sensor: Nr:Datum:Temp:Feuchte:Taupunkt:
Aussen-T/F 826 03-06-2019 09:00:00 20.30833 C 85.2500 % 17.75 C
827 03-06-2019 10:00:00 21.325 C 86.5833 % 18.99 C
828 03-06-2019 11:00:00 23.475 C 74.5833 % 18.7 C
829 03-06-2019 12:00:00 26.39167 C 59.7500 % 17.93 C
830 03-06-2019 13:00:00 27.69167 C 52.7500 % 17.17 C
831 03-06-2019 14:00:00 28.44167 C 40.5000 % 13.73 C
832 03-06-2019 15:00:00 29.40833 C 35.0000 % 12.35 C
833 03-06-2019 16:00:00 26.71667 C 46.0833 % 14.17 C
834 03-06-2019 17:00:00 25.15833 C 57.9167 % 16.29 C
835 03-06-2019 18:00:00 23.71667 C 63.9167 % 16.48 C
836 03-06-2019 19:00:00 22.66667 C 68.0833 % 16.48 C
837 03-06-2019 20:00:00 22.29167 C 70.0000 % 16.56 C
838 03-06-2019 21:00:00 20.63333 C 74.5833 % 15.96 C
839 03-06-2019 22:00:00 19.40833 C 77.7500 % 15.42 C
840 03-06-2019 23:00:00 18.06667 C 81.5833 % 14.87 C
841 04-06-2019 00:00:00 16.71667 C 86.5000 % 14.45 C
842 04-06-2019 01:00:00 15.84167 C 89.7500 % 14.16 C
843 04-06-2019 02:00:00 15.15 C 91.8333 % 13.83 C
844 04-06-2019 03:00:00 14.41667 C 92.9167 % 13.29 C
845 04-06-2019 04:00:00 13.65833 C 93.5000 % 12.63 C
846 04-06-2019 05:00:00 13.2 C 94.2500 % 12.3 C
847 04-06-2019 06:00:00 13.275 C 95.1667 % 12.52 C
848 04-06-2019 07:00:00 14.525 C 95.0000 % 13.73 C
849 04-06-2019 08:00:00 16.05 C 91.9167 % 14.74 C
850 04-06-2019 09:00:00 17.45 C 88.6667 % 15.56 C
Sensor: Nr:Datum:Temp:Feuchte:Taupunkt:
Aussen-T/F 851 04-06-2019 10:00:00 20.16667 C 78.6667 % 16.34 C
852 04-06-2019 11:00:00 22.35833 C 71.0833 % 16.86 C
853 04-06-2019 12:00:00 23.89167 C 68.1667 % 17.66 C
854 04-06-2019 13:00:00 25.74167 C 60.4167 % 17.5 C
855 04-06-2019 14:00:00 27.4 C 54.5833 % 17.44 C
856 04-06-2019 15:00:00 28.7 C 52.2500 % 17.95 C
857 04-06-2019 16:00:00 30.56667 C 49.5833 % 18.82 C
858 04-06-2019 17:00:00 31.925 C 44.4167 % 18.3 C
859 04-06-2019 18:00:00 31.24167 C 47.4167 % 18.72 C
860 04-06-2019 19:00:00 29.25 C 54.9167 % 19.25 C
861 04-06-2019 20:00:00 26.51667 C 62.5833 % 18.79 C
862 04-06-2019 21:00:00 23.36667 C 67.6667 % 17.05 C
863 04-06-2019 22:00:00 22.025 C 70.6667 % 16.45 C
864 04-06-2019 23:00:00 22.70833 C 64.8333 % 15.75 C
865 05-06-2019 00:00:00 23.28333 C 63.0000 % 15.85 C
866 05-06-2019 01:00:00 21.33333 C 69.9167 % 15.62 C
867 05-06-2019 02:00:00 20.575 C 74.1667 % 15.81 C
868 05-06-2019 03:00:00 19.35 C 77.8333 % 15.38 C
869 05-06-2019 04:00:00 18.80833 C 80.2500 % 15.33 C
870 05-06-2019 05:00:00 17.44167 C 83.8333 % 14.68 C
871 05-06-2019 06:00:00 17.69167 C 85.2500 % 15.18 C
872 05-06-2019 07:00:00 17.98333 C 86.5833 % 15.71 C
873 05-06-2019 08:00:00 18.38333 C 88.0000 % 16.36 C
874 05-06-2019 09:00:00 21.025 C 76.4167 % 16.72 C
875 05-06-2019 10:00:00 22.73333 C 70.5833 % 17.11 C
Sensor: Nr:Datum:Temp:Feuchte:Taupunkt:
Aussen-T/F 876 05-06-2019 11:00:00 23.64167 C 66.3333 % 17 C
877 05-06-2019 12:00:00 24.34167 C 63.2500 % 16.91 C
878 05-06-2019 13:00:00 25.925 C 60.1667 % 17.61 C
879 05-06-2019 14:00:00 27.25833 C 56.0833 % 17.74 C
880 05-06-2019 15:00:00 29.5 C 49.5833 % 17.85 C
881 05-06-2019 16:00:00 31.35 C 41.7500 % 16.8 C
882 05-06-2019 17:00:00 30.43333 C 46.7500 % 17.76 C
883 05-06-2019 18:00:00 28.60833 C 56.1667 % 19.01 C
884 05-06-2019 19:00:00 29.73333 C 54.6667 % 19.62 C
885 05-06-2019 20:00:00 27.55833 C 56.5833 % 18.16 C
886 05-06-2019 21:00:00 23.44167 C 68.3333 % 17.27 C
887 05-06-2019 22:00:00 21.625 C 75.6667 % 17.14 C
888 05-06-2019 23:00:00 20.83333 C 77.2500 % 16.7 C
889 06-06-2019 00:00:00 21.575 C 69.2500 % 15.7 C
890 06-06-2019 01:00:00 18.925 C 81.5833 % 15.71 C
891 06-06-2019 02:00:00 17.10833 C 91.9167 % 15.78 C
892 06-06-2019 03:00:00 16.70833 C 93.6667 % 15.68 C
893 06-06-2019 04:00:00 16.48333 C 94.5833 % 15.61 C
894 06-06-2019 05:00:00 15.51667 C 93.6667 % 14.5 C
895 06-06-2019 06:00:00 13.94167 C 92.3333 % 12.72 C
896 06-06-2019 07:00:00 13.19167 C 89.6667 % 11.53 C
897 06-06-2019 08:00:00 13.325 C 84.5833 % 10.78 C
898 06-06-2019 09:00:00 13.10833 C 81.1667 % 9.96 C
899 06-06-2019 10:00:00 13.80833 C 80.0000 % 10.42 C
900 06-06-2019 11:00:00 14.93333 C 75.5000 % 10.64 C
Sensor: Nr:Datum:Temp:Feuchte:Taupunkt:
Aussen-T/F 901 06-06-2019 12:00:00 15.40833 C 73.2500 % 10.65 C
902 06-06-2019 13:00:00 16.49167 C 69.3333 % 10.86 C
903 06-06-2019 14:00:00 17.025 C 68.1667 % 11.12 C
904 06-06-2019 15:00:00 17.75833 C 66.4167 % 11.42 C
905 06-06-2019 16:00:00 18 C 65.5000 % 11.44 C
906 06-06-2019 17:00:00 16.73333 C 69.1667 % 11.06 C
907 06-06-2019 18:00:00 16.975 C 69.9167 % 11.45 C
908 06-06-2019 19:00:00 18.26667 C 63.5833 % 11.25 C
909 06-06-2019 20:00:00 17.725 C 65.3333 % 11.14 C
910 06-06-2019 21:00:00 15.43333 C 75.4167 % 11.11 C
911 06-06-2019 22:00:00 12.75 C 83.8333 % 10.09 C
912 06-06-2019 23:00:00 11.43333 C 87.5000 % 9.43 C
913 07-06-2019 00:00:00 10.475 C 90.4167 % 8.97 C
914 07-06-2019 01:00:00 9.875 C 92.1667 % 8.66 C
915 07-06-2019 02:00:00 9.425 C 93.0833 % 8.36 C
916 07-06-2019 03:00:00 9.56667 C 94.5000 % 8.73 C
917 07-06-2019 04:00:00 10.13333 C 94.6667 % 9.32 C
918 07-06-2019 05:00:00 9.23333 C 94.3333 % 8.37 C
919 07-06-2019 06:00:00 9.60833 C 95.7500 % 8.96 C
920 07-06-2019 07:00:00 10.38333 C 96.0000 % 9.77 C
921 07-06-2019 08:00:00 11.86667 C 92.5833 % 10.7 C
922 07-06-2019 09:00:00 13.75833 C 84.1667 % 11.13 C
923 07-06-2019 10:00:00 16.65 C 75.8333 % 12.37 C
924 07-06-2019 11:00:00 18.75833 C 65.5000 % 12.16 C
925 07-06-2019 12:00:00 19.9 C 63.4167 % 12.75 C
Sensor: Nr:Datum:Temp:Feuchte:Taupunkt:
Aussen-T/F 926 07-06-2019 13:00:00 20.89167 C 64.3333 % 13.91 C
927 07-06-2019 14:00:00 21.09167 C 68.1667 % 15 C
928 07-06-2019 15:00:00 24.175 C 57.1667 % 15.17 C
929 07-06-2019 16:00:00 25.96667 C 50.5833 % 14.92 C
930 07-06-2019 17:00:00 25.36667 C 57.9167 % 16.48 C
931 07-06-2019 18:00:00 21.74167 C 58.5833 % 13.27 C
932 07-06-2019 19:00:00 17.18333 C 62.6667 % 10.01 C
933 07-06-2019 20:00:00 15.41667 C 71.6667 % 10.33 C
934 07-06-2019 21:00:00 14.95 C 72.9167 % 10.14 C
935 07-06-2019 22:00:00 14.8 C 69.8333 % 9.35 C
936 07-06-2019 23:00:00 15.125 C 66.5000 % 8.94 C
937 08-06-2019 00:00:00 15.46667 C 66.4167 % 9.24 C
938 08-06-2019 01:00:00 15.61667 C 65.2500 % 9.12 C
939 08-06-2019 02:00:00 15.34167 C 67.0833 % 9.27 C
940 08-06-2019 03:00:00 15.06667 C 67.0000 % 8.99 C
941 08-06-2019 04:00:00 14.86667 C 64.0000 % 8.13 C
942 08-06-2019 05:00:00 14.10833 C 63.3333 % 7.26 C
943 08-06-2019 06:00:00 13.325 C 66.7500 % 7.28 C
944 08-06-2019 07:00:00 13.69167 C 65.5000 % 7.35 C
945 08-06-2019 08:00:00 14.29167 C 65.3333 % 7.88 C
946 08-06-2019 09:00:00 14.575 C 66.0833 % 8.32 C
947 08-06-2019 10:00:00 14.90833 C 66.5833 % 8.75 C
948 08-06-2019 11:00:00 15.70833 C 64.1667 % 8.96 C
949 08-06-2019 12:00:00 16.525 C 61.5000 % 9.11 C
950 08-06-2019 13:00:00 17.38333 C 57.6667 % 8.96 C
Sensor: Nr:Datum:Temp:Feuchte:Taupunkt:
Aussen-T/F 951 08-06-2019 14:00:00 18.325 C 55.7500 % 9.34 C
952 08-06-2019 15:00:00 19.15 C 52.5000 % 9.21 C
953 08-06-2019 16:00:00 19.65833 C 50.8333 % 9.2 C
954 08-06-2019 17:00:00 19.925 C 49.5000 % 9.05 C
955 08-06-2019 18:00:00 19.95833 C 49.4167 % 9.06 C
956 08-06-2019 19:00:00 18.98333 C 54.5000 % 9.61 C
957 08-06-2019 20:00:00 17.61667 C 62.2500 % 10.32 C
958 08-06-2019 21:00:00 16.11667 C 70.0000 % 10.65 C
959 08-06-2019 22:00:00 14.39167 C 74.5833 % 9.94 C
960 08-06-2019 23:00:00 12.65833 C 80.5833 % 9.41 C
961 09-06-2019 00:00:00 11.66667 C 84.6667 % 9.17 C
962 09-06-2019 01:00:00 11.08333 C 86.9167 % 8.99 C
963 09-06-2019 02:00:00 10.925 C 87.3333 % 8.91 C
964 09-06-2019 03:00:00 10.28333 C 89.0833 % 8.57 C
965 09-06-2019 04:00:00 9.4 C 90.3333 % 7.9 C
966 09-06-2019 05:00:00 8.675 C 92.3333 % 7.5 C
967 09-06-2019 06:00:00 8.63333 C 93.4167 % 7.63 C
968 09-06-2019 07:00:00 9.68333 C 94.4167 % 8.83 C
969 09-06-2019 08:00:00 11.03333 C 94.2500 % 10.15 C
970 09-06-2019 09:00:00 12.80833 C 90.8333 % 11.35 C
971 09-06-2019 10:00:00 16.55 C 73.0000 % 11.7 C
972 09-06-2019 11:00:00 18.86667 C 57.5833 % 10.32 C
973 09-06-2019 12:00:00 19.76667 C 53.6667 % 10.11 C
974 09-06-2019 13:00:00 20.71667 C 51.6667 % 10.42 C
975 09-06-2019 14:00:00 21.925 C 50.5000 % 11.19 C
Sensor: Nr:Datum:Temp:Feuchte:Taupunkt:
Aussen-T/F 976 09-06-2019 15:00:00 22.45833 C 50.3333 % 11.63 C
977 09-06-2019 16:00:00 22.79167 C 50.6667 % 12.03 C
978 09-06-2019 17:00:00 22.7 C 51.5833 % 12.22 C
979 09-06-2019 18:00:00 23.09167 C 50.4167 % 12.23 C
980 09-06-2019 19:00:00 21.64167 C 63.5000 % 14.42 C
981 09-06-2019 20:00:00 19.74167 C 69.0833 % 13.91 C
982 09-06-2019 21:00:00 18.86667 C 72.1667 % 13.75 C
983 09-06-2019 22:00:00 18.36667 C 74.5833 % 13.77 C
984 09-06-2019 23:00:00 17.95 C 76.1667 % 13.69 C
985 10-06-2019 00:00:00 17.525 C 77.8333 % 13.62 C
986 10-06-2019 01:00:00 16.95833 C 77.6667 % 13.03 C
987 10-06-2019 02:00:00 16.08333 C 79.7500 % 12.59 C
988 10-06-2019 03:00:00 14.94167 C 84.7500 % 12.4 C
989 10-06-2019 04:00:00 14.625 C 86.5000 % 12.4 C
990 10-06-2019 05:00:00 14.775 C 87.5000 % 12.72 C
991 10-06-2019 06:00:00 14.825 C 88.5000 % 12.94 C
992 10-06-2019 07:00:00 15.5 C 87.4167 % 13.42 C
993 10-06-2019 08:00:00 17.725 C 80.2500 % 14.28 C
994 10-06-2019 09:00:00 18.94167 C 75.8333 % 14.58 C
995 10-06-2019 10:00:00 19.85 C 73.1667 % 14.91 C
996 10-06-2019 11:00:00 21.15833 C 68.5000 % 15.13 C
997 10-06-2019 12:00:00 22.34167 C 63.6667 % 15.12 C
998 10-06-2019 13:00:00 23.06667 C 61.5833 % 15.29 C
999 10-06-2019 14:00:00 23.225 C 62.5833 % 15.69 C
1000 10-06-2019 15:00:00 23.225 C 62.9167 % 15.77 C
Sensor: Nr:Datum:Temp:Feuchte:Taupunkt:
Aussen-T/F 1001 10-06-2019 16:00:00 24.06667 C 59.8333 % 15.78 C
1002 10-06-2019 17:00:00 23.65 C 60.7500 % 15.62 C
1003 10-06-2019 18:00:00 23.19167 C 61.9167 % 15.49 C
1004 10-06-2019 19:00:00 21.7 C 64.6667 % 14.76 C
1005 10-06-2019 20:00:00 20.61667 C 69.9167 % 14.94 C
1006 10-06-2019 21:00:00 19.38333 C 74.6667 % 14.77 C
1007 10-06-2019 22:00:00 17.975 C 79.5000 % 14.38 C
1008 10-06-2019 23:00:00 17.09167 C 82.5000 % 14.09 C
1009 11-06-2019 00:00:00 16.55833 C 85.5000 % 14.12 C
1010 11-06-2019 01:00:00 16.38333 C 86.8333 % 14.19 C
1011 11-06-2019 02:00:00 16.15833 C 86.2500 % 13.86 C
1012 11-06-2019 03:00:00 15.29167 C 90.6667 % 13.78 C
1013 11-06-2019 04:00:00 14.6 C 93.0833 % 13.5 C
1014 11-06-2019 05:00:00 14.21667 C 94.0000 % 13.27 C
1015 11-06-2019 06:00:00 14.15833 C 94.8333 % 13.34 C
1016 11-06-2019 07:00:00 14.5 C 95.3333 % 13.76 C
1017 11-06-2019 08:00:00 15.01667 C 95.5833 % 14.32 C
1018 11-06-2019 09:00:00 15.34167 C 93.8333 % 14.35 C
1019 11-06-2019 10:00:00 16.16667 C 90.7500 % 14.65 C
1020 11-06-2019 11:00:00 16.925 C 85.2500 % 14.43 C
1021 11-06-2019 12:00:00 17.81667 C 78.5833 % 14.05 C
1022 11-06-2019 13:00:00 19.09167 C 71.9167 % 13.91 C
1023 11-06-2019 14:00:00 20.24167 C 66.0833 % 13.71 C
1024 11-06-2019 15:00:00 21.31667 C 61.8333 % 13.7 C
1025 11-06-2019 16:00:00 20.94167 C 66.5000 % 14.47 C
Sensor: Nr:Datum:Temp:Feuchte:Taupunkt:
Aussen-T/F 1026 11-06-2019 17:00:00 19.28333 C 79.3333 % 15.62 C
1027 11-06-2019 18:00:00 18.75833 C 82.1667 % 15.65 C
1028 11-06-2019 19:00:00 20.35 C 71.0000 % 14.92 C
1029 11-06-2019 20:00:00 19.19167 C 79.8333 % 15.63 C
1030 11-06-2019 21:00:00 17.76667 C 83.1667 % 14.87 C
1031 11-06-2019 22:00:00 16.79167 C 84.7500 % 14.21 C
1032 11-06-2019 23:00:00 15.70833 C 86.5000 % 13.46 C
1033 12-06-2019 00:00:00 15.16667 C 87.0000 % 13.02 C
1034 12-06-2019 01:00:00 14.39167 C 88.8333 % 12.57 C
1035 12-06-2019 02:00:00 14.59167 C 90.0000 % 12.97 C
1036 12-06-2019 03:00:00 14.525 C 90.7500 % 13.03 C
1037 12-06-2019 04:00:00 14.39167 C 91.0000 % 12.94 C
1038 12-06-2019 05:00:00 14.125 C 91.7500 % 12.8 C
1039 12-06-2019 06:00:00 13.95833 C 92.4167 % 12.75 C
1040 12-06-2019 07:00:00 14.875 C 91.3333 % 13.48 C
1041 12-06-2019 08:00:00 15.81667 C 88.6667 % 13.95 C
1042 12-06-2019 09:00:00 16.53333 C 85.8333 % 14.15 C
1043 12-06-2019 10:00:00 15.15 C 91.9167 % 13.85 C
1044 12-06-2019 11:00:00 13.975 C 93.4167 % 12.93 C
1045 12-06-2019 12:00:00 14.40833 C 95.0000 % 13.62 C
1046 12-06-2019 13:00:00 15.325 C 93.0000 % 14.2 C
1047 12-06-2019 14:00:00 17.175 C 83.9167 % 14.43 C
1048 12-06-2019 15:00:00 18.2 C 77.9167 % 14.29 C
1049 12-06-2019 16:00:00 20.125 C 66.5833 % 13.71 C
1050 12-06-2019 17:00:00 21.81667 C 59.0000 % 13.45 C
Sensor: Nr:Datum:Temp:Feuchte:Taupunkt:
Aussen-T/F 1051 12-06-2019 18:00:00 22.64167 C 53.9167 % 12.84 C
1052 12-06-2019 19:00:00 21.925 C 53.0833 % 11.94 C
1053 12-06-2019 20:00:00 21.23333 C 62.8333 % 13.87 C
1054 12-06-2019 21:00:00 17.83333 C 74.5000 % 13.24 C
1055 12-06-2019 22:00:00 14.38333 C 84.7500 % 11.85 C
1056 12-06-2019 23:00:00 13.15833 C 88.2500 % 11.26 C
1057 13-06-2019 00:00:00 12.55833 C 89.5833 % 10.89 C
1058 13-06-2019 01:00:00 11.68333 C 90.7500 % 10.22 C
1059 13-06-2019 02:00:00 10.9 C 92.4167 % 9.72 C
1060 13-06-2019 03:00:00 10.29167 C 93.5833 % 9.3 C
1061 13-06-2019 04:00:00 9.775 C 94.0000 % 8.86 C
1062 13-06-2019 05:00:00 9.45833 C 94.9167 % 8.69 C
1063 13-06-2019 06:00:00 9.50833 C 95.3333 % 8.8 C
1064 13-06-2019 07:00:00 10.31667 C 96.0000 % 9.71 C
1065 13-06-2019 08:00:00 11.75 C 95.6667 % 11.08 C
1066 13-06-2019 09:00:00 15.15833 C 79.0833 % 11.56 C
1067 13-06-2019 10:00:00 17.91667 C 65.0833 % 11.27 C
1068 13-06-2019 11:00:00 19.15 C 60.8333 % 11.41 C
1069 13-06-2019 12:00:00 19.41667 C 57.0000 % 10.68 C
1070 13-06-2019 13:00:00 20.875 C 53.3333 % 11.04 C
1071 13-06-2019 14:00:00 21.26667 C 51.1667 % 10.78 C
1072 13-06-2019 15:00:00 22.13333 C 48.6667 % 10.82 C
1073 13-06-2019 16:00:00 23.85833 C 42.2500 % 10.27 C
1074 13-06-2019 17:00:00 24.41667 C 41.5833 % 10.53 C
1075 13-06-2019 18:00:00 24.325 C 43.0833 % 10.98 C
Sensor: Nr:Datum:Temp:Feuchte:Taupunkt:
Aussen-T/F 1076 13-06-2019 19:00:00 20.40833 C 65.3333 % 13.69 C
1077 13-06-2019 20:00:00 15.975 C 89.5000 % 14.25 C
1078 13-06-2019 21:00:00 15.11667 C 89.0000 % 13.32 C
1079 13-06-2019 22:00:00 13.21667 C 91.6667 % 11.89 C
1080 13-06-2019 23:00:00 12.78333 C 93.8333 % 11.82 C
1081 14-06-2019 00:00:00 12.06667 C 94.1667 % 11.16 C
1082 14-06-2019 01:00:00 11.73333 C 95.1667 % 10.99 C
1083 14-06-2019 02:00:00 12.16667 C 96.0000 % 11.55 C
1084 14-06-2019 03:00:00 12.00833 C 96.0000 % 11.39 C
1085 14-06-2019 04:00:00 11.59167 C 96.0000 % 10.98 C
1086 14-06-2019 05:00:00 11.41667 C 96.4167 % 10.87 C
1087 14-06-2019 06:00:00 11.33333 C 96.7500 % 10.84 C
1088 14-06-2019 07:00:00 11.43333 C 97.0000 % 10.97 C
1089 14-06-2019 08:00:00 12.15 C 97.0000 % 11.69 C
1090 14-06-2019 09:00:00 14.29167 C 97.8333 % 13.95 C
1091 14-06-2019 10:00:00 17.16667 C 98.0000 % 16.85 C
1092 14-06-2019 11:00:00 18.61667 C 96.0000 % 17.97 C
1093 14-06-2019 12:00:00 21.65833 C 71.3333 % 16.25 C
1094 14-06-2019 13:00:00 24.26667 C 57.5833 % 15.37 C
1095 14-06-2019 14:00:00 26 C 50.2500 % 14.85 C
1096 14-06-2019 15:00:00 26.35 C 50.6667 % 15.3 C
1097 14-06-2019 16:00:00 25.95 C 57.5000 % 16.91 C
1098 14-06-2019 17:00:00 25.23333 C 65.7500 % 18.37 C
1099 14-06-2019 18:00:00 24.49167 C 68.7500 % 18.37 C
1100 14-06-2019 19:00:00 22.55 C 74.2500 % 17.74 C
Sensor: Nr:Datum:Temp:Feuchte:Taupunkt:
Aussen-T/F 1101 14-06-2019 20:00:00 20.29167 C 78.3333 % 16.4 C
1102 14-06-2019 21:00:00 19.08333 C 83.5000 % 16.22 C
1103 14-06-2019 22:00:00 18.79167 C 83.7500 % 15.98 C
1104 14-06-2019 23:00:00 18.6 C 86.5000 % 16.3 C
1105 15-06-2019 00:00:00 17.59167 C 91.5833 % 16.21 C
1106 15-06-2019 01:00:00 16.49167 C 93.1667 % 15.38 C
1107 15-06-2019 02:00:00 15.68333 C 94.1667 % 14.75 C
1108 15-06-2019 03:00:00 15.16667 C 95.0833 % 14.38 C
1109 15-06-2019 04:00:00 15.14167 C 95.6667 % 14.45 C
1110 15-06-2019 05:00:00 15.01667 C 96.0833 % 14.4 C
1111 15-06-2019 06:00:00 15.54167 C 96.4167 % 14.97 C
1112 15-06-2019 07:00:00 16.175 C 97.0000 % 15.7 C
1113 15-06-2019 08:00:00 16.94167 C 96.4167 % 16.37 C
1114 15-06-2019 09:00:00 18.45833 C 89.9167 % 16.77 C
1115 15-06-2019 10:00:00 19.93333 C 81.8333 % 16.74 C
1116 15-06-2019 11:00:00 20.8 C 72.4167 % 15.66 C
1117 15-06-2019 12:00:00 21.60833 C 69.5833 % 15.81 C
1118 15-06-2019 13:00:00 21.28333 C 73.9167 % 16.44 C
1119 15-06-2019 14:00:00 21.65833 C 73.5000 % 16.72 C
1120 15-06-2019 15:00:00 22.11667 C 69.6667 % 16.31 C
1121 15-06-2019 16:00:00 23.775 C 63.6667 % 16.48 C
1122 15-06-2019 17:00:00 25.35833 C 54.7500 % 15.59 C
1123 15-06-2019 18:00:00 26.24167 C 48.8333 % 14.63 C
1124 15-06-2019 19:00:00 25.35833 C 54.0833 % 15.4 C
1125 15-06-2019 20:00:00 23.43333 C 65.5000 % 16.6 C
Sensor: Nr:Datum:Temp:Feuchte:Taupunkt:
Aussen-T/F 1126 15-06-2019 21:00:00 21.01667 C 71.0833 % 15.58 C
1127 15-06-2019 22:00:00 18.48333 C 78.6667 % 14.71 C
1128 15-06-2019 23:00:00 17.625 C 81.7500 % 14.47 C
1129 16-06-2019 00:00:00 17.3 C 83.2500 % 14.43 C
1130 16-06-2019 01:00:00 17.4 C 83.0833 % 14.5 C
1131 16-06-2019 02:00:00 17.19167 C 83.9167 % 14.45 C
1132 16-06-2019 03:00:00 16.9 C 84.5000 % 14.27 C
1133 16-06-2019 04:00:00 17.08333 C 82.4167 % 14.07 C
1134 16-06-2019 05:00:00 16.3 C 85.1667 % 13.81 C
1135 16-06-2019 06:00:00 15.46667 C 89.4167 % 13.73 C
1136 16-06-2019 07:00:00 15.55 C 91.3333 % 14.14 C
1137 16-06-2019 08:00:00 16.04167 C 89.7500 % 14.36 C
1138 16-06-2019 09:00:00 17.04167 C 81.2500 % 13.81 C
1139 16-06-2019 10:00:00 19.3 C 69.7500 % 13.64 C
1140 16-06-2019 11:00:00 20.84167 C 60.6667 % 12.96 C
1141 16-06-2019 12:00:00 21.34167 C 59.1667 % 13.05 C
1142 16-06-2019 13:00:00 22.35 C 54.7500 % 12.8 C
1143 16-06-2019 14:00:00 22.56667 C 55.9167 % 13.33 C
1144 16-06-2019 15:00:00 23.03333 C 54.9167 % 13.48 C
1145 16-06-2019 16:00:00 23.225 C 55.0833 % 13.71 C
1146 16-06-2019 17:00:00 22.275 C 58.5833 % 13.77 C
1147 16-06-2019 18:00:00 24.04167 C 51.7500 % 13.51 C
1148 16-06-2019 19:00:00 23.55 C 54.6667 % 13.89 C
1149 16-06-2019 20:00:00 22.61667 C 57.8333 % 13.89 C
1150 16-06-2019 21:00:00 20.29167 C 67.7500 % 14.14 C
Sensor: Nr:Datum:Temp:Feuchte:Taupunkt:
Aussen-T/F 1151 16-06-2019 22:00:00 17.21667 C 76.5833 % 13.07 C
1152 16-06-2019 23:00:00 15.35 C 82.7500 % 12.43 C
1153 17-06-2019 00:00:00 14.14167 C 85.6667 % 11.78 C
1154 17-06-2019 01:00:00 13.31667 C 88.2500 % 11.42 C
1155 17-06-2019 02:00:00 12.625 C 90.4167 % 11.1 C
1156 17-06-2019 03:00:00 11.95833 C 91.8333 % 10.67 C
1157 17-06-2019 04:00:00 11.43333 C 93.0000 % 10.34 C
1158 17-06-2019 05:00:00 11.075 C 93.9167 % 10.13 C
1159 17-06-2019 06:00:00 11.08333 C 95.0000 % 10.31 C
1160 17-06-2019 07:00:00 11.575 C 95.2500 % 10.84 C
1161 17-06-2019 08:00:00 12.66667 C 96.0000 % 12.05 C
1162 17-06-2019 09:00:00 14.46667 C 94.8333 % 13.65 C
1163 17-06-2019 10:00:00 18.59167 C 82.0833 % 15.48 C
1164 17-06-2019 11:00:00 22.31667 C 63.0000 % 14.93 C
1165 17-06-2019 12:00:00 23.475 C 58.1667 % 14.78 C
1166 17-06-2019 13:00:00 24.45833 C 54.7500 % 14.76 C
1167 17-06-2019 14:00:00 25.15833 C 50.7500 % 14.23 C
1168 17-06-2019 15:00:00 25.26667 C 50.6667 % 14.31 C
1169 17-06-2019 16:00:00 26.71667 C 49.6667 % 15.33 C
1170 17-06-2019 17:00:00 28.43333 C 42.1667 % 14.34 C
1171 17-06-2019 18:00:00 27.90833 C 46.3333 % 15.33 C
1172 17-06-2019 19:00:00 27.64167 C 47.5833 % 15.5 C
1173 17-06-2019 20:00:00 23.58333 C 61.1667 % 15.67 C
1174 17-06-2019 21:00:00 20.78333 C 68.0833 % 14.68 C
1175 17-06-2019 22:00:00 18.73333 C 75.2500 % 14.26 C
Sensor: Nr:Datum:Temp:Feuchte:Taupunkt:
Aussen-T/F 1176 17-06-2019 23:00:00 17.06667 C 80.8333 % 13.75 C
1177 18-06-2019 00:00:00 15.86667 C 84.5000 % 13.26 C
1178 18-06-2019 01:00:00 15.09167 C 87.2500 % 12.99 C
1179 18-06-2019 02:00:00 14.43333 C 89.1667 % 12.67 C
1180 18-06-2019 03:00:00 13.8 C 91.3333 % 12.41 C
1181 18-06-2019 04:00:00 13.8 C 92.2500 % 12.56 C
1182 18-06-2019 05:00:00 13.625 C 92.4167 % 12.42 C
1183 18-06-2019 06:00:00 13.65 C 93.7500 % 12.66 C
1184 18-06-2019 07:00:00 14.75 C 92.1667 % 13.49 C
1185 18-06-2019 08:00:00 16.01667 C 90.0000 % 14.38 C
1186 18-06-2019 09:00:00 17.65 C 88.2500 % 15.68 C
1187 18-06-2019 10:00:00 20.80833 C 82.3333 % 17.69 C
1188 18-06-2019 11:00:00 24.26667 C 67.8333 % 17.94 C
1189 18-06-2019 12:00:00 26.78333 C 53.9167 % 16.67 C
1190 18-06-2019 13:00:00 28.125 C 47.0000 % 15.75 C
1191 18-06-2019 14:00:00 28.825 C 45.3333 % 15.82 C
1192 18-06-2019 15:00:00 29.825 C 43.5000 % 16.08 C
1193 18-06-2019 16:00:00 29.575 C 46.0833 % 16.76 C
1194 18-06-2019 17:00:00 29.48333 C 56.4167 % 19.9 C
1195 18-06-2019 18:00:00 29.725 C 55.1667 % 19.76 C
1196 18-06-2019 19:00:00 27.95 C 60.5833 % 19.62 C
1197 18-06-2019 20:00:00 26.03333 C 63.7500 % 18.63 C
1198 18-06-2019 21:00:00 23.73333 C 68.0833 % 17.49 C
1199 18-06-2019 22:00:00 21.45 C 74.5833 % 16.75 C
1200 18-06-2019 23:00:00 19.83333 C 79.5833 % 16.2 C
Sensor: Nr:Datum:Temp:Feuchte:Taupunkt:
Aussen-T/F 1201 19-06-2019 00:00:00 18.48333 C 83.5833 % 15.65 C
1202 19-06-2019 01:00:00 17.61667 C 86.5833 % 15.35 C
1203 19-06-2019 02:00:00 17.39167 C 88.3333 % 15.44 C
1204 19-06-2019 03:00:00 16.53333 C 89.8333 % 14.86 C
1205 19-06-2019 04:00:00 15.775 C 91.0000 % 14.31 C
1206 19-06-2019 05:00:00 15.19167 C 92.8333 % 14.04 C
1207 19-06-2019 06:00:00 14.99167 C 93.6667 % 13.98 C
1208 19-06-2019 07:00:00 15.425 C 94.8333 % 14.6 C
1209 19-06-2019 08:00:00 16.54167 C 95.0000 % 15.74 C
1210 19-06-2019 09:00:00 18.46667 C 93.8333 % 17.45 C
1211 19-06-2019 10:00:00 23.44167 C 73.4167 % 18.41 C
1212 19-06-2019 11:00:00 26.775 C 54.0833 % 16.71 C
1213 19-06-2019 12:00:00 26.475 C 59.5833 % 17.97 C
1214 19-06-2019 13:00:00 26 C 63.0000 % 18.41 C
1215 19-06-2019 14:00:00 27.00833 C 53.5000 % 16.76 C
1216 19-06-2019 15:00:00 27.25 C 56.8333 % 17.94 C
1217 19-06-2019 16:00:00 29.925 C 48.6667 % 17.94 C
1218 19-06-2019 17:00:00 31.25833 C 41.2500 % 16.53 C
1219 19-06-2019 18:00:00 28.4 C 56.5833 % 18.94 C
1220 19-06-2019 19:00:00 28.94167 C 53.0833 % 18.42 C
1221 19-06-2019 20:00:00 25.31667 C 65.3333 % 18.34 C
1222 19-06-2019 21:00:00 23.275 C 70.8333 % 17.68 C
1223 19-06-2019 22:00:00 21.68333 C 74.0000 % 16.85 C
1224 19-06-2019 23:00:00 19.925 C 79.8333 % 16.34 C
1225 20-06-2019 00:00:00 18.75 C 83.3333 % 15.87 C
Sensor: Nr:Datum:Temp:Feuchte:Taupunkt:
Aussen-T/F 1226 20-06-2019 01:00:00 17.98333 C 86.2500 % 15.65 C
1227 20-06-2019 02:00:00 17.45833 C 88.7500 % 15.58 C
1228 20-06-2019 03:00:00 17.7 C 89.5000 % 15.95 C
1229 20-06-2019 04:00:00 17.31667 C 89.5833 % 15.59 C
1230 20-06-2019 05:00:00 16.68333 C 91.3333 % 15.26 C
1231 20-06-2019 06:00:00 16.85833 C 92.3333 % 15.61 C
1232 20-06-2019 07:00:00 17.73333 C 89.2500 % 15.94 C
1233 20-06-2019 08:00:00 19.45 C 81.4167 % 16.18 C
1234 20-06-2019 09:00:00 20.2 C 75.9167 % 15.82 C
1235 20-06-2019 10:00:00 21.30833 C 70.7500 % 15.78 C
1236 20-06-2019 11:00:00 21.89167 C 69.9167 % 16.15 C
1237 20-06-2019 12:00:00 22.65 C 66.5000 % 16.09 C
1238 20-06-2019 13:00:00 23.24167 C 64.7500 % 16.24 C
1239 20-06-2019 14:00:00 24.61667 C 58.7500 % 16.01 C
1240 20-06-2019 15:00:00 21.45833 C 75.0833 % 16.86 C
1241 20-06-2019 16:00:00 22.75 C 71.9167 % 17.42 C
1242 20-06-2019 17:00:00 21.25833 C 76.5000 % 16.96 C
1243 20-06-2019 18:00:00 20 C 81.0833 % 16.66 C
1244 20-06-2019 19:00:00 18.75833 C 81.8333 % 15.59 C
1245 20-06-2019 20:00:00 18.66667 C 82.3333 % 15.6 C
1246 20-06-2019 21:00:00 18.21667 C 84.0833 % 15.48 C
1247 20-06-2019 22:00:00 16.9 C 87.0000 % 14.72 C
1248 20-06-2019 23:00:00 15.725 C 90.6667 % 14.2 C
1249 21-06-2019 00:00:00 15.5 C 93.5000 % 14.46 C
1250 21-06-2019 01:00:00 14.89167 C 93.0000 % 13.77 C
Sensor: Nr:Datum:Temp:Feuchte:Taupunkt:
Aussen-T/F 1251 21-06-2019 02:00:00 14.78333 C 94.3333 % 13.88 C
1252 21-06-2019 03:00:00 15.06667 C 94.2500 % 14.15 C
1253 21-06-2019 04:00:00 14.91667 C 94.1667 % 13.99 C
1254 21-06-2019 05:00:00 14.325 C 93.9167 % 13.36 C
1255 21-06-2019 06:00:00 14.175 C 93.4167 % 13.13 C
1256 21-06-2019 07:00:00 14.63333 C 92.6667 % 13.46 C
1257 21-06-2019 08:00:00 15.88333 C 79.4167 % 12.33 C
1258 21-06-2019 09:00:00 16.7 C 73.2500 % 11.89 C
1259 21-06-2019 10:00:00 18.28333 C 66.5000 % 11.94 C
1260 21-06-2019 11:00:00 19.45 C 61.0000 % 11.74 C
1261 21-06-2019 12:00:00 20.10833 C 58.2500 % 11.66 C
1262 21-06-2019 13:00:00 21.3 C 52.6667 % 11.24 C
1263 21-06-2019 14:00:00 22.03333 C 47.4167 % 10.34 C
1264 21-06-2019 15:00:00 22.6 C 46.2500 % 10.48 C
1265 21-06-2019 16:00:00 23.64167 C 43.2500 % 10.42 C
1266 21-06-2019 17:00:00 25.125 C 39.5000 % 10.39 C
1267 21-06-2019 18:00:00 24.95833 C 39.5000 % 10.24 C
1268 21-06-2019 19:00:00 23.63333 C 42.8333 % 10.27 C
1269 21-06-2019 20:00:00 22.15 C 47.1667 % 10.37 C
1270 21-06-2019 21:00:00 19.375 C 57.1667 % 10.69 C
1271 21-06-2019 22:00:00 16.6 C 66.4167 % 10.32 C
1272 21-06-2019 23:00:00 15.23333 C 72.5000 % 10.33 C
1273 22-06-2019 00:00:00 13.71667 C 79.0000 % 10.14 C
1274 22-06-2019 01:00:00 13.01667 C 82.2500 % 10.06 C
1275 22-06-2019 02:00:00 12.10833 C 85.6667 % 9.78 C
Sensor: Nr:Datum:Temp:Feuchte:Taupunkt:
Aussen-T/F 1276 22-06-2019 03:00:00 11.5 C 88.5000 % 9.67 C
1277 22-06-2019 04:00:00 11.05833 C 90.4167 % 9.55 C
1278 22-06-2019 05:00:00 10.675 C 91.7500 % 9.39 C
1279 22-06-2019 06:00:00 10.70833 C 93.0000 % 9.62 C
1280 22-06-2019 07:00:00 11.80833 C 94.3333 % 10.93 C
1281 22-06-2019 08:00:00 13.84167 C 90.5833 % 12.33 C
1282 22-06-2019 09:00:00 16.275 C 79.8333 % 12.79 C
1283 22-06-2019 10:00:00 19.475 C 67.1667 % 13.23 C
1284 22-06-2019 11:00:00 21.21667 C 62.1667 % 13.69 C
1285 22-06-2019 12:00:00 22.66667 C 59.5833 % 14.4 C
1286 22-06-2019 13:00:00 24.175 C 55.6667 % 14.75 C
1287 22-06-2019 14:00:00 25.025 C 53.9167 % 15.05 C
1288 22-06-2019 15:00:00 25.59167 C 49.9167 % 14.37 C
1289 22-06-2019 16:00:00 26.50833 C 47.1667 % 14.34 C
1290 22-06-2019 17:00:00 26.26667 C 48.6667 % 14.6 C
1291 22-06-2019 18:00:00 27.45 C 43.5000 % 13.94 C
1292 22-06-2019 19:00:00 27.53333 C 43.7500 % 14.1 C
1293 22-06-2019 20:00:00 26.95 C 48.1667 % 15.06 C
1294 22-06-2019 21:00:00 23.525 C 62.3333 % 15.91 C
1295 22-06-2019 22:00:00 20.3 C 73.0833 % 15.32 C
1296 22-06-2019 23:00:00 18.63333 C 79.3333 % 14.99 C
1297 23-06-2019 00:00:00 17.4 C 83.5000 % 14.58 C
1298 23-06-2019 01:00:00 16.33333 C 86.9167 % 14.15 C
1299 23-06-2019 02:00:00 15.64167 C 89.2500 % 13.88 C
1300 23-06-2019 03:00:00 14.98333 C 91.0000 % 13.53 C
Sensor: Nr:Datum:Temp:Feuchte:Taupunkt:
Aussen-T/F 1301 23-06-2019 04:00:00 14.53333 C 92.2500 % 13.29 C
1302 23-06-2019 05:00:00 14.075 C 93.3333 % 13.02 C
1303 23-06-2019 06:00:00 14.20833 C 94.1667 % 13.28 C
1304 23-06-2019 07:00:00 14.74167 C 94.9167 % 13.94 C
1305 23-06-2019 08:00:00 16.09167 C 94.5833 % 15.22 C
1306 23-06-2019 09:00:00 18.65833 C 86.5000 % 16.36 C
1307 23-06-2019 10:00:00 22.525 C 69.0000 % 16.55 C
1308 23-06-2019 11:00:00 24.14167 C 64.3333 % 16.99 C
1309 23-06-2019 12:00:00 25.21667 C 61.5000 % 17.29 C
1310 23-06-2019 13:00:00 26.58333 C 56.0000 % 17.09 C
1311 23-06-2019 14:00:00 27.84167 C 51.0833 % 16.8 C
1312 23-06-2019 15:00:00 28.575 C 48.2500 % 16.57 C
1313 23-06-2019 16:00:00 30.24167 C 43.1667 % 16.33 C
1314 23-06-2019 17:00:00 30.6 C 43.1667 % 16.65 C
1315 23-06-2019 18:00:00 30.3 C 44.1667 % 16.74 C
1316 23-06-2019 19:00:00 29.025 C 50.3333 % 17.65 C
1317 23-06-2019 20:00:00 25.85833 C 62.0000 % 18.02 C
1318 23-06-2019 21:00:00 23.39167 C 67.6667 % 17.07 C
1319 23-06-2019 22:00:00 21.70833 C 72.3333 % 16.51 C
1320 23-06-2019 23:00:00 20.25 C 77.8333 % 16.26 C
1321 24-06-2019 00:00:00 19.11667 C 82.1667 % 16 C
1322 24-06-2019 01:00:00 18.43333 C 84.3333 % 15.74 C
1323 24-06-2019 02:00:00 17.54167 C 87.0833 % 15.37 C
1324 24-06-2019 03:00:00 16.95833 C 89.0833 % 15.15 C
1325 24-06-2019 04:00:00 16.55 C 90.6667 % 15.02 C
Sensor: Nr:Datum:Temp:Feuchte:Taupunkt:
Aussen-T/F 1326 24-06-2019 05:00:00 16.40833 C 92.0833 % 15.12 C
1327 24-06-2019 06:00:00 16.70833 C 92.9167 % 15.56 C
1328 24-06-2019 07:00:00 17.45 C 92.9167 % 16.29 C
1329 24-06-2019 08:00:00 18.55 C 91.7500 % 17.18 C
1330 24-06-2019 09:00:00 21.25833 C 84.6667 % 18.57 C
1331 24-06-2019 10:00:00 25.475 C 67.0833 % 18.92 C
1332 24-06-2019 11:00:00 26.95833 C 59.6667 % 18.44 C
1333 24-06-2019 12:00:00 27.88333 C 55.5000 % 18.15 C
1334 24-06-2019 13:00:00 29.05833 C 52.0000 % 18.2 C
1335 24-06-2019 14:00:00 30.1 C 49.8333 % 18.48 C
1336 24-06-2019 15:00:00 31.38333 C 46.8333 % 18.65 C
1337 24-06-2019 16:00:00 32.73333 C 44.0000 % 18.87 C
1338 24-06-2019 17:00:00 32.96667 C 44.5833 % 19.3 C
1339 24-06-2019 18:00:00 33.1 C 44.0000 % 19.2 C
1340 24-06-2019 19:00:00 32.375 C 45.5000 % 19.09 C
1341 24-06-2019 20:00:00 30.64167 C 50.5000 % 19.18 C
1342 24-06-2019 21:00:00 26.81667 C 63.7500 % 19.37 C
1343 24-06-2019 22:00:00 23.99167 C 71.0000 % 18.41 C
1344 24-06-2019 23:00:00 22.68333 C 74.0000 % 17.81 C
1345 25-06-2019 00:00:00 21.4 C 77.5000 % 17.3 C
1346 25-06-2019 01:00:00 20.425 C 80.8333 % 17.02 C
1347 25-06-2019 02:00:00 19.35833 C 83.5833 % 16.51 C
1348 25-06-2019 03:00:00 18.46667 C 85.5833 % 16.01 C
1349 25-06-2019 04:00:00 17.825 C 88.0833 % 15.83 C
1350 25-06-2019 05:00:00 17.51667 C 89.4167 % 15.76 C
Sensor: Nr:Datum:Temp:Feuchte:Taupunkt:
Aussen-T/F 1351 25-06-2019 06:00:00 17.76667 C 90.8333 % 16.25 C
1352 25-06-2019 07:00:00 18.44167 C 90.6667 % 16.89 C
1353 25-06-2019 08:00:00 20.1 C 88.5000 % 18.14 C
1354 25-06-2019 09:00:00 22.56667 C 81.7500 % 19.29 C
1355 25-06-2019 10:00:00 26.46667 C 65.7500 % 19.54 C
1356 25-06-2019 11:00:00 28.05833 C 59.2500 % 19.36 C
1357 25-06-2019 12:00:00 29.51667 C 55.8333 % 19.76 C
1358 25-06-2019 13:00:00 31.1 C 52.0000 % 20.08 C
1359 25-06-2019 14:00:00 32.75833 C 46.9167 % 19.93 C
1360 25-06-2019 15:00:00 34.91667 C 41.7500 % 19.99 C
1361 25-06-2019 16:00:00 36.45833 C 38.0833 % 19.87 C
1362 25-06-2019 17:00:00 37.69167 C 32.9167 % 18.61 C
1363 25-06-2019 18:00:00 36.71667 C 36.7500 % 19.53 C
1364 25-06-2019 19:00:00 34.225 C 48.5000 % 21.8 C
1365 25-06-2019 20:00:00 31.78333 C 52.1667 % 20.76 C
1366 25-06-2019 21:00:00 28.025 C 58.9167 % 19.24 C
1367 25-06-2019 22:00:00 25.60833 C 64.0000 % 18.29 C
1368 25-06-2019 23:00:00 24.15833 C 65.9167 % 17.39 C
1369 26-06-2019 00:00:00 23.41667 C 69.5000 % 17.52 C
1370 26-06-2019 01:00:00 22.38333 C 74.1667 % 17.56 C
1371 26-06-2019 02:00:00 21.20833 C 79.0000 % 17.42 C
1372 26-06-2019 03:00:00 20.575 C 81.9167 % 17.38 C
1373 26-06-2019 04:00:00 19.825 C 84.4167 % 17.12 C
1374 26-06-2019 05:00:00 19.475 C 86.5000 % 17.16 C
1375 26-06-2019 06:00:00 19.575 C 87.8333 % 17.5 C
Sensor: Nr:Datum:Temp:Feuchte:Taupunkt:
Aussen-T/F 1376 26-06-2019 07:00:00 20.29167 C 88.1667 % 18.27 C
1377 26-06-2019 08:00:00 21.89167 C 87.8333 % 19.78 C
1378 26-06-2019 09:00:00 24.64167 C 83.0000 % 21.56 C
1379 26-06-2019 10:00:00 27.25 C 74.0833 % 22.22 C
1380 26-06-2019 11:00:00 28.95 C 68.1667 % 22.48 C
1381 26-06-2019 12:00:00 30.24167 C 62.8333 % 22.36 C
1382 26-06-2019 13:00:00 31.63333 C 53.0833 % 20.9 C
1383 26-06-2019 14:00:00 32.64167 C 50.5000 % 21.02 C
1384 26-06-2019 15:00:00 33.9 C 49.5833 % 21.87 C
1385 26-06-2019 16:00:00 34.76667 C 45.8333 % 21.37 C
1386 26-06-2019 17:00:00 34.76667 C 44.0000 % 20.7 C
1387 26-06-2019 18:00:00 34.36667 C 41.8333 % 19.53 C
1388 26-06-2019 19:00:00 33.36667 C 43.5833 % 19.29 C
1389 26-06-2019 20:00:00 30.94167 C 50.2500 % 19.38 C
1390 26-06-2019 21:00:00 28.8 C 56.5000 % 19.29 C
1391 26-06-2019 22:00:00 26.4 C 65.2500 % 19.35 C
1392 26-06-2019 23:00:00 26.03333 C 69.3333 % 19.98 C
1393 27-06-2019 00:00:00 25.24167 C 73.0000 % 20.05 C
1394 27-06-2019 01:00:00 24.11667 C 76.5000 % 19.72 C
1395 27-06-2019 02:00:00 23.25833 C 78.5000 % 19.31 C
1396 27-06-2019 03:00:00 22.41667 C 78.0000 % 18.39 C
1397 27-06-2019 04:00:00 21.66667 C 77.0000 % 17.46 C
1398 27-06-2019 05:00:00 20.54167 C 79.4167 % 16.86 C
1399 27-06-2019 06:00:00 20.01667 C 80.7500 % 16.61 C
1400 27-06-2019 07:00:00 20.03333 C 79.7500 % 16.43 C
Sensor: Nr:Datum:Temp:Feuchte:Taupunkt:
Aussen-T/F 1401 27-06-2019 08:00:00 20.6 C 77.5000 % 16.53 C
1402 27-06-2019 09:00:00 21.45833 C 74.0000 % 16.63 C
1403 27-06-2019 10:00:00 22.83333 C 68.0000 % 16.62 C
1404 27-06-2019 11:00:00 24.03333 C 62.0833 % 16.32 C
1405 27-06-2019 12:00:00 24.84167 C 58.9167 % 16.26 C
1406 27-06-2019 13:00:00 25.875 C 53.2500 % 15.64 C
1407 27-06-2019 14:00:00 26.98333 C 48.3333 % 15.15 C
1408 27-06-2019 15:00:00 28.6 C 41.0833 % 14.09 C
1409 27-06-2019 16:00:00 30.18333 C 32.4167 % 11.86 C
1410 27-06-2019 17:00:00 30.54167 C 28.0000 % 9.97 C
1411 27-06-2019 18:00:00 30.225 C 26.3333 % 8.79 C
1412 27-06-2019 19:00:00 29.59167 C 25.7500 % 7.92 C
1413 27-06-2019 20:00:00 27.43333 C 32.5000 % 9.51 C
1414 27-06-2019 21:00:00 24.48333 C 41.6667 % 10.62 C
1415 27-06-2019 22:00:00 21.28333 C 55.0000 % 11.88 C
1416 27-06-2019 23:00:00 19.9 C 60.8333 % 12.12 C
1417 28-06-2019 00:00:00 18.53333 C 66.0833 % 12.08 C
1418 28-06-2019 01:00:00 17.18333 C 71.6667 % 12.03 C
1419 28-06-2019 02:00:00 16.26667 C 76.5000 % 12.13 C
1420 28-06-2019 03:00:00 15.48333 C 80.2500 % 12.1 C
1421 28-06-2019 04:00:00 14.35 C 84.2500 % 11.73 C
1422 28-06-2019 05:00:00 13.51667 C 87.4167 % 11.47 C
1423 28-06-2019 06:00:00 13.35833 C 89.7500 % 11.71 C
1424 28-06-2019 07:00:00 13.86667 C 90.8333 % 12.4 C
1425 28-06-2019 08:00:00 15.39167 C 85.5000 % 12.97 C
Sensor: Nr:Datum:Temp:Feuchte:Taupunkt:
Aussen-T/F 1426 28-06-2019 09:00:00 17.7 C 74.9167 % 13.2 C
1427 28-06-2019 10:00:00 19.81667 C 67.4167 % 13.61 C
1428 28-06-2019 11:00:00 21.475 C 60.3333 % 13.47 C
1429 28-06-2019 12:00:00 22.84167 C 55.6667 % 13.51 C
1430 28-06-2019 13:00:00 24.66667 C 47.2500 % 12.69 C
1431 28-06-2019 14:00:00 26.31667 C 42.3333 % 12.5 C
1432 28-06-2019 15:00:00 28.225 C 38.5833 % 12.79 C
1433 28-06-2019 16:00:00 30.25 C 33.5833 % 12.46 C
1434 28-06-2019 17:00:00 31.13333 C 29.7500 % 11.38 C
1435 28-06-2019 18:00:00 31.66667 C 28.0000 % 10.93 C
1436 28-06-2019 19:00:00 31.2 C 30.0833 % 11.61 C
1437 28-06-2019 20:00:00 29.49167 C 36.8333 % 13.2 C
1438 28-06-2019 21:00:00 25.61667 C 48.1667 % 13.85 C
1439 28-06-2019 22:00:00 21.58333 C 54.6667 % 12.07 C
1440 28-06-2019 23:00:00 19.275 C 63.6667 % 12.22 C
1441 29-06-2019 00:00:00 18.40833 C 65.9167 % 11.93 C
1442 29-06-2019 01:00:00 17.83333 C 68.0833 % 11.87 C
1443 29-06-2019 02:00:00 17.09167 C 70.9167 % 11.78 C
1444 29-06-2019 03:00:00 16.39167 C 74.3333 % 11.82 C
1445 29-06-2019 04:00:00 15.175 C 78.5833 % 11.48 C
1446 29-06-2019 05:00:00 14.09167 C 82.7500 % 11.21 C
1447 29-06-2019 06:00:00 13.70833 C 85.5000 % 11.32 C
1448 29-06-2019 07:00:00 14.075 C 87.6667 % 12.06 C
1449 29-06-2019 08:00:00 15.26667 C 86.9167 % 13.1 C
1450 29-06-2019 09:00:00 19.2 C 71.5000 % 13.92 C
Sensor: Nr:Datum:Temp:Feuchte:Taupunkt:
Aussen-T/F 1451 29-06-2019 10:00:00 23.49167 C 55.0833 % 13.96 C
1452 29-06-2019 11:00:00 25.775 C 48.0000 % 13.94 C
1453 29-06-2019 12:00:00 27.41667 C 44.5833 % 14.29 C
1454 29-06-2019 13:00:00 29.11667 C 35.4167 % 12.28 C
1455 29-06-2019 14:00:00 30.58333 C 30.5000 % 11.29 C
1456 29-06-2019 15:00:00 32.63333 C 26.5000 % 10.92 C
1457 29-06-2019 16:00:00 34.24167 C 23.5000 % 10.47 C
1458 29-06-2019 17:00:00 35.325 C 22.2500 % 10.55 C
1459 29-06-2019 18:00:00 35.64167 C 22.5833 % 11.03 C
1460 29-06-2019 19:00:00 35.26667 C 23.4167 % 11.27 C
1461 29-06-2019 20:00:00 32.425 C 34.0833 % 14.58 C
1462 29-06-2019 21:00:00 27.60833 C 40.0833 % 12.83 C
1463 29-06-2019 22:00:00 24.225 C 45.4167 % 11.68 C
1464 29-06-2019 23:00:00 21.23333 C 57.4167 % 12.49 C
1465 30-06-2019 00:00:00 18.93333 C 65.8333 % 12.41 C
1466 30-06-2019 01:00:00 17.525 C 72.1667 % 12.46 C
1467 30-06-2019 02:00:00 16.75 C 75.5833 % 12.42 C
1468 30-06-2019 03:00:00 16.10833 C 78.7500 % 12.42 C
1469 30-06-2019 04:00:00 15.58333 C 81.3333 % 12.4 C
1470 30-06-2019 05:00:00 15.05 C 83.5833 % 12.29 C
1471 30-06-2019 06:00:00 14.85 C 86.5000 % 12.62 C
1472 30-06-2019 07:00:00 15.44167 C 87.8333 % 13.44 C
1473 30-06-2019 08:00:00 17.025 C 86.4167 % 14.74 C
1474 30-06-2019 09:00:00 19.65833 C 81.5833 % 16.42 C
1475 30-06-2019 10:00:00 25.225 C 64.7500 % 18.11 C
Sensor: Nr:Datum:Temp:Feuchte:Taupunkt:
Aussen-T/F 1476 30-06-2019 11:00:00 30.59167 C 45.2500 % 17.39 C
1477 30-06-2019 12:00:00 32.48333 C 40.0000 % 17.14 C
1478 30-06-2019 13:00:00 34.6 C 35.0000 % 16.89 C
1479 30-06-2019 14:00:00 36.00833 C 34.3333 % 17.82 C
1480 30-06-2019 15:00:00 35.5 C 40.7500 % 20.12 C
1481 30-06-2019 16:00:00 35.49167 C 45.0000 % 21.72 C
1482 30-06-2019 17:00:00 35.875 C 45.5833 % 22.28 C
1483 30-06-2019 18:00:00 34.975 C 46.3333 % 21.73 C
1484 30-06-2019 19:00:00 32.65833 C 50.6667 % 21.09 C
1485 30-06-2019 20:00:00 29.35 C 58.8333 % 20.45 C
1486 30-06-2019 21:00:00 27.18333 C 62.5000 % 19.4 C
1487 30-06-2019 22:00:00 26.25833 C 63.6667 % 18.82 C
1488 30-06-2019 23:00:00 24.55833 C 67.0000 % 18.02 C
1489 01-07-2019 00:00:00 22.68333 C 73.0833 % 17.61 C
1490 01-07-2019 01:00:00 22.36667 C 73.0833 % 17.31 C
1491 01-07-2019 02:00:00 21.63333 C 73.9167 % 16.78 C
1492 01-07-2019 03:00:00 20.98333 C 72.0833 % 15.76 C
1493 01-07-2019 04:00:00 20.34167 C 71.7500 % 15.07 C
1494 01-07-2019 05:00:00 19.65833 C 73.0833 % 14.7 C
1495 01-07-2019 06:00:00 19.68333 C 70.9167 % 14.26 C
1496 01-07-2019 07:00:00 19.675 C 70.9167 % 14.25 C
1497 01-07-2019 08:00:00 19.79167 C 70.6667 % 14.31 C
1498 01-07-2019 09:00:00 20.24167 C 69.2500 % 14.43 C
1499 01-07-2019 10:00:00 21.20833 C 68.8333 % 15.26 C
1500 01-07-2019 11:00:00 21.78333 C 69.2500 % 15.9 C
Sensor: Nr:Datum:Temp:Feuchte:Taupunkt:
Aussen-T/F 1501 01-07-2019 12:00:00 23.16667 C 62.7500 % 15.67 C
1502 01-07-2019 13:00:00 24.89167 C 50.9167 % 14.04 C
1503 01-07-2019 14:00:00 25.55833 C 51.1667 % 14.73 C
1504 01-07-2019 15:00:00 26.675 C 47.1667 % 14.49 C
1505 01-07-2019 16:00:00 26.89167 C 44.3333 % 13.73 C
1506 01-07-2019 17:00:00 27.04167 C 42.0833 % 13.06 C
1507 01-07-2019 18:00:00 26.3 C 44.0000 % 13.08 C
1508 01-07-2019 19:00:00 25.96667 C 42.7500 % 12.34 C
1509 01-07-2019 20:00:00 24.53333 C 46.6667 % 12.38 C
1510 01-07-2019 21:00:00 22.55833 C 51.1667 % 11.97 C
1511 01-07-2019 22:00:00 20.825 C 57.2500 % 12.06 C
1512 01-07-2019 23:00:00 20.03333 C 59.4167 % 11.89 C
1513 02-07-2019 00:00:00 18.85833 C 63.1667 % 11.71 C
1514 02-07-2019 01:00:00 16.89167 C 70.3333 % 11.46 C
1515 02-07-2019 02:00:00 15.85 C 74.3333 % 11.3 C
1516 02-07-2019 03:00:00 15.49167 C 75.2500 % 11.13 C
1517 02-07-2019 04:00:00 14.525 C 78.8333 % 10.9 C
1518 02-07-2019 05:00:00 13.45 C 83.2500 % 10.67 C
1519 02-07-2019 06:00:00 13.10833 C 85.5000 % 10.73 C
1520 02-07-2019 07:00:00 13.23333 C 87.0000 % 11.12 C
1521 02-07-2019 08:00:00 14.925 C 82.0000 % 11.88 C
1522 02-07-2019 09:00:00 17.48333 C 70.3333 % 12.03 C
1523 02-07-2019 10:00:00 19 C 62.7500 % 11.74 C
1524 02-07-2019 11:00:00 19.60833 C 60.5833 % 11.78 C
1525 02-07-2019 12:00:00 20.48333 C 55.0833 % 11.16 C
Sensor: Nr:Datum:Temp:Feuchte:Taupunkt:
Aussen-T/F 1526 02-07-2019 13:00:00 21.46667 C 51.4167 % 11.04 C
1527 02-07-2019 14:00:00 22.31667 C 49.1667 % 11.14 C
1528 02-07-2019 15:00:00 23.00833 C 47.5833 % 11.28 C
1529 02-07-2019 16:00:00 24.98333 C 40.2500 % 10.55 C
1530 02-07-2019 17:00:00 25.49167 C 38.5000 % 10.33 C
1531 02-07-2019 18:00:00 24.36667 C 41.3333 % 10.39 C
1532 02-07-2019 19:00:00 24.775 C 38.5833 % 9.73 C
1533 02-07-2019 20:00:00 22.95 C 41.7500 % 9.27 C
1534 02-07-2019 21:00:00 20.825 C 48.5833 % 9.6 C
1535 02-07-2019 22:00:00 17.64167 C 58.2500 % 9.35 C
1536 02-07-2019 23:00:00 16.3 C 62.2500 % 9.07 C
1537 03-07-2019 00:00:00 14.80833 C 68.0833 % 8.98 C
1538 03-07-2019 01:00:00 13.23333 C 73.7500 % 8.65 C
1539 03-07-2019 02:00:00 12.30833 C 77.2500 % 8.44 C
1540 03-07-2019 03:00:00 11.475 C 80.5000 % 8.24 C
1541 03-07-2019 04:00:00 10.65 C 83.2500 % 7.93 C
1542 03-07-2019 05:00:00 10.10833 C 85.8333 % 7.85 C
1543 03-07-2019 06:00:00 10.13333 C 88.0000 % 8.24 C
1544 03-07-2019 07:00:00 10.91667 C 88.6667 % 9.12 C
1545 03-07-2019 08:00:00 12.31667 C 86.1667 % 10.07 C
1546 03-07-2019 09:00:00 14.475 C 77.0000 % 10.5 C
1547 03-07-2019 10:00:00 18.01667 C 60.9167 % 10.37 C
1548 03-07-2019 11:00:00 19.95 C 50.8333 % 9.47 C
1549 03-07-2019 12:00:00 20.75833 C 48.7500 % 9.59 C
1550 03-07-2019 13:00:00 21.4 C 46.6667 % 9.52 C
Sensor: Nr:Datum:Temp:Feuchte:Taupunkt:
Aussen-T/F 1551 03-07-2019 14:00:00 21.975 C 46.3333 % 9.94 C
1552 03-07-2019 15:00:00 22.625 C 45.1667 % 10.15 C
1553 03-07-2019 16:00:00 24.44167 C 39.9167 % 9.94 C
1554 03-07-2019 17:00:00 24.56667 C 38.0833 % 9.35 C
1555 03-07-2019 18:00:00 24.70833 C 37.5000 % 9.25 C
1556 03-07-2019 19:00:00 23.79167 C 38.8333 % 8.95 C
1557 03-07-2019 20:00:00 22.35833 C 41.9167 % 8.8 C
1558 03-07-2019 21:00:00 20.40833 C 46.4167 % 8.54 C
1559 03-07-2019 22:00:00 17.54167 C 55.0833 % 8.43 C
1560 03-07-2019 23:00:00 15.46667 C 61.8333 % 8.19 C
1561 04-07-2019 00:00:00 14.2 C 65.9167 % 7.93 C
1562 04-07-2019 01:00:00 13.48333 C 68.0833 % 7.72 C
1563 04-07-2019 02:00:00 12.625 C 71.6667 % 7.65 C
1564 04-07-2019 03:00:00 11.24167 C 77.1667 % 7.39 C
1565 04-07-2019 04:00:00 10.78333 C 79.6667 % 7.42 C
1566 04-07-2019 05:00:00 10.51667 C 81.7500 % 7.53 C
1567 04-07-2019 06:00:00 10.28333 C 83.7500 % 7.66 C
1568 04-07-2019 07:00:00 10.55 C 86.0000 % 8.31 C
1569 04-07-2019 08:00:00 11.76667 C 83.9167 % 9.14 C
1570 04-07-2019 09:00:00 14.4 C 73.1667 % 9.66 C
1571 04-07-2019 10:00:00 18.125 C 56.0833 % 9.24 C
1572 04-07-2019 11:00:00 19.58333 C 49.0833 % 8.61 C
1573 04-07-2019 12:00:00 20.4 C 45.3333 % 8.19 C
1574 04-07-2019 13:00:00 21.63333 C 41.5833 % 8.03 C
1575 04-07-2019 14:00:00 22.71667 C 38.0000 % 7.68 C
Sensor: Nr:Datum:Temp:Feuchte:Taupunkt:
Aussen-T/F 1576 04-07-2019 15:00:00 24.7 C 33.5833 % 7.61 C
1577 04-07-2019 16:00:00 26.80833 C 31.4167 % 8.47 C
1578 04-07-2019 17:00:00 26.9 C 31.9167 % 8.78 C
1579 04-07-2019 18:00:00 27.35 C 30.7500 % 8.62 C
1580 04-07-2019 19:00:00 26.94167 C 31.6667 % 8.7 C
1581 04-07-2019 20:00:00 24.95 C 36.1667 % 8.92 C
1582 04-07-2019 21:00:00 21.60833 C 47.4167 % 9.95 C
1583 04-07-2019 22:00:00 18.56667 C 53.4167 % 8.93 C
1584 04-07-2019 23:00:00 17.39167 C 57.0000 % 8.79 C
1585 05-07-2019 00:00:00 16.41667 C 61.5000 % 9 C
1586 05-07-2019 01:00:00 15.18333 C 65.8333 % 8.84 C
1587 05-07-2019 02:00:00 14.13333 C 69.1667 % 8.57 C
1588 05-07-2019 03:00:00 13.70833 C 73.2500 % 9.01 C
1589 05-07-2019 04:00:00 14.08333 C 73.8333 % 9.49 C
1590 05-07-2019 05:00:00 13.75833 C 74.5833 % 9.33 C
1591 05-07-2019 06:00:00 13.93333 C 76.3333 % 9.84 C
1592 05-07-2019 07:00:00 14.55 C 75.4167 % 10.26 C
1593 05-07-2019 08:00:00 15.8 C 72.5833 % 10.89 C
1594 05-07-2019 09:00:00 17.29167 C 67.5833 % 11.24 C
1595 05-07-2019 10:00:00 20.225 C 58.6667 % 11.87 C
1596 05-07-2019 11:00:00 21.94167 C 53.1667 % 11.98 C
1597 05-07-2019 12:00:00 22.84167 C 50.2500 % 11.95 C
1598 05-07-2019 13:00:00 24.38333 C 45.4167 % 11.83 C
1599 05-07-2019 14:00:00 25.5 C 42.7500 % 11.92 C
1600 05-07-2019 15:00:00 27.45 C 37.8333 % 11.81 C
Sensor: Nr:Datum:Temp:Feuchte:Taupunkt:
Aussen-T/F 1601 05-07-2019 16:00:00 28.91667 C 34.8333 % 11.85 C
1602 05-07-2019 17:00:00 29.6 C 33.7500 % 11.97 C
1603 05-07-2019 18:00:00 29.41667 C 35.0000 % 12.36 C
1604 05-07-2019 19:00:00 27.68333 C 38.6667 % 12.35 C
1605 05-07-2019 20:00:00 26.10833 C 42.6667 % 12.44 C
1606 05-07-2019 21:00:00 23.225 C 52.6667 % 13.02 C
1607 05-07-2019 22:00:00 21.18333 C 58.7500 % 12.79 C
1608 05-07-2019 23:00:00 20.4 C 62.6667 % 13.04 C
1609 06-07-2019 00:00:00 18.45833 C 69.9167 % 12.87 C
1610 06-07-2019 01:00:00 17.60833 C 73.0833 % 12.73 C
1611 06-07-2019 02:00:00 17.05833 C 76.2500 % 12.85 C
1612 06-07-2019 03:00:00 16.875 C 77.5000 % 12.92 C
1613 06-07-2019 04:00:00 16.16667 C 79.6667 % 12.65 C
1614 06-07-2019 05:00:00 15.425 C 81.8333 % 12.34 C
1615 06-07-2019 06:00:00 15.18333 C 84.5833 % 12.61 C
1616 06-07-2019 07:00:00 15.18333 C 85.0833 % 12.7 C
1617 06-07-2019 08:00:00 16.78333 C 81.2500 % 13.55 C
1618 06-07-2019 09:00:00 19.425 C 71.6667 % 14.18 C
1619 06-07-2019 10:00:00 22.16667 C 62.5000 % 14.67 C
1620 06-07-2019 11:00:00 24.41667 C 52.9167 % 14.19 C
1621 06-07-2019 12:00:00 25.48333 C 50.0000 % 14.3 C
1622 06-07-2019 13:00:00 26.84167 C 43.5000 % 13.39 C
1623 06-07-2019 14:00:00 28.7 C 32.0833 % 10.42 C
1624 06-07-2019 15:00:00 30.95833 C 22.5833 % 7.15 C
1625 06-07-2019 16:00:00 29.08333 C 21.6667 % 5 C
Sensor: Nr:Datum:Temp:Feuchte:Taupunkt:
Aussen-T/F 1626 06-07-2019 17:00:00 27.89167 C 28.8333 % 8.14 C
1627 06-07-2019 18:00:00 22.825 C 51.7500 % 12.38 C
1628 06-07-2019 19:00:00 21.60833 C 55.9167 % 12.44 C
1629 06-07-2019 20:00:00 20.35833 C 64.4167 % 13.43 C
1630 06-07-2019 21:00:00 19.75833 C 66.8333 % 13.42 C
1631 06-07-2019 22:00:00 19.86667 C 71.1667 % 14.49 C
1632 06-07-2019 23:00:00 20.35833 C 71.4167 % 15.02 C
1633 07-07-2019 00:00:00 18.93333 C 74.1667 % 14.23 C
1634 07-07-2019 01:00:00 17.88333 C 77.4167 % 13.88 C
1635 07-07-2019 02:00:00 17.33333 C 74.5000 % 12.76 C
1636 07-07-2019 03:00:00 17 C 75.5833 % 12.66 C
1637 07-07-2019 04:00:00 16.825 C 75.8333 % 12.54 C
1638 07-07-2019 05:00:00 16.35 C 79.9167 % 12.88 C
1639 07-07-2019 06:00:00 14.99167 C 89.7500 % 13.32 C
1640 07-07-2019 07:00:00 14.65 C 92.9167 % 13.52 C
1641 07-07-2019 08:00:00 14.28333 C 93.7500 % 13.29 C
1642 07-07-2019 09:00:00 14.78333 C 94.1667 % 13.85 C
1643 07-07-2019 10:00:00 15.38333 C 86.1667 % 13.08 C
1644 07-07-2019 11:00:00 16.50833 C 75.4167 % 12.15 C
1645 07-07-2019 12:00:00 17.73333 C 67.5833 % 11.66 C
1646 07-07-2019 13:00:00 18.5 C 62.4167 % 11.19 C
1647 07-07-2019 14:00:00 19.25833 C 55.6667 % 10.18 C
1648 07-07-2019 15:00:00 20.91667 C 48.5000 % 9.66 C
1649 07-07-2019 16:00:00 21.78333 C 43.6667 % 8.89 C
1650 07-07-2019 17:00:00 21.475 C 44.0833 % 8.75 C
Sensor: Nr:Datum:Temp:Feuchte:Taupunkt:
Aussen-T/F 1651 07-07-2019 18:00:00 21.775 C 44.4167 % 9.13 C
1652 07-07-2019 19:00:00 21.325 C 44.5000 % 8.75 C
1653 07-07-2019 20:00:00 20 C 48.0000 % 8.67 C
1654 07-07-2019 21:00:00 18.65 C 52.5833 % 8.77 C
1655 07-07-2019 22:00:00 15.64167 C 66.2500 % 9.37 C
1656 07-07-2019 23:00:00 13.85 C 73.9167 % 9.28 C
1657 08-07-2019 00:00:00 12.875 C 77.5000 % 9.04 C
1658 08-07-2019 01:00:00 11.89167 C 81.2500 % 8.78 C
1659 08-07-2019 02:00:00 11.05 C 83.7500 % 8.41 C
1660 08-07-2019 03:00:00 10.94167 C 83.5000 % 8.26 C
1661 08-07-2019 04:00:00 10.78333 C 83.9167 % 8.18 C
1662 08-07-2019 05:00:00 9.89167 C 86.7500 % 7.79 C
1663 08-07-2019 06:00:00 9.55833 C 89.5833 % 7.93 C
1664 08-07-2019 07:00:00 9.975 C 91.0000 % 8.58 C
1665 08-07-2019 08:00:00 11.225 C 90.0833 % 9.66 C
1666 08-07-2019 09:00:00 14.18333 C 73.8333 % 9.59 C
1667 08-07-2019 10:00:00 15.65833 C 62.6667 % 8.57 C
1668 08-07-2019 11:00:00 16.14167 C 61.8333 % 8.82 C
1669 08-07-2019 12:00:00 16.68333 C 59.5833 % 8.79 C
1670 08-07-2019 13:00:00 17.05833 C 58.1667 % 8.78 C
1671 08-07-2019 14:00:00 17.33333 C 57.6667 % 8.91 C
1672 08-07-2019 15:00:00 17.49167 C 57.8333 % 9.1 C
1673 08-07-2019 16:00:00 18.025 C 57.0000 % 9.39 C
1674 08-07-2019 17:00:00 18.16667 C 57.1667 % 9.56 C
1675 08-07-2019 18:00:00 18.04167 C 57.2500 % 9.47 C
Sensor: Nr:Datum:Temp:Feuchte:Taupunkt:
Aussen-T/F 1676 08-07-2019 19:00:00 17.75833 C 58.0833 % 9.42 C
1677 08-07-2019 20:00:00 17.69167 C 58.5000 % 9.46 C
1678 08-07-2019 21:00:00 16.26667 C 65.0833 % 9.7 C
1679 08-07-2019 22:00:00 13.975 C 74.8333 % 9.59 C
1680 08-07-2019 23:00:00 14.11667 C 75.4167 % 9.84 C
1681 09-07-2019 00:00:00 13.29167 C 79.3333 % 9.79 C
1682 09-07-2019 01:00:00 12.7 C 81.4167 % 9.6 C
1683 09-07-2019 02:00:00 11.88333 C 83.8333 % 9.24 C
1684 09-07-2019 03:00:00 11.11667 C 87.1667 % 9.07 C
1685 09-07-2019 04:00:00 10.43333 C 88.3333 % 8.59 C
1686 09-07-2019 05:00:00 9.80833 C 90.1667 % 8.28 C
1687 09-07-2019 06:00:00 9.725 C 91.2500 % 8.37 C
1688 09-07-2019 07:00:00 10.91667 C 90.6667 % 9.45 C
1689 09-07-2019 08:00:00 12.98333 C 81.4167 % 9.88 C
1690 09-07-2019 09:00:00 14.2 C 75.8333 % 10 C
1691 09-07-2019 10:00:00 14.9 C 70.6667 % 9.62 C
1692 09-07-2019 11:00:00 16.09167 C 60.4167 % 8.44 C
1693 09-07-2019 12:00:00 16.86667 C 56.6667 % 8.22 C
1694 09-07-2019 13:00:00 17.68333 C 52.4167 % 7.83 C
1695 09-07-2019 14:00:00 18.6 C 49.1667 % 7.74 C
1696 09-07-2019 15:00:00 19.73333 C 45.9167 % 7.77 C
1697 09-07-2019 16:00:00 20.475 C 43.7500 % 7.73 C
1698 09-07-2019 17:00:00 21.725 C 39.5000 % 7.36 C
1699 09-07-2019 18:00:00 21.06667 C 39.7500 % 6.86 C
1700 09-07-2019 19:00:00 20.98333 C 40.7500 % 7.15 C
Sensor: Nr:Datum:Temp:Feuchte:Taupunkt:
Aussen-T/F 1701 09-07-2019 20:00:00 19.525 C 46.5000 % 7.76 C
1702 09-07-2019 21:00:00 17.04167 C 56.8333 % 8.42 C
1703 09-07-2019 22:00:00 14.95 C 62.5000 % 7.86 C
1704 09-07-2019 23:00:00 13.10833 C 71.8333 % 8.15 C
1705 10-07-2019 00:00:00 12.05 C 75.0833 % 7.78 C
1706 10-07-2019 01:00:00 11.01667 C 78.0000 % 7.33 C
1707 10-07-2019 02:00:00 10.01667 C 81.1667 % 6.94 C
1708 10-07-2019 03:00:00 9.05 C 84.6667 % 6.61 C
1709 10-07-2019 04:00:00 8.5 C 87.0000 % 6.46 C
1710 10-07-2019 05:00:00 8.23333 C 88.5833 % 6.46 C
1711 10-07-2019 06:00:00 8.10833 C 89.7500 % 6.53 C
1712 10-07-2019 07:00:00 8.46667 C 90.5833 % 7.02 C
1713 10-07-2019 08:00:00 10 C 90.1667 % 8.46 C
1714 10-07-2019 09:00:00 12.49167 C 81.8333 % 9.48 C
1715 10-07-2019 10:00:00 16.09167 C 68.5000 % 10.3 C
1716 10-07-2019 11:00:00 18.40833 C 54.5833 % 9.1 C
1717 10-07-2019 12:00:00 19.80833 C 42.6667 % 6.77 C
1718 10-07-2019 13:00:00 21.15833 C 35.4167 % 5.28 C
1719 10-07-2019 14:00:00 22.70833 C 30.8333 % 4.65 C
1720 10-07-2019 15:00:00 24.41667 C 28.2500 % 4.87 C
1721 10-07-2019 16:00:00 25.66667 C 26.6667 % 5.11 C
1722 10-07-2019 17:00:00 26.63333 C 25.4167 % 5.24 C
1723 10-07-2019 18:00:00 26.76667 C 25.7500 % 5.54 C
1724 10-07-2019 19:00:00 25.75 C 28.0833 % 5.92 C
1725 10-07-2019 20:00:00 23.525 C 33.6667 % 6.62 C
Sensor: Nr:Datum:Temp:Feuchte:Taupunkt:
Aussen-T/F 1726 10-07-2019 21:00:00 20.74167 C 43.3333 % 7.83 C
1727 10-07-2019 22:00:00 19.21667 C 48.2500 % 8.03 C
1728 10-07-2019 23:00:00 18.9 C 52.0000 % 8.84 C
1729 11-07-2019 00:00:00 19.10833 C 54.4167 % 9.7 C
1730 11-07-2019 01:00:00 17.8 C 61.0833 % 10.21 C
1731 11-07-2019 02:00:00 17.175 C 65.8333 % 10.74 C
1732 11-07-2019 03:00:00 16.875 C 70.1667 % 11.41 C
1733 11-07-2019 04:00:00 16.59167 C 72.6667 % 11.67 C
1734 11-07-2019 05:00:00 16.34167 C 73.1667 % 11.53 C
1735 11-07-2019 06:00:00 16.39167 C 74.2500 % 11.8 C
1736 11-07-2019 07:00:00 17.23333 C 71.7500 % 12.09 C
1737 11-07-2019 08:00:00 17.85833 C 69.0000 % 12.1 C
1738 11-07-2019 09:00:00 18.675 C 68.5000 % 12.77 C
1739 11-07-2019 10:00:00 18.7 C 70.6667 % 13.27 C
1740 11-07-2019 11:00:00 18.9 C 69.5000 % 13.2 C
1741 11-07-2019 12:00:00 17.35 C 81.9167 % 14.23 C
1742 11-07-2019 13:00:00 16.31667 C 90.8333 % 14.82 C
1743 11-07-2019 14:00:00 16.79167 C 92.7500 % 15.61 C
1744 11-07-2019 15:00:00 17.575 C 92.5000 % 16.35 C
1745 11-07-2019 16:00:00 19.11667 C 89.3333 % 17.32 C
1746 11-07-2019 17:00:00 20.88333 C 84.5000 % 18.17 C
1747 11-07-2019 18:00:00 19.50833 C 90.0833 % 17.84 C
1748 11-07-2019 19:00:00 18.3 C 93.0833 % 17.16 C
1749 11-07-2019 20:00:00 18.04167 C 94.0000 % 17.06 C
1750 11-07-2019 21:00:00 17.44167 C 94.0000 % 16.47 C
Sensor: Nr:Datum:Temp:Feuchte:Taupunkt:
Aussen-T/F 1751 11-07-2019 22:00:00 16.85 C 94.9167 % 16.03 C
1752 11-07-2019 23:00:00 16.43333 C 95.0833 % 15.64 C
1753 12-07-2019 00:00:00 16.05 C 96.0000 % 15.41 C
1754 12-07-2019 01:00:00 15.70833 C 96.0000 % 15.07 C
1755 12-07-2019 02:00:00 15.34167 C 96.0000 % 14.71 C
1756 12-07-2019 03:00:00 15.31667 C 96.5000 % 14.76 C
1757 12-07-2019 04:00:00 14.93333 C 96.4167 % 14.37 C
1758 12-07-2019 05:00:00 14.58333 C 97.0000 % 14.11 C
1759 12-07-2019 06:00:00 14.75833 C 97.0000 % 14.29 C
1760 12-07-2019 07:00:00 15.73333 C 97.1667 % 15.29 C
1761 12-07-2019 08:00:00 16.45833 C 97.0833 % 15.99 C
1762 12-07-2019 09:00:00 17.45 C 97.4167 % 17.04 C
1763 12-07-2019 10:00:00 18.78333 C 95.0000 % 17.97 C
1764 12-07-2019 11:00:00 20.325 C 88.7500 % 18.41 C
1765 12-07-2019 12:00:00 19.04167 C 91.7500 % 17.67 C
1766 12-07-2019 13:00:00 17.98333 C 94.2500 % 17.05 C
1767 12-07-2019 14:00:00 17.70833 C 94.1667 % 16.76 C
1768 12-07-2019 15:00:00 19.6 C 89.0833 % 17.75 C
1769 12-07-2019 16:00:00 20.76667 C 86.8333 % 18.49 C
1770 12-07-2019 17:00:00 19.975 C 79.9167 % 16.4 C
1771 12-07-2019 18:00:00 18.30833 C 84.9167 % 15.73 C
1772 12-07-2019 19:00:00 17.55833 C 87.6667 % 15.49 C
1773 12-07-2019 20:00:00 18.23333 C 88.2500 % 16.26 C
1774 12-07-2019 21:00:00 17.63333 C 87.0000 % 15.44 C
1775 12-07-2019 22:00:00 17.3 C 86.2500 % 14.98 C
Sensor: Nr:Datum:Temp:Feuchte:Taupunkt:
Aussen-T/F 1776 12-07-2019 23:00:00 16.55 C 88.3333 % 14.61 C
1777 13-07-2019 00:00:00 16.34167 C 86.6667 % 14.11 C
1778 13-07-2019 01:00:00 16.13333 C 89.9167 % 14.48 C
1779 13-07-2019 02:00:00 15.51667 C 94.0000 % 14.56 C
1780 13-07-2019 03:00:00 15.175 C 94.9167 % 14.37 C
1781 13-07-2019 04:00:00 14.99167 C 95.0833 % 14.21 C
1782 13-07-2019 05:00:00 14.90833 C 96.0000 % 14.28 C
1783 13-07-2019 06:00:00 14.75 C 96.0000 % 14.12 C
1784 13-07-2019 07:00:00 14.93333 C 96.1667 % 14.33 C
1785 13-07-2019 08:00:00 15.61667 C 96.1667 % 15.01 C
1786 13-07-2019 09:00:00 15.83333 C 95.5000 % 15.12 C
1787 13-07-2019 10:00:00 16.5 C 91.0000 % 15.03 C
1788 13-07-2019 11:00:00 17.51667 C 88.3333 % 15.57 C
1789 13-07-2019 12:00:00 18.75833 C 81.5000 % 15.53 C
1790 13-07-2019 13:00:00 19.725 C 75.9167 % 15.36 C
1791 13-07-2019 14:00:00 21.15 C 69.2500 % 15.3 C
1792 13-07-2019 15:00:00 21.18333 C 71.0833 % 15.74 C
1793 13-07-2019 16:00:00 20.90833 C 68.9167 % 14.99 C
1794 13-07-2019 17:00:00 21.84167 C 67.1667 % 15.48 C
1795 13-07-2019 18:00:00 22.38333 C 64.2500 % 15.3 C
1796 13-07-2019 19:00:00 22.70833 C 63.0000 % 15.3 C
1797 13-07-2019 20:00:00 20.45833 C 70.1667 % 14.84 C
1798 13-07-2019 21:00:00 19.2 C 77.2500 % 15.12 C
1799 13-07-2019 22:00:00 18.225 C 85.0833 % 15.68 C
1800 13-07-2019 23:00:00 17.21667 C 89.5833 % 15.49 C
Sensor: Nr:Datum:Temp:Feuchte:Taupunkt:
Aussen-T/F 1801 14-07-2019 00:00:00 16.95 C 89.7500 % 15.26 C
1802 14-07-2019 01:00:00 16.975 C 88.5833 % 15.08 C
1803 14-07-2019 02:00:00 16.35833 C 89.6667 % 14.66 C
1804 14-07-2019 03:00:00 15.44167 C 90.9167 % 13.97 C
1805 14-07-2019 04:00:00 15.11667 C 90.9167 % 13.64 C
1806 14-07-2019 05:00:00 14.85 C 90.2500 % 13.27 C
1807 14-07-2019 06:00:00 14.71667 C 90.9167 % 13.25 C
1808 14-07-2019 07:00:00 14.86667 C 86.8333 % 12.69 C
1809 14-07-2019 08:00:00 15.40833 C 85.3333 % 12.96 C
1810 14-07-2019 09:00:00 15.26667 C 84.1667 % 12.61 C
1811 14-07-2019 10:00:00 16.00833 C 77.7500 % 12.13 C
1812 14-07-2019 11:00:00 16.83333 C 73.1667 % 12 C
1813 14-07-2019 12:00:00 17.53333 C 69.4167 % 11.88 C
1814 14-07-2019 13:00:00 17.80833 C 66.8333 % 11.57 C
1815 14-07-2019 14:00:00 18.19167 C 64.3333 % 11.35 C
1816 14-07-2019 15:00:00 18.925 C 61.0833 % 11.26 C
1817 14-07-2019 16:00:00 19.33333 C 58.8333 % 11.08 C
1818 14-07-2019 17:00:00 19.34167 C 58.5833 % 11.03 C
1819 14-07-2019 18:00:00 18.65833 C 61.8333 % 11.2 C
1820 14-07-2019 19:00:00 18.36667 C 62.0000 % 10.96 C
1821 14-07-2019 20:00:00 17.89167 C 66.0000 % 11.46 C
1822 14-07-2019 21:00:00 17.45 C 67.4167 % 11.36 C
1823 14-07-2019 22:00:00 17.125 C 68.0833 % 11.19 C
1824 14-07-2019 23:00:00 16.8 C 71.0833 % 11.53 C
1825 15-07-2019 00:00:00 16.06667 C 76.7500 % 11.99 C
Sensor: Nr:Datum:Temp:Feuchte:Taupunkt:
Aussen-T/F 1826 15-07-2019 01:00:00 15.63333 C 78.7500 % 11.96 C
1827 15-07-2019 02:00:00 15.55833 C 80.3333 % 12.19 C
1828 15-07-2019 03:00:00 14.99167 C 83.5000 % 12.22 C
1829 15-07-2019 04:00:00 15.30833 C 78.2500 % 11.55 C
1830 15-07-2019 05:00:00 15.65 C 74.4167 % 11.12 C
1831 15-07-2019 06:00:00 15.6 C 74.1667 % 11.02 C
1832 15-07-2019 07:00:00 15.69167 C 74.0000 % 11.07 C
1833 15-07-2019 08:00:00 15.83333 C 74.0833 % 11.23 C
1834 15-07-2019 09:00:00 16.53333 C 71.4167 % 11.35 C
1835 15-07-2019 10:00:00 16.8 C 72.1667 % 11.76 C
1836 15-07-2019 11:00:00 16.84167 C 74.4167 % 12.27 C
1837 15-07-2019 12:00:00 17.10833 C 72.8333 % 12.2 C
1838 15-07-2019 13:00:00 17.49167 C 69.7500 % 11.91 C
1839 15-07-2019 14:00:00 18.09167 C 66.3333 % 11.72 C
1840 15-07-2019 15:00:00 17.68333 C 67.9167 % 11.69 C
1841 15-07-2019 16:00:00 17.11667 C 70.5000 % 11.71 C
1842 15-07-2019 17:00:00 16.775 C 71.6667 % 11.63 C
1843 15-07-2019 18:00:00 16.69167 C 71.5833 % 11.54 C
1844 15-07-2019 19:00:00 16.78333 C 71.0000 % 11.5 C
1845 15-07-2019 20:00:00 16.69167 C 71.0833 % 11.43 C
1846 15-07-2019 21:00:00 16.34167 C 73.9167 % 11.68 C
1847 15-07-2019 22:00:00 15.61667 C 79.5000 % 12.09 C
1848 15-07-2019 23:00:00 15.44167 C 77.2500 % 11.48 C
1849 16-07-2019 00:00:00 14.75 C 79.8333 % 11.31 C
1850 16-07-2019 01:00:00 13.675 C 80.3333 % 10.35 C
Sensor: Nr:Datum:Temp:Feuchte:Taupunkt:
Aussen-T/F 1851 16-07-2019 02:00:00 12.23333 C 85.5000 % 9.88 C
1852 16-07-2019 03:00:00 10.9 C 90.2500 % 9.37 C
1853 16-07-2019 04:00:00 10.28333 C 92.2500 % 9.08 C
1854 16-07-2019 05:00:00 9.98333 C 93.1667 % 8.93 C
1855 16-07-2019 06:00:00 10.125 C 94.4167 % 9.27 C
1856 16-07-2019 07:00:00 11.01667 C 93.7500 % 10.05 C
1857 16-07-2019 08:00:00 12.625 C 90.7500 % 11.15 C
1858 16-07-2019 09:00:00 14.58333 C 84.1667 % 11.94 C
1859 16-07-2019 10:00:00 15.51667 C 77.5000 % 11.6 C
1860 16-07-2019 11:00:00 15.99167 C 74.6667 % 11.5 C
1861 16-07-2019 12:00:00 16.725 C 71.8333 % 11.62 C
1862 16-07-2019 13:00:00 17.40833 C 69.4167 % 11.76 C
1863 16-07-2019 14:00:00 18.38333 C 66.5000 % 12.04 C
1864 16-07-2019 15:00:00 20.325 C 60.9167 % 12.54 C
1865 16-07-2019 16:00:00 22.31667 C 54.8333 % 12.8 C
1866 16-07-2019 17:00:00 22.8 C 53.0833 % 12.75 C
1867 16-07-2019 18:00:00 23.075 C 52.0000 % 12.69 C
1868 16-07-2019 19:00:00 22.125 C 54.1667 % 12.43 C
1869 16-07-2019 20:00:00 20.81667 C 58.3333 % 12.34 C
1870 16-07-2019 21:00:00 18.30833 C 70.1667 % 12.78 C
1871 16-07-2019 22:00:00 15.85 C 78.8333 % 12.18 C
1872 16-07-2019 23:00:00 15.08333 C 81.7500 % 11.99 C
1873 17-07-2019 00:00:00 14.09167 C 84.3333 % 11.49 C
1874 17-07-2019 01:00:00 13.08333 C 88.2500 % 11.19 C
1875 17-07-2019 02:00:00 12.40833 C 89.7500 % 10.77 C
Sensor: Nr:Datum:Temp:Feuchte:Taupunkt:
Aussen-T/F 1876 17-07-2019 03:00:00 11.64167 C 91.5833 % 10.32 C
1877 17-07-2019 04:00:00 11.225 C 92.8333 % 10.11 C
1878 17-07-2019 05:00:00 10.83333 C 93.7500 % 9.87 C
1879 17-07-2019 06:00:00 10.74167 C 94.5000 % 9.9 C
1880 17-07-2019 07:00:00 11.51667 C 95.0833 % 10.76 C
1881 17-07-2019 08:00:00 12.79167 C 94.5000 % 11.93 C
1882 17-07-2019 09:00:00 14.85833 C 88.5833 % 12.99 C
1883 17-07-2019 10:00:00 17.23333 C 77.4167 % 13.25 C
1884 17-07-2019 11:00:00 18.58333 C 71.6667 % 13.37 C
1885 17-07-2019 12:00:00 19.39167 C 68.7500 % 13.51 C
1886 17-07-2019 13:00:00 20.5 C 62.9167 % 13.2 C
1887 17-07-2019 14:00:00 21.69167 C 58.9167 % 13.31 C
1888 17-07-2019 15:00:00 22.69167 C 58.0000 % 14.01 C
1889 17-07-2019 16:00:00 23.675 C 54.9167 % 14.08 C
1890 17-07-2019 17:00:00 24.575 C 53.0000 % 14.36 C
1891 17-07-2019 18:00:00 24.24167 C 54.1667 % 14.39 C
1892 17-07-2019 19:00:00 23.20833 C 58.5000 % 14.62 C
1893 17-07-2019 20:00:00 21.525 C 64.2500 % 14.49 C
1894 17-07-2019 21:00:00 19.69167 C 70.6667 % 14.22 C
1895 17-07-2019 22:00:00 17.05 C 80.0000 % 13.58 C
1896 17-07-2019 23:00:00 16.025 C 84.5000 % 13.41 C
1897 18-07-2019 00:00:00 15.29167 C 86.0833 % 12.98 C
1898 18-07-2019 01:00:00 14.29167 C 88.5000 % 12.42 C
1899 18-07-2019 02:00:00 13.69167 C 91.2500 % 12.29 C
1900 18-07-2019 03:00:00 13.45833 C 92.2500 % 12.23 C
Sensor: Nr:Datum:Temp:Feuchte:Taupunkt:
Aussen-T/F 1901 18-07-2019 04:00:00 13.24167 C 92.9167 % 12.12 C
1902 18-07-2019 05:00:00 12.675 C 93.0833 % 11.59 C
1903 18-07-2019 06:00:00 12.45833 C 94.3333 % 11.57 C
1904 18-07-2019 07:00:00 13.25833 C 95.0000 % 12.48 C
1905 18-07-2019 08:00:00 14.31667 C 93.1667 % 13.23 C
1906 18-07-2019 09:00:00 16.21667 C 89.0833 % 14.42 C
1907 18-07-2019 10:00:00 18.83333 C 81.3333 % 15.57 C
1908 18-07-2019 11:00:00 21.89167 C 64.4167 % 14.88 C
1909 18-07-2019 12:00:00 24.18333 C 54.1667 % 14.34 C
1910 18-07-2019 13:00:00 25.71667 C 49.0833 % 14.23 C
1911 18-07-2019 14:00:00 27.20833 C 41.0833 % 12.85 C
1912 18-07-2019 15:00:00 26.04167 C 44.9167 % 13.16 C
1913 18-07-2019 16:00:00 24.76667 C 52.4167 % 14.37 C
1914 18-07-2019 17:00:00 24.84167 C 56.0833 % 15.49 C
1915 18-07-2019 18:00:00 23.975 C 62.7500 % 16.44 C
1916 18-07-2019 19:00:00 21.06667 C 74.2500 % 16.31 C
1917 18-07-2019 20:00:00 20.86667 C 70.0000 % 15.19 C
1918 18-07-2019 21:00:00 20.35 C 69.0833 % 14.49 C
1919 18-07-2019 22:00:00 19.66667 C 71.6667 % 14.41 C
1920 18-07-2019 23:00:00 19.35833 C 72.5000 % 14.29 C
1921 19-07-2019 00:00:00 19.33333 C 74.0833 % 14.6 C
1922 19-07-2019 01:00:00 18.45833 C 82.4167 % 15.41 C
1923 19-07-2019 02:00:00 17.05833 C 89.9167 % 15.39 C
1924 19-07-2019 03:00:00 16.60833 C 92.3333 % 15.36 C
1925 19-07-2019 04:00:00 16.375 C 93.4167 % 15.31 C
Sensor: Nr:Datum:Temp:Feuchte:Taupunkt:
Aussen-T/F 1926 19-07-2019 05:00:00 16.3 C 94.1667 % 15.36 C
1927 19-07-2019 06:00:00 16.35 C 95.0000 % 15.55 C
1928 19-07-2019 07:00:00 16.7 C 95.2500 % 15.94 C
1929 19-07-2019 08:00:00 17.23333 C 96.0000 % 16.59 C
1930 19-07-2019 09:00:00 18.025 C 94.8333 % 17.18 C
1931 19-07-2019 10:00:00 19.275 C 90.3333 % 17.65 C
1932 19-07-2019 11:00:00 20.475 C 83.6667 % 17.62 C
1933 19-07-2019 12:00:00 20.04167 C 86.1667 % 17.66 C
1934 19-07-2019 13:00:00 21.975 C 74.8333 % 17.31 C
1935 19-07-2019 14:00:00 23.525 C 60.9167 % 15.55 C
1936 19-07-2019 15:00:00 24.875 C 52.8333 % 14.59 C
1937 19-07-2019 16:00:00 25.21667 C 50.5833 % 14.23 C
1938 19-07-2019 17:00:00 25.91667 C 49.5833 % 14.57 C
1939 19-07-2019 18:00:00 25.43333 C 51.0833 % 14.59 C
1940 19-07-2019 19:00:00 24.78333 C 60.1667 % 16.54 C
1941 19-07-2019 20:00:00 23.25833 C 64.2500 % 16.13 C
1942 19-07-2019 21:00:00 20.90833 C 71.5833 % 15.58 C
1943 19-07-2019 22:00:00 19.20833 C 79.0833 % 15.5 C
1944 19-07-2019 23:00:00 18.525 C 82.9167 % 15.57 C
1945 20-07-2019 00:00:00 17.39167 C 86.1667 % 15.06 C
1946 20-07-2019 01:00:00 16.6 C 88.2500 % 14.65 C
1947 20-07-2019 02:00:00 15.74167 C 90.5000 % 14.19 C
1948 20-07-2019 03:00:00 15.025 C 92.4167 % 13.81 C
1949 20-07-2019 04:00:00 14.55833 C 93.4167 % 13.51 C
1950 20-07-2019 05:00:00 14.18333 C 94.0833 % 13.25 C
Sensor: Nr:Datum:Temp:Feuchte:Taupunkt:
Aussen-T/F 1951 20-07-2019 06:00:00 13.96667 C 94.9167 % 13.17 C
1952 20-07-2019 07:00:00 14.56667 C 95.7500 % 13.9 C
1953 20-07-2019 08:00:00 15.86667 C 96.0000 % 15.23 C
1954 20-07-2019 09:00:00 17.73333 C 94.8333 % 16.89 C
1955 20-07-2019 10:00:00 21.4 C 87.2500 % 19.19 C
1956 20-07-2019 11:00:00 25.8 C 63.2500 % 18.28 C
1957 20-07-2019 12:00:00 27.775 C 51.4167 % 16.84 C
1958 20-07-2019 13:00:00 28.175 C 50.5000 % 16.92 C
1959 20-07-2019 14:00:00 30.04167 C 45.4167 % 16.95 C
1960 20-07-2019 15:00:00 30.8 C 43.7500 % 17.04 C
1961 20-07-2019 16:00:00 28.94167 C 64.4167 % 21.55 C
1962 20-07-2019 17:00:00 28.35 C 60.9167 % 20.08 C
1963 20-07-2019 18:00:00 28.925 C 49.3333 % 17.24 C
1964 20-07-2019 19:00:00 27.50833 C 53.5833 % 17.25 C
1965 20-07-2019 20:00:00 23.425 C 69.5833 % 17.55 C
1966 20-07-2019 21:00:00 21.725 C 76.0833 % 17.33 C
1967 20-07-2019 22:00:00 20.56667 C 80.0833 % 17.01 C
1968 20-07-2019 23:00:00 19.75 C 83.5833 % 16.89 C
1969 21-07-2019 00:00:00 19.08333 C 85.6667 % 16.63 C
1970 21-07-2019 01:00:00 18.58333 C 87.9167 % 16.54 C
1971 21-07-2019 02:00:00 18.875 C 87.7500 % 16.8 C
1972 21-07-2019 03:00:00 18.65 C 88.6667 % 16.74 C
1973 21-07-2019 04:00:00 17.95 C 89.3333 % 16.17 C
1974 21-07-2019 05:00:00 17.46667 C 91.1667 % 16.01 C
1975 21-07-2019 06:00:00 17.73333 C 91.6667 % 16.36 C
Sensor: Nr:Datum:Temp:Feuchte:Taupunkt:
Aussen-T/F 1976 21-07-2019 07:00:00 18.5 C 89.1667 % 16.68 C
1977 21-07-2019 08:00:00 19.34167 C 80.4167 % 15.89 C
1978 21-07-2019 09:00:00 20.30833 C 74.0000 % 15.52 C
1979 21-07-2019 10:00:00 21.85833 C 66.2500 % 15.28 C
1980 21-07-2019 11:00:00 23.79167 C 53.8333 % 13.88 C
1981 21-07-2019 12:00:00 24.96667 C 51.0833 % 14.16 C
1982 21-07-2019 13:00:00 24.95833 C 53.2500 % 14.79 C
1983 21-07-2019 14:00:00 26.01667 C 51.0833 % 15.12 C
1984 21-07-2019 15:00:00 26.84167 C 48.3333 % 15.02 C
1985 21-07-2019 16:00:00 27.76667 C 45.9167 % 15.06 C
1986 21-07-2019 17:00:00 27.275 C 47.5833 % 15.17 C
1987 21-07-2019 18:00:00 26.44167 C 49.2500 % 14.94 C
1988 21-07-2019 19:00:00 25.40833 C 52.1667 % 14.89 C
1989 21-07-2019 20:00:00 24.4 C 54.8333 % 14.73 C
1990 21-07-2019 21:00:00 22.64167 C 61.1667 % 14.78 C
1991 21-07-2019 22:00:00 19.85 C 71.5000 % 14.55 C
1992 21-07-2019 23:00:00 18.35 C 78.1667 % 14.48 C
1993 22-07-2019 00:00:00 17.075 C 81.0833 % 13.81 C
1994 22-07-2019 01:00:00 16.15833 C 84.1667 % 13.48 C
1995 22-07-2019 02:00:00 15.64167 C 87.4167 % 13.56 C
1996 22-07-2019 03:00:00 15.33333 C 88.3333 % 13.42 C
1997 22-07-2019 04:00:00 14.74167 C 89.5000 % 13.03 C
1998 22-07-2019 05:00:00 14.3 C 90.9167 % 12.84 C
1999 22-07-2019 06:00:00 14.175 C 91.8333 % 12.87 C
2000 22-07-2019 07:00:00 14.725 C 92.7500 % 13.56 C
Sensor: Nr:Datum:Temp:Feuchte:Taupunkt:
Aussen-T/F 2001 22-07-2019 08:00:00 16.28333 C 89.2500 % 14.51 C
2002 22-07-2019 09:00:00 18.20833 C 83.9167 % 15.45 C
2003 22-07-2019 10:00:00 20.80833 C 74.2500 % 16.06 C
2004 22-07-2019 11:00:00 24.00833 C 58.0000 % 15.24 C
2005 22-07-2019 12:00:00 25.55833 C 52.5833 % 15.15 C
2006 22-07-2019 13:00:00 26.41667 C 50.1667 % 15.21 C
2007 22-07-2019 14:00:00 27.775 C 45.7500 % 15.01 C
2008 22-07-2019 15:00:00 29.05 C 43.0833 % 15.23 C
2009 22-07-2019 16:00:00 30.80833 C 38.7500 % 15.15 C
2010 22-07-2019 17:00:00 31.51667 C 36.8333 % 14.99 C
2011 22-07-2019 18:00:00 32.31667 C 35.3333 % 15.04 C
2012 22-07-2019 19:00:00 31.475 C 36.3333 % 14.74 C
2013 22-07-2019 20:00:00 29.425 C 42.9167 % 15.51 C
2014 22-07-2019 21:00:00 25.59167 C 56.5000 % 16.3 C
2015 22-07-2019 22:00:00 22.85 C 63.6667 % 15.6 C
2016 22-07-2019 23:00:00 20.925 C 71.0000 % 15.47 C
2017 23-07-2019 00:00:00 19.4 C 76.2500 % 15.11 C
2018 23-07-2019 01:00:00 18.375 C 79.8333 % 14.83 C
2019 23-07-2019 02:00:00 17.55833 C 82.5000 % 14.55 C
2020 23-07-2019 03:00:00 16.84167 C 85.0833 % 14.32 C
2021 23-07-2019 04:00:00 16.29167 C 87.4167 % 14.2 C
2022 23-07-2019 05:00:00 15.825 C 89.0833 % 14.03 C
2023 23-07-2019 06:00:00 15.65833 C 90.8333 % 14.17 C
2024 23-07-2019 07:00:00 16.10833 C 91.0000 % 14.64 C
2025 23-07-2019 08:00:00 16.83333 C 90.5833 % 15.28 C
Sensor: Nr:Datum:Temp:Feuchte:Taupunkt:
Aussen-T/F 2026 23-07-2019 09:00:00 18.70833 C 87.0833 % 16.52 C
2027 23-07-2019 10:00:00 22.425 C 75.0000 % 17.77 C
2028 23-07-2019 11:00:00 27.35 C 53.3333 % 17.03 C
2029 23-07-2019 12:00:00 29.59167 C 44.0000 % 16.05 C
2030 23-07-2019 13:00:00 30.78333 C 39.9167 % 15.59 C
2031 23-07-2019 14:00:00 32.11667 C 37.1667 % 15.66 C
2032 23-07-2019 15:00:00 33.90833 C 35.0833 % 16.33 C
2033 23-07-2019 16:00:00 35.8 C 30.9167 % 15.99 C
2034 23-07-2019 17:00:00 36.38333 C 28.6667 % 15.31 C
2035 23-07-2019 18:00:00 36.76667 C 28.4167 % 15.5 C
2036 23-07-2019 19:00:00 35.64167 C 30.8333 % 15.81 C
2037 23-07-2019 20:00:00 32.725 C 40.6667 % 17.61 C
2038 23-07-2019 21:00:00 28.00833 C 50.3333 % 16.72 C
2039 23-07-2019 22:00:00 25.2 C 57.8333 % 16.3 C
2040 23-07-2019 23:00:00 22.93333 C 66.0000 % 16.24 C
2041 24-07-2019 00:00:00 21.44167 C 71.5000 % 16.07 C
2042 24-07-2019 01:00:00 20.31667 C 76.4167 % 16.03 C
2043 24-07-2019 02:00:00 19.30833 C 79.0000 % 15.58 C
2044 24-07-2019 03:00:00 18.63333 C 81.7500 % 15.45 C
2045 24-07-2019 04:00:00 17.76667 C 84.5833 % 15.14 C
2046 24-07-2019 05:00:00 17.23333 C 87.0833 % 15.07 C
2047 24-07-2019 06:00:00 17.075 C 88.2500 % 15.12 C
2048 24-07-2019 07:00:00 17.26667 C 90.0000 % 15.61 C
2049 24-07-2019 08:00:00 18.325 C 88.8333 % 16.45 C
2050 24-07-2019 09:00:00 20.23333 C 85.3333 % 17.69 C
Sensor: Nr:Datum:Temp:Feuchte:Taupunkt:
Aussen-T/F 2051 24-07-2019 10:00:00 23.75 C 72.4167 % 18.49 C
2052 24-07-2019 11:00:00 27.43333 C 59.5000 % 18.84 C
2053 24-07-2019 12:00:00 32.04167 C 41.6667 % 17.39 C
2054 24-07-2019 13:00:00 34.175 C 29.0833 % 13.64 C
2055 24-07-2019 14:00:00 35.31667 C 26.8333 % 13.38 C
2056 24-07-2019 15:00:00 36.975 C 26.0000 % 14.29 C
2057 24-07-2019 16:00:00 39.59167 C 23.0833 % 14.64 C
2058 24-07-2019 17:00:00 39.60833 C 22.9167 % 14.54 C
2059 24-07-2019 18:00:00 39.31667 C 22.6667 % 14.13 C
2060 24-07-2019 19:00:00 38.49167 C 27.5833 % 16.49 C
2061 24-07-2019 20:00:00 33.13333 C 40.0000 % 17.71 C
2062 24-07-2019 21:00:00 28.825 C 48.8333 % 16.99 C
2063 24-07-2019 22:00:00 27.375 C 52.0000 % 16.65 C
2064 24-07-2019 23:00:00 25.58333 C 58.3333 % 16.8 C
2065 25-07-2019 00:00:00 23.68333 C 63.0833 % 16.24 C
2066 25-07-2019 01:00:00 22.53333 C 66.5833 % 16 C
2067 25-07-2019 02:00:00 21.6 C 70.5000 % 16.01 C
2068 25-07-2019 03:00:00 20.89167 C 73.9167 % 16.07 C
2069 25-07-2019 04:00:00 20.075 C 77.7500 % 16.07 C
2070 25-07-2019 05:00:00 19.35833 C 80.0000 % 15.82 C
2071 25-07-2019 06:00:00 19.19167 C 82.2500 % 16.09 C
2072 25-07-2019 07:00:00 19.55833 C 83.8333 % 16.75 C
2073 25-07-2019 08:00:00 20.73333 C 82.7500 % 17.69 C
2074 25-07-2019 09:00:00 22.75833 C 76.9167 % 18.5 C
2075 25-07-2019 10:00:00 25.84167 C 66.6667 % 19.16 C
Sensor: Nr:Datum:Temp:Feuchte:Taupunkt:
Aussen-T/F 2076 25-07-2019 11:00:00 29.93333 C 53.3333 % 19.41 C
2077 25-07-2019 12:00:00 34.525 C 35.4167 % 17.02 C
2078 25-07-2019 13:00:00 36.46667 C 31.0000 % 16.6 C
2079 25-07-2019 14:00:00 37.425 C 28.8333 % 16.28 C
2080 25-07-2019 15:00:00 38.79167 C 26.3333 % 16.02 C
2081 25-07-2019 16:00:00 40.15 C 23.6667 % 15.49 C
2082 25-07-2019 17:00:00 39.80833 C 22.5833 % 14.48 C
2083 25-07-2019 18:00:00 39.09167 C 23.5000 % 14.5 C
2084 25-07-2019 19:00:00 36.66667 C 33.4167 % 17.96 C
2085 25-07-2019 20:00:00 32.81667 C 41.8333 % 18.14 C
2086 25-07-2019 21:00:00 30.34167 C 44.6667 % 16.96 C
2087 25-07-2019 22:00:00 28.75833 C 47.2500 % 16.41 C
2088 25-07-2019 23:00:00 27.56667 C 49.6667 % 16.1 C
2089 26-07-2019 00:00:00 26.19167 C 53.4167 % 15.98 C
2090 26-07-2019 01:00:00 25 C 57.0833 % 15.91 C
2091 26-07-2019 02:00:00 22.51667 C 67.0000 % 16.08 C
2092 26-07-2019 03:00:00 20.99167 C 71.6667 % 15.68 C
2093 26-07-2019 04:00:00 20.125 C 76.5833 % 15.88 C
2094 26-07-2019 05:00:00 19.29167 C 79.0000 % 15.56 C
2095 26-07-2019 06:00:00 18.95833 C 80.3333 % 15.5 C
2096 26-07-2019 07:00:00 19.61667 C 82.5000 % 16.56 C
2097 26-07-2019 08:00:00 21.10833 C 80.0000 % 17.52 C
2098 26-07-2019 09:00:00 23.50833 C 69.2500 % 17.55 C
2099 26-07-2019 10:00:00 28.225 C 49.5000 % 16.65 C
2100 26-07-2019 11:00:00 32.05 C 38.8333 % 16.28 C
Sensor: Nr:Datum:Temp:Feuchte:Taupunkt:
Aussen-T/F 2101 26-07-2019 12:00:00 34.35 C 34.5000 % 16.45 C
2102 26-07-2019 13:00:00 36.00833 C 30.9167 % 16.16 C
2103 26-07-2019 14:00:00 37.35833 C 26.7500 % 15.06 C
2104 26-07-2019 15:00:00 37.1 C 28.3333 % 15.73 C
2105 26-07-2019 16:00:00 35.28333 C 34.0000 % 17.03 C
2106 26-07-2019 17:00:00 32.5 C 42.4167 % 18.08 C
2107 26-07-2019 18:00:00 30.44167 C 45.5000 % 17.34 C
2108 26-07-2019 19:00:00 28.825 C 52.1667 % 18.04 C
2109 26-07-2019 20:00:00 27.525 C 57.7500 % 18.45 C
2110 26-07-2019 21:00:00 26.33333 C 59.3333 % 17.77 C
2111 26-07-2019 22:00:00 25.5 C 62.0833 % 17.7 C
2112 26-07-2019 23:00:00 24.35833 C 66.7500 % 17.78 C
2113 27-07-2019 00:00:00 23.15 C 70.2500 % 17.43 C
2114 27-07-2019 01:00:00 22.63333 C 73.2500 % 17.6 C
2115 27-07-2019 02:00:00 22.33333 C 75.1667 % 17.72 C
2116 27-07-2019 03:00:00 22.59167 C 74.7500 % 17.88 C
2117 27-07-2019 04:00:00 20.9 C 86.4167 % 18.55 C
2118 27-07-2019 05:00:00 20.275 C 88.7500 % 18.36 C
2119 27-07-2019 06:00:00 20.525 C 88.5833 % 18.57 C
2120 27-07-2019 07:00:00 21.25 C 88.1667 % 19.21 C
2121 27-07-2019 08:00:00 22.575 C 81.4167 % 19.23 C
2122 27-07-2019 09:00:00 24.725 C 73.5000 % 19.67 C
2123 27-07-2019 10:00:00 24.64167 C 81.6667 % 21.29 C
2124 27-07-2019 11:00:00 23.94167 C 86.5833 % 21.56 C
2125 27-07-2019 12:00:00 23.75 C 83.5000 % 20.79 C
Sensor: Nr:Datum:Temp:Feuchte:Taupunkt:
Aussen-T/F 2126 27-07-2019 13:00:00 26 C 73.8333 % 20.97 C
2127 27-07-2019 14:00:00 25.725 C 71.0833 % 20.09 C
2128 27-07-2019 15:00:00 25.04167 C 74.0833 % 20.1 C
2129 27-07-2019 16:00:00 25.96667 C 68.5000 % 19.72 C
2130 27-07-2019 17:00:00 24.49167 C 75.9167 % 19.96 C
2131 27-07-2019 18:00:00 24.90833 C 75.7500 % 20.33 C
2132 27-07-2019 19:00:00 23.84167 C 80.7500 % 20.33 C
2133 27-07-2019 20:00:00 22.88333 C 84.9167 % 20.21 C
2134 27-07-2019 21:00:00 22.075 C 85.6667 % 19.56 C
2135 27-07-2019 22:00:00 21.45 C 87.1667 % 19.23 C
2136 27-07-2019 23:00:00 21.14167 C 88.7500 % 19.21 C
2137 28-07-2019 00:00:00 20.83333 C 89.9167 % 19.12 C
2138 28-07-2019 01:00:00 20.70833 C 90.0000 % 19.01 C
2139 28-07-2019 02:00:00 20.7 C 90.0000 % 19 C
2140 28-07-2019 03:00:00 20.68333 C 90.0000 % 18.98 C
2141 28-07-2019 04:00:00 20.60833 C 90.8333 % 19.06 C
2142 28-07-2019 05:00:00 20.55 C 91.0000 % 19.03 C
2143 28-07-2019 06:00:00 20.54167 C 91.0000 % 19.02 C
2144 28-07-2019 07:00:00 20.69167 C 90.0000 % 18.99 C
2145 28-07-2019 08:00:00 20.71667 C 89.0833 % 18.85 C
2146 28-07-2019 09:00:00 20.425 C 90.3333 % 18.79 C
2147 28-07-2019 10:00:00 20.025 C 91.8333 % 18.66 C
2148 28-07-2019 11:00:00 20.08333 C 91.8333 % 18.71 C
2149 28-07-2019 12:00:00 20.50833 C 87.8333 % 18.42 C
2150 28-07-2019 13:00:00 20.30833 C 87.3333 % 18.13 C
Sensor: Nr:Datum:Temp:Feuchte:Taupunkt:
Aussen-T/F 2151 28-07-2019 14:00:00 19.98333 C 89.2500 % 18.16 C
2152 28-07-2019 15:00:00 19.90833 C 88.1667 % 17.89 C
2153 28-07-2019 16:00:00 19.81667 C 87.6667 % 17.71 C
2154 28-07-2019 17:00:00 19.45833 C 89.8333 % 17.75 C
2155 28-07-2019 18:00:00 19.175 C 90.4167 % 17.57 C
2156 28-07-2019 19:00:00 18.875 C 91.5833 % 17.47 C
2157 28-07-2019 20:00:00 18.5 C 92.7500 % 17.3 C
2158 28-07-2019 21:00:00 18.175 C 93.8333 % 17.17 C
2159 28-07-2019 22:00:00 17.90833 C 94.7500 % 17.05 C
2160 28-07-2019 23:00:00 17.6 C 95.0000 % 16.79 C
2161 29-07-2019 00:00:00 17.325 C 95.0000 % 16.52 C
2162 29-07-2019 01:00:00 17.10833 C 95.0000 % 16.3 C
2163 29-07-2019 02:00:00 16.975 C 95.7500 % 16.29 C
2164 29-07-2019 03:00:00 16.84167 C 96.0000 % 16.2 C
2165 29-07-2019 04:00:00 16.80833 C 96.0000 % 16.17 C
2166 29-07-2019 05:00:00 16.74167 C 96.0000 % 16.1 C
2167 29-07-2019 06:00:00 16.725 C 96.0000 % 16.08 C
2168 29-07-2019 07:00:00 16.99167 C 95.7500 % 16.31 C
2169 29-07-2019 08:00:00 17.46667 C 92.5833 % 16.25 C
2170 29-07-2019 09:00:00 18.49167 C 86.3333 % 16.17 C
2171 29-07-2019 10:00:00 19.39167 C 79.3333 % 15.72 C
2172 29-07-2019 11:00:00 20.475 C 73.7500 % 15.63 C
2173 29-07-2019 12:00:00 21.95 C 66.4167 % 15.41 C
2174 29-07-2019 13:00:00 23.25 C 62.0000 % 15.56 C
2175 29-07-2019 14:00:00 24.41667 C 57.5000 % 15.48 C
Sensor: Nr:Datum:Temp:Feuchte:Taupunkt:
Aussen-T/F 2176 29-07-2019 15:00:00 25.83333 C 51.4167 % 15.05 C
2177 29-07-2019 16:00:00 27.6 C 45.7500 % 14.85 C
2178 29-07-2019 17:00:00 28.23333 C 43.2500 % 14.56 C
2179 29-07-2019 18:00:00 27.70833 C 43.5000 % 14.17 C
2180 29-07-2019 19:00:00 28.1 C 43.3333 % 14.46 C
2181 29-07-2019 20:00:00 26.33333 C 49.1667 % 14.82 C
2182 29-07-2019 21:00:00 23.05833 C 61.6667 % 15.3 C
2183 29-07-2019 22:00:00 20.75833 C 69.6667 % 15.02 C
2184 29-07-2019 23:00:00 19.34167 C 75.5833 % 14.92 C
2185 30-07-2019 00:00:00 17.95 C 81.0833 % 14.66 C
2186 30-07-2019 01:00:00 17.425 C 83.5000 % 14.6 C
2187 30-07-2019 02:00:00 16.6 C 85.5000 % 14.16 C
2188 30-07-2019 03:00:00 15.875 C 88.1667 % 13.92 C
2189 30-07-2019 04:00:00 15.4 C 90.0833 % 13.78 C
2190 30-07-2019 05:00:00 15.03333 C 91.5000 % 13.66 C
2191 30-07-2019 06:00:00 14.725 C 92.8333 % 13.58 C
2192 30-07-2019 07:00:00 14.93333 C 93.8333 % 13.95 C
2193 30-07-2019 08:00:00 15.88333 C 93.9167 % 14.91 C
2194 30-07-2019 09:00:00 17.4 C 91.8333 % 16.06 C
2195 30-07-2019 10:00:00 20.275 C 82.2500 % 17.15 C
2196 30-07-2019 11:00:00 24.96667 C 57.9167 % 16.11 C
2197 30-07-2019 12:00:00 27.025 C 45.5000 % 14.25 C
2198 30-07-2019 13:00:00 28.24167 C 39.2500 % 13.07 C
2199 30-07-2019 14:00:00 29.49167 C 37.6667 % 13.55 C
2200 30-07-2019 15:00:00 30.69167 C 36.0833 % 13.94 C
Sensor: Nr:Datum:Temp:Feuchte:Taupunkt:
Aussen-T/F 2201 30-07-2019 16:00:00 31.20833 C 34.2500 % 13.59 C
2202 30-07-2019 17:00:00 29.30833 C 37.8333 % 13.45 C
2203 30-07-2019 18:00:00 26.625 C 40.7500 % 12.2 C
2204 30-07-2019 19:00:00 24.55833 C 51.0833 % 13.78 C
2205 30-07-2019 20:00:00 24.09167 C 55.1667 % 14.54 C
2206 30-07-2019 21:00:00 23.675 C 56.7500 % 14.59 C
2207 30-07-2019 22:00:00 22.20833 C 62.7500 % 14.77 C
2208 30-07-2019 23:00:00 21.175 C 68.0000 % 15.04 C
2209 31-07-2019 00:00:00 20.55 C 69.8333 % 14.85 C
2210 31-07-2019 01:00:00 20.325 C 71.0000 % 14.9 C
2211 31-07-2019 02:00:00 19.70833 C 71.6667 % 14.45 C
2212 31-07-2019 03:00:00 18.63333 C 75.0833 % 14.13 C
2213 31-07-2019 04:00:00 18.575 C 77.0000 % 14.47 C
2214 31-07-2019 05:00:00 17.83333 C 78.0000 % 13.95 C
2215 31-07-2019 06:00:00 17.64167 C 78.4167 % 13.84 C
2216 31-07-2019 07:00:00 17.375 C 79.9167 % 13.88 C
2217 31-07-2019 08:00:00 18.44167 C 75.4167 % 14.02 C
2218 31-07-2019 09:00:00 20.01667 C 67.6667 % 13.86 C
2219 31-07-2019 10:00:00 21.35833 C 58.7500 % 12.96 C
2220 31-07-2019 11:00:00 21.60833 C 55.2500 % 12.25 C
2221 31-07-2019 12:00:00 22.66667 C 50.8333 % 11.97 C
2222 31-07-2019 13:00:00 23.69167 C 47.0000 % 11.72 C
2223 31-07-2019 14:00:00 24.76667 C 42.4167 % 11.14 C
2224 31-07-2019 15:00:00 25.55 C 40.0833 % 10.99 C
2225 31-07-2019 16:00:00 24.95833 C 42.3333 % 11.28 C
Sensor: Nr:Datum:Temp:Feuchte:Taupunkt:
Aussen-T/F 2226 31-07-2019 17:00:00 25.25 C 42.9167 % 11.75 C
2227 31-07-2019 18:00:00 23.875 C 47.0833 % 11.91 C
2228 31-07-2019 19:00:00 23.49167 C 48.5000 % 12.01 C
2229 31-07-2019 20:00:00 22.09167 C 55.7500 % 12.84 C
2230 31-07-2019 21:00:00 19.925 C 59.6667 % 11.85 C
2231 31-07-2019 22:00:00 18.68333 C 61.0000 % 11.02 C
2232 31-07-2019 23:00:00 18.45 C 63.0833 % 11.3 C
2233 01-08-2019 00:00:00 16.88333 C 70.2500 % 11.44 C
2234 01-08-2019 01:00:00 15.525 C 75.0000 % 11.12 C
2235 01-08-2019 02:00:00 14.73333 C 78.9167 % 11.12 C
2236 01-08-2019 03:00:00 14.15833 C 81.0000 % 10.95 C
2237 01-08-2019 04:00:00 12.95833 C 84.9167 % 10.48 C
2238 01-08-2019 05:00:00 12.625 C 86.8333 % 10.49 C
2239 01-08-2019 06:00:00 12.125 C 88.5000 % 10.28 C
2240 01-08-2019 07:00:00 12.55833 C 89.1667 % 10.82 C
2241 01-08-2019 08:00:00 15.175 C 81.5000 % 12.03 C
2242 01-08-2019 09:00:00 17.56667 C 73.5833 % 12.8 C
2243 01-08-2019 10:00:00 20.3 C 62.4167 % 12.89 C
2244 01-08-2019 11:00:00 21.775 C 55.7500 % 12.55 C
2245 01-08-2019 12:00:00 22.45 C 53.5000 % 12.54 C
2246 01-08-2019 13:00:00 23.16667 C 53.0000 % 13.06 C
2247 01-08-2019 14:00:00 24.15 C 49.4167 % 12.9 C
2248 01-08-2019 15:00:00 24.575 C 48.9167 % 13.13 C
2249 01-08-2019 16:00:00 24.4 C 50.0000 % 13.31 C
2250 01-08-2019 17:00:00 25.13333 C 47.6667 % 13.25 C
Sensor: Nr:Datum:Temp:Feuchte:Taupunkt:
Aussen-T/F 2251 01-08-2019 18:00:00 26.35 C 44.7500 % 13.38 C
2252 01-08-2019 19:00:00 26.26667 C 45.1667 % 13.45 C
2253 01-08-2019 20:00:00 24.10833 C 53.8333 % 14.17 C
2254 01-08-2019 21:00:00 21.15 C 62.6667 % 13.75 C
2255 01-08-2019 22:00:00 19.76667 C 67.6667 % 13.62 C
2256 01-08-2019 23:00:00 19.24167 C 69.5833 % 13.55 C
2257 02-08-2019 00:00:00 18.81667 C 73.2500 % 13.93 C
2258 02-08-2019 01:00:00 18.34167 C 75.6667 % 13.97 C
2259 02-08-2019 02:00:00 17.86667 C 76.8333 % 13.75 C
2260 02-08-2019 03:00:00 16.94167 C 79.6667 % 13.41 C
2261 02-08-2019 04:00:00 16.31667 C 82.5000 % 13.33 C
2262 02-08-2019 05:00:00 16.2 C 83.6667 % 13.43 C
2263 02-08-2019 06:00:00 16.25 C 85.0000 % 13.73 C
2264 02-08-2019 07:00:00 16.925 C 84.5000 % 14.3 C
2265 02-08-2019 08:00:00 17.93333 C 82.3333 % 14.88 C
2266 02-08-2019 09:00:00 19.35 C 77.9167 % 15.4 C
2267 02-08-2019 10:00:00 20.71667 C 72.1667 % 15.52 C
2268 02-08-2019 11:00:00 22.16667 C 64.8333 % 15.24 C
2269 02-08-2019 12:00:00 21.275 C 75.5000 % 16.77 C
2270 02-08-2019 13:00:00 21.125 C 71.2500 % 15.72 C
2271 02-08-2019 14:00:00 23.16667 C 61.7500 % 15.42 C
2272 02-08-2019 15:00:00 24.58333 C 56.3333 % 15.32 C
2273 02-08-2019 16:00:00 25.59167 C 51.0833 % 14.73 C
2274 02-08-2019 17:00:00 26.725 C 46.0000 % 14.15 C
2275 02-08-2019 18:00:00 25.00833 C 53.4167 % 14.89 C
Sensor: Nr:Datum:Temp:Feuchte:Taupunkt:
Aussen-T/F 2276 02-08-2019 19:00:00 23.7 C 54.8333 % 14.08 C
2277 02-08-2019 20:00:00 22.45833 C 60.4167 % 14.42 C
2278 02-08-2019 21:00:00 21.275 C 63.5833 % 14.09 C
2279 02-08-2019 22:00:00 20.95 C 65.3333 % 14.2 C
2280 02-08-2019 23:00:00 18.975 C 78.8333 % 15.22 C
2281 03-08-2019 00:00:00 17.75833 C 84.3333 % 15.08 C
2282 03-08-2019 01:00:00 18.28333 C 82.5000 % 15.25 C
2283 03-08-2019 02:00:00 18.24167 C 84.4167 % 15.57 C
2284 03-08-2019 03:00:00 18.2 C 85.6667 % 15.76 C
2285 03-08-2019 04:00:00 18.15 C 86.9167 % 15.94 C
2286 03-08-2019 05:00:00 18.14167 C 87.0000 % 15.94 C
2287 03-08-2019 06:00:00 17.89167 C 87.2500 % 15.74 C
2288 03-08-2019 07:00:00 17.84167 C 85.6667 % 15.41 C
2289 03-08-2019 08:00:00 17.95 C 84.5000 % 15.3 C
2290 03-08-2019 09:00:00 18.6 C 79.2500 % 14.94 C
2291 03-08-2019 10:00:00 19.61667 C 75.5000 % 15.17 C
2292 03-08-2019 11:00:00 20.35833 C 73.1667 % 15.39 C
2293 03-08-2019 12:00:00 21.55833 C 66.9167 % 15.15 C
2294 03-08-2019 13:00:00 22.05 C 66.3333 % 15.48 C
2295 03-08-2019 14:00:00 22.20833 C 65.8333 % 15.52 C
2296 03-08-2019 15:00:00 23.80833 C 58.0000 % 15.05 C
2297 03-08-2019 16:00:00 25.16667 C 53.1667 % 14.96 C
2298 03-08-2019 17:00:00 25.49167 C 51.0000 % 14.61 C
2299 03-08-2019 18:00:00 25.46667 C 51.0000 % 14.59 C
2300 03-08-2019 19:00:00 24.30833 C 54.5000 % 14.55 C
Sensor: Nr:Datum:Temp:Feuchte:Taupunkt:
Aussen-T/F 2301 03-08-2019 20:00:00 22.61667 C 59.8333 % 14.42 C
2302 03-08-2019 21:00:00 20.55833 C 65.7500 % 13.93 C
2303 03-08-2019 22:00:00 18.10833 C 74.1667 % 13.44 C
2304 03-08-2019 23:00:00 17.05 C 79.3333 % 13.45 C
2305 04-08-2019 00:00:00 16.225 C 81.8333 % 13.12 C
2306 04-08-2019 01:00:00 15.125 C 85.5000 % 12.71 C
2307 04-08-2019 02:00:00 14 C 88.7500 % 12.17 C
2308 04-08-2019 03:00:00 13.3 C 90.9167 % 11.85 C
2309 04-08-2019 04:00:00 12.88333 C 92.0833 % 11.63 C
2310 04-08-2019 05:00:00 12.49167 C 93.0000 % 11.39 C
2311 04-08-2019 06:00:00 12.34167 C 93.8333 % 11.38 C
2312 04-08-2019 07:00:00 12.725 C 94.4167 % 11.85 C
2313 04-08-2019 08:00:00 13.73333 C 95.0000 % 12.95 C
2314 04-08-2019 09:00:00 15.34167 C 93.0833 % 14.23 C
2315 04-08-2019 10:00:00 18.10833 C 83.3333 % 15.24 C
2316 04-08-2019 11:00:00 21.31667 C 67.5000 % 15.06 C
2317 04-08-2019 12:00:00 23.3 C 59.5000 % 14.97 C
2318 04-08-2019 13:00:00 24.75 C 53.6667 % 14.72 C
2319 04-08-2019 14:00:00 25.86667 C 48.5833 % 14.21 C
2320 04-08-2019 15:00:00 28.225 C 40.6667 % 13.6 C
2321 04-08-2019 16:00:00 30.03333 C 34.5000 % 12.68 C
2322 04-08-2019 17:00:00 30.95833 C 32.0833 % 12.38 C
2323 04-08-2019 18:00:00 30.79167 C 33.7500 % 13.01 C
2324 04-08-2019 19:00:00 28.75833 C 41.6667 % 14.45 C
2325 04-08-2019 20:00:00 25.78333 C 51.9167 % 15.16 C
Sensor: Nr:Datum:Temp:Feuchte:Taupunkt:
Aussen-T/F 2326 04-08-2019 21:00:00 22.51667 C 60.3333 % 14.45 C
2327 04-08-2019 22:00:00 21.95833 C 63.6667 % 14.76 C
2328 04-08-2019 23:00:00 22.39167 C 61.2500 % 14.57 C
2329 05-08-2019 00:00:00 22.875 C 57.8333 % 14.13 C
2330 05-08-2019 01:00:00 21.65833 C 62.4167 % 14.17 C
2331 05-08-2019 02:00:00 20.28333 C 66.8333 % 13.92 C
2332 05-08-2019 03:00:00 19.6 C 69.6667 % 13.91 C
2333 05-08-2019 04:00:00 19.31667 C 75.7500 % 14.93 C
2334 05-08-2019 05:00:00 19.325 C 78.0000 % 15.39 C
2335 05-08-2019 06:00:00 18.28333 C 87.3333 % 16.14 C
2336 05-08-2019 07:00:00 17.53333 C 92.3333 % 16.28 C
2337 05-08-2019 08:00:00 17.64167 C 94.5000 % 16.75 C
2338 05-08-2019 09:00:00 18.75 C 94.9167 % 17.92 C
2339 05-08-2019 10:00:00 20.08333 C 92.5833 % 18.84 C
2340 05-08-2019 11:00:00 21.99167 C 84.0833 % 19.18 C
2341 05-08-2019 12:00:00 24.25 C 68.7500 % 18.14 C
2342 05-08-2019 13:00:00 26 C 59.7500 % 17.57 C
2343 05-08-2019 14:00:00 27.11667 C 54.6667 % 17.2 C
2344 05-08-2019 15:00:00 28.375 C 46.5000 % 15.81 C
2345 05-08-2019 16:00:00 28.875 C 41.3333 % 14.43 C
2346 05-08-2019 17:00:00 28.225 C 42.0833 % 14.13 C
2347 05-08-2019 18:00:00 27.7 C 42.1667 % 13.68 C
2348 05-08-2019 19:00:00 26.7 C 46.4167 % 14.26 C
2349 05-08-2019 20:00:00 25.1 C 53.5833 % 15.02 C
2350 05-08-2019 21:00:00 22.075 C 61.1667 % 14.25 C
Sensor: Nr:Datum:Temp:Feuchte:Taupunkt:
Aussen-T/F 2351 05-08-2019 22:00:00 20.53333 C 69.3333 % 14.73 C
2352 05-08-2019 23:00:00 19.28333 C 74.0000 % 14.54 C
2353 06-08-2019 00:00:00 18.00833 C 78.2500 % 14.17 C
2354 06-08-2019 01:00:00 17.10833 C 81.4167 % 13.9 C
2355 06-08-2019 02:00:00 17.00833 C 82.9167 % 14.09 C
2356 06-08-2019 03:00:00 17.45833 C 83.0833 % 14.56 C
2357 06-08-2019 04:00:00 17.20833 C 83.8333 % 14.45 C
2358 06-08-2019 05:00:00 16.60833 C 85.6667 % 14.2 C
2359 06-08-2019 06:00:00 16.66667 C 86.5833 % 14.42 C
2360 06-08-2019 07:00:00 17.83333 C 83.2500 % 14.95 C
2361 06-08-2019 08:00:00 18.675 C 81.0833 % 15.37 C
2362 06-08-2019 09:00:00 20.1 C 76.5000 % 15.84 C
2363 06-08-2019 10:00:00 19.91667 C 83.7500 % 17.09 C
2364 06-08-2019 11:00:00 19.65 C 89.1667 % 17.82 C
2365 06-08-2019 12:00:00 21.31667 C 82.2500 % 18.17 C
2366 06-08-2019 13:00:00 22.325 C 77.4167 % 18.18 C
2367 06-08-2019 14:00:00 23.61667 C 69.8333 % 17.79 C
2368 06-08-2019 15:00:00 24.725 C 64.7500 % 17.64 C
2369 06-08-2019 16:00:00 25.39167 C 61.9167 % 17.56 C
2370 06-08-2019 17:00:00 26.4 C 57.5000 % 17.33 C
2371 06-08-2019 18:00:00 25.20833 C 61.8333 % 17.37 C
2372 06-08-2019 19:00:00 22.54167 C 76.7500 % 18.25 C
2373 06-08-2019 20:00:00 19.05 C 90.4167 % 17.44 C
2374 06-08-2019 21:00:00 18.00833 C 93.1667 % 16.89 C
2375 06-08-2019 22:00:00 17.51667 C 94.0000 % 16.54 C
Sensor: Nr:Datum:Temp:Feuchte:Taupunkt:
Aussen-T/F 2376 06-08-2019 23:00:00 17.08333 C 94.9167 % 16.26 C
2377 07-08-2019 00:00:00 16.68333 C 95.0000 % 15.88 C
2378 07-08-2019 01:00:00 16.3 C 95.5000 % 15.58 C
2379 07-08-2019 02:00:00 16.45833 C 96.0000 % 15.82 C
2380 07-08-2019 03:00:00 16.58333 C 96.2500 % 15.98 C
2381 07-08-2019 04:00:00 16.63333 C 97.0000 % 16.15 C
2382 07-08-2019 05:00:00 16.66667 C 97.0000 % 16.19 C
2383 07-08-2019 06:00:00 16.875 C 97.0000 % 16.4 C
2384 07-08-2019 07:00:00 17.25 C 97.0000 % 16.77 C
2385 07-08-2019 08:00:00 17.75833 C 97.0000 % 17.28 C
2386 07-08-2019 09:00:00 18.25 C 97.0000 % 17.77 C
2387 07-08-2019 10:00:00 18.96667 C 96.4167 % 18.38 C
2388 07-08-2019 11:00:00 19.725 C 93.0833 % 18.57 C
2389 07-08-2019 12:00:00 20.83333 C 84.5000 % 18.12 C
2390 07-08-2019 13:00:00 21.85833 C 76.3333 % 17.51 C
2391 07-08-2019 14:00:00 22.525 C 75.3333 % 17.94 C
2392 07-08-2019 15:00:00 22.59167 C 72.9167 % 17.49 C
2393 07-08-2019 16:00:00 22.08333 C 72.8333 % 16.98 C
2394 07-08-2019 17:00:00 22.53333 C 71.2500 % 17.07 C
2395 07-08-2019 18:00:00 23.35833 C 68.4167 % 17.21 C
2396 07-08-2019 19:00:00 22.38333 C 73.7500 % 17.47 C
2397 07-08-2019 20:00:00 20.05833 C 83.5000 % 17.18 C
2398 07-08-2019 21:00:00 18.05 C 86.7500 % 15.81 C
2399 07-08-2019 22:00:00 16.74167 C 89.7500 % 15.05 C
2400 07-08-2019 23:00:00 16.64167 C 89.1667 % 14.85 C
Sensor: Nr:Datum:Temp:Feuchte:Taupunkt:
Aussen-T/F 2401 08-08-2019 00:00:00 15.76667 C 91.4167 % 14.37 C
2402 08-08-2019 01:00:00 16.35 C 92.0000 % 15.05 C
2403 08-08-2019 02:00:00 16.45 C 92.0000 % 15.15 C
2404 08-08-2019 03:00:00 16.44167 C 91.9167 % 15.12 C
2405 08-08-2019 04:00:00 16.06667 C 92.6667 % 14.88 C
2406 08-08-2019 05:00:00 15.31667 C 93.2500 % 14.23 C
2407 08-08-2019 06:00:00 15.7 C 94.0000 % 14.74 C
2408 08-08-2019 07:00:00 15.95 C 93.5833 % 14.92 C
2409 08-08-2019 08:00:00 17.05833 C 91.1667 % 15.61 C
2410 08-08-2019 09:00:00 18.55833 C 84.0833 % 15.82 C
2411 08-08-2019 10:00:00 20.05833 C 73.0000 % 15.07 C
2412 08-08-2019 11:00:00 21.74167 C 65.7500 % 15.05 C
2413 08-08-2019 12:00:00 22.99167 C 61.1667 % 15.11 C
2414 08-08-2019 13:00:00 24.025 C 57.4167 % 15.1 C
2415 08-08-2019 14:00:00 24.20833 C 57.3333 % 15.24 C
2416 08-08-2019 15:00:00 24.51667 C 57.1667 % 15.49 C
2417 08-08-2019 16:00:00 26.58333 C 51.4167 % 15.74 C
2418 08-08-2019 17:00:00 27.18333 C 48.1667 % 15.28 C
2419 08-08-2019 18:00:00 27.46667 C 47.3333 % 15.26 C
2420 08-08-2019 19:00:00 25.43333 C 62.0833 % 17.64 C
2421 08-08-2019 20:00:00 23.575 C 67.5833 % 17.23 C
2422 08-08-2019 21:00:00 20.625 C 76.4167 % 16.33 C
2423 08-08-2019 22:00:00 19.15833 C 83.1667 % 16.23 C
2424 08-08-2019 23:00:00 18.16667 C 87.5000 % 16.06 C
2425 09-08-2019 00:00:00 17.15833 C 89.4167 % 15.4 C
Sensor: Nr:Datum:Temp:Feuchte:Taupunkt:
Aussen-T/F 2426 09-08-2019 01:00:00 16.25833 C 91.2500 % 14.83 C
2427 09-08-2019 02:00:00 15.875 C 92.0000 % 14.58 C
2428 09-08-2019 03:00:00 15.21667 C 92.7500 % 14.05 C
2429 09-08-2019 04:00:00 14.725 C 93.6667 % 13.71 C
2430 09-08-2019 05:00:00 14.44167 C 94.0833 % 13.5 C
2431 09-08-2019 06:00:00 14.56667 C 95.0000 % 13.78 C
2432 09-08-2019 07:00:00 15.40833 C 95.3333 % 14.67 C
2433 09-08-2019 08:00:00 16.44167 C 93.1667 % 15.33 C
2434 09-08-2019 09:00:00 18.26667 C 87.8333 % 16.22 C
2435 09-08-2019 10:00:00 20.60833 C 80.7500 % 17.18 C
2436 09-08-2019 11:00:00 23.8 C 71.5833 % 18.35 C
2437 09-08-2019 12:00:00 25.26667 C 65.8333 % 18.42 C
2438 09-08-2019 13:00:00 25.275 C 66.4167 % 18.57 C
2439 09-08-2019 14:00:00 24.75 C 77.3333 % 20.51 C
2440 09-08-2019 15:00:00 24.43333 C 82.0833 % 21.17 C
2441 09-08-2019 16:00:00 27.25 C 69.9167 % 21.28 C
2442 09-08-2019 17:00:00 25.45 C 81.5000 % 22.05 C
2443 09-08-2019 18:00:00 22.78333 C 88.9167 % 20.86 C
2444 09-08-2019 19:00:00 21.5 C 93.0833 % 20.33 C
2445 09-08-2019 20:00:00 19.63333 C 94.0833 % 18.65 C
2446 09-08-2019 21:00:00 19.31667 C 95.5000 % 18.58 C
2447 09-08-2019 22:00:00 19.30833 C 96.0000 % 18.65 C
2448 09-08-2019 23:00:00 18.86667 C 96.0000 % 18.21 C
2449 10-08-2019 00:00:00 18.775 C 96.5833 % 18.22 C
2450 10-08-2019 01:00:00 18.73333 C 96.9167 % 18.23 C
Sensor: Nr:Datum:Temp:Feuchte:Taupunkt:
Aussen-T/F 2451 10-08-2019 02:00:00 18.50833 C 97.0000 % 18.02 C
2452 10-08-2019 03:00:00 18.29167 C 97.0000 % 17.81 C
2453 10-08-2019 04:00:00 18.11667 C 97.0000 % 17.63 C
2454 10-08-2019 05:00:00 17.53333 C 97.0000 % 17.05 C
2455 10-08-2019 06:00:00 17.45 C 97.0000 % 16.97 C
2456 10-08-2019 07:00:00 17.33333 C 97.0000 % 16.85 C
2457 10-08-2019 08:00:00 17.41667 C 95.0833 % 16.62 C
2458 10-08-2019 09:00:00 19.125 C 86.0000 % 16.73 C
2459 10-08-2019 10:00:00 20.36667 C 79.5000 % 16.7 C
2460 10-08-2019 11:00:00 21.43333 C 74.3333 % 16.68 C
2461 10-08-2019 12:00:00 22.38333 C 69.0000 % 16.42 C
2462 10-08-2019 13:00:00 23.26667 C 63.4167 % 15.93 C
2463 10-08-2019 14:00:00 23.83333 C 60.7500 % 15.8 C
2464 10-08-2019 15:00:00 24.99167 C 55.4167 % 15.44 C
2465 10-08-2019 16:00:00 25.24167 C 53.5000 % 15.13 C
2466 10-08-2019 17:00:00 26.29167 C 49.2500 % 14.81 C
2467 10-08-2019 18:00:00 25.99167 C 49.0833 % 14.48 C
2468 10-08-2019 19:00:00 25.00833 C 49.6667 % 13.76 C
2469 10-08-2019 20:00:00 22.63333 C 61.2500 % 14.79 C
2470 10-08-2019 21:00:00 19.41667 C 72.6667 % 14.38 C
2471 10-08-2019 22:00:00 17.71667 C 78.7500 % 13.98 C
2472 10-08-2019 23:00:00 16.45833 C 82.0000 % 13.38 C
2473 11-08-2019 00:00:00 15.75833 C 84.8333 % 13.21 C
2474 11-08-2019 01:00:00 15.375 C 87.3333 % 13.28 C
2475 11-08-2019 02:00:00 15.7 C 86.5000 % 13.45 C
Sensor: Nr:Datum:Temp:Feuchte:Taupunkt:
Aussen-T/F 2476 11-08-2019 03:00:00 15.20833 C 86.5000 % 12.97 C
2477 11-08-2019 04:00:00 14.43333 C 88.3333 % 12.53 C
2478 11-08-2019 05:00:00 13.58333 C 90.1667 % 12 C
2479 11-08-2019 06:00:00 13.40833 C 92.6667 % 12.25 C
2480 11-08-2019 07:00:00 14.04167 C 92.2500 % 12.8 C
2481 11-08-2019 08:00:00 14.9 C 91.3333 % 13.5 C
2482 11-08-2019 09:00:00 16.21667 C 87.0833 % 14.07 C
2483 11-08-2019 10:00:00 19.375 C 69.7500 % 13.71 C
2484 11-08-2019 11:00:00 21.26667 C 59.2500 % 13 C
2485 11-08-2019 12:00:00 22.09167 C 55.8333 % 12.86 C
2486 11-08-2019 13:00:00 22.775 C 51.0833 % 12.14 C
2487 11-08-2019 14:00:00 22.89167 C 52.5833 % 12.69 C
2488 11-08-2019 15:00:00 21.50833 C 61.3333 % 13.76 C
2489 11-08-2019 16:00:00 20.05 C 70.0000 % 14.41 C
2490 11-08-2019 17:00:00 17.18333 C 86.8333 % 14.97 C
2491 11-08-2019 18:00:00 16.475 C 90.4167 % 14.9 C
2492 11-08-2019 19:00:00 16.075 C 89.6667 % 14.38 C
2493 11-08-2019 20:00:00 15.775 C 91.0000 % 14.31 C
2494 11-08-2019 21:00:00 15.23333 C 91.7500 % 13.9 C
2495 11-08-2019 22:00:00 14.3 C 91.8333 % 12.99 C
2496 11-08-2019 23:00:00 14.24167 C 93.3333 % 13.18 C
2497 12-08-2019 00:00:00 14.85833 C 92.5833 % 13.67 C
2498 12-08-2019 01:00:00 14.325 C 92.0833 % 13.06 C
2499 12-08-2019 02:00:00 13.66667 C 93.4167 % 12.62 C
2500 12-08-2019 03:00:00 13.125 C 94.0000 % 12.18 C
Sensor: Nr:Datum:Temp:Feuchte:Taupunkt:
Aussen-T/F 2501 12-08-2019 04:00:00 12.89167 C 95.0000 % 12.11 C
2502 12-08-2019 05:00:00 12.675 C 95.0000 % 11.9 C
2503 12-08-2019 06:00:00 12.69167 C 95.5833 % 12 C
2504 12-08-2019 07:00:00 13.05833 C 96.0000 % 12.44 C
2505 12-08-2019 08:00:00 13.5 C 96.0000 % 12.87 C
2506 12-08-2019 09:00:00 15.05 C 92.5833 % 13.86 C
2507 12-08-2019 10:00:00 17.65 C 82.5000 % 14.63 C
2508 12-08-2019 11:00:00 20.08333 C 72.5833 % 15.01 C
2509 12-08-2019 12:00:00 21.275 C 65.6667 % 14.59 C
2510 12-08-2019 13:00:00 21.775 C 60.7500 % 13.86 C
2511 12-08-2019 14:00:00 22.55 C 60.2500 % 14.46 C
2512 12-08-2019 15:00:00 23.475 C 55.5833 % 14.08 C
2513 12-08-2019 16:00:00 22.54167 C 58.5000 % 14 C
2514 12-08-2019 17:00:00 17.89167 C 77.2500 % 13.85 C
2515 12-08-2019 18:00:00 15.925 C 90.0000 % 14.29 C
2516 12-08-2019 19:00:00 15.925 C 92.0000 % 14.63 C
2517 12-08-2019 20:00:00 15.54167 C 92.1667 % 14.28 C
2518 12-08-2019 21:00:00 15.19167 C 93.5833 % 14.16 C
2519 12-08-2019 22:00:00 14.975 C 94.0000 % 14.02 C
2520 12-08-2019 23:00:00 14.01667 C 92.6667 % 12.85 C
2521 13-08-2019 00:00:00 13.55833 C 94.2500 % 12.65 C
2522 13-08-2019 01:00:00 13.025 C 94.2500 % 12.12 C
2523 13-08-2019 02:00:00 12.83333 C 95.2500 % 12.09 C
2524 13-08-2019 03:00:00 12.9 C 95.5833 % 12.21 C
2525 13-08-2019 04:00:00 13.275 C 95.8333 % 12.62 C
Sensor: Nr:Datum:Temp:Feuchte:Taupunkt:
Aussen-T/F 2526 13-08-2019 05:00:00 13.18333 C 95.0000 % 12.4 C
2527 13-08-2019 06:00:00 12.75 C 95.1667 % 12 C
2528 13-08-2019 07:00:00 12.9 C 95.2500 % 12.16 C
2529 13-08-2019 08:00:00 13.39167 C 92.7500 % 12.24 C
2530 13-08-2019 09:00:00 14.85 C 86.8333 % 12.68 C
2531 13-08-2019 10:00:00 16.225 C 74.6667 % 11.72 C
2532 13-08-2019 11:00:00 17.175 C 67.2500 % 11.06 C
2533 13-08-2019 12:00:00 18.13333 C 63.4167 % 11.08 C
2534 13-08-2019 13:00:00 19.025 C 55.6667 % 9.97 C
2535 13-08-2019 14:00:00 19.875 C 52.8333 % 9.97 C
2536 13-08-2019 15:00:00 21.275 C 50.3333 % 10.54 C
2537 13-08-2019 16:00:00 21.38333 C 50.9167 % 10.81 C
2538 13-08-2019 17:00:00 21.25833 C 50.5000 % 10.57 C
2539 13-08-2019 18:00:00 21.175 C 51.8333 % 10.89 C
2540 13-08-2019 19:00:00 18.53333 C 64.7500 % 11.78 C
2541 13-08-2019 20:00:00 14.91667 C 86.6667 % 12.71 C
2542 13-08-2019 21:00:00 13.99167 C 91.3333 % 12.6 C
2543 13-08-2019 22:00:00 13.63333 C 92.5833 % 12.45 C
2544 13-08-2019 23:00:00 13.36667 C 93.0000 % 12.26 C
2545 14-08-2019 00:00:00 13.05 C 93.0833 % 11.96 C
2546 14-08-2019 01:00:00 12.61667 C 93.1667 % 11.54 C
2547 14-08-2019 02:00:00 12.10833 C 93.1667 % 11.04 C
2548 14-08-2019 03:00:00 11.93333 C 94.0000 % 11 C
2549 14-08-2019 04:00:00 11.43333 C 94.0833 % 10.52 C
2550 14-08-2019 05:00:00 11.00833 C 95.0000 % 10.24 C
Sensor: Nr:Datum:Temp:Feuchte:Taupunkt:
Aussen-T/F 2551 14-08-2019 06:00:00 10.61667 C 95.1667 % 9.88 C
2552 14-08-2019 07:00:00 10.61667 C 96.0000 % 10.01 C
2553 14-08-2019 08:00:00 11.4 C 96.3333 % 10.84 C
2554 14-08-2019 09:00:00 13.28333 C 93.5000 % 12.26 C
2555 14-08-2019 10:00:00 14.26667 C 91.8333 % 12.96 C
2556 14-08-2019 11:00:00 15.66667 C 83.2500 % 12.84 C
2557 14-08-2019 12:00:00 18.1 C 62.7500 % 10.89 C
2558 14-08-2019 13:00:00 19.59167 C 55.0000 % 10.31 C
2559 14-08-2019 14:00:00 21.08333 C 50.1667 % 10.31 C
2560 14-08-2019 15:00:00 22.60833 C 49.2500 % 11.44 C
2561 14-08-2019 16:00:00 23.74167 C 46.2500 % 11.52 C
2562 14-08-2019 17:00:00 24.44167 C 44.7500 % 11.66 C
2563 14-08-2019 18:00:00 24 C 46.7500 % 11.92 C
2564 14-08-2019 19:00:00 22.31667 C 56.5000 % 13.25 C
2565 14-08-2019 20:00:00 19.675 C 67.5833 % 13.51 C
2566 14-08-2019 21:00:00 18.1 C 74.0833 % 13.41 C
2567 14-08-2019 22:00:00 17.63333 C 76.1667 % 13.39 C
2568 14-08-2019 23:00:00 17.4 C 76.5000 % 13.23 C
2569 15-08-2019 00:00:00 17.35833 C 76.5833 % 13.21 C
2570 15-08-2019 01:00:00 17.38333 C 77.5000 % 13.41 C
2571 15-08-2019 02:00:00 16.2 C 88.4167 % 14.28 C
2572 15-08-2019 03:00:00 15.275 C 92.4167 % 14.05 C
2573 15-08-2019 04:00:00 14.90833 C 93.6667 % 13.9 C
2574 15-08-2019 05:00:00 14.84167 C 94.1667 % 13.91 C
2575 15-08-2019 06:00:00 14.96667 C 94.8333 % 14.15 C
Sensor: Nr:Datum:Temp:Feuchte:Taupunkt:
Aussen-T/F 2576 15-08-2019 07:00:00 15.6 C 92.3333 % 14.36 C
2577 15-08-2019 08:00:00 17.59167 C 83.9167 % 14.84 C
2578 15-08-2019 09:00:00 18.48333 C 81.5000 % 15.26 C
2579 15-08-2019 10:00:00 19.14167 C 81.0000 % 15.8 C
2580 15-08-2019 11:00:00 19.28333 C 81.5833 % 16.05 C
2581 15-08-2019 12:00:00 19.90833 C 79.6667 % 16.29 C
2582 15-08-2019 13:00:00 18.94167 C 88.6667 % 17.03 C
2583 15-08-2019 14:00:00 19.73333 C 86.0000 % 17.32 C
2584 15-08-2019 15:00:00 20.79167 C 81.3333 % 17.48 C
2585 15-08-2019 16:00:00 19.325 C 89.5833 % 17.57 C
2586 15-08-2019 17:00:00 17.3 C 92.9167 % 16.14 C
2587 15-08-2019 18:00:00 16.975 C 94.1667 % 16.03 C
2588 15-08-2019 19:00:00 17.25 C 94.5833 % 16.37 C
2589 15-08-2019 20:00:00 17.09167 C 94.5833 % 16.22 C
2590 15-08-2019 21:00:00 16.40833 C 94.7500 % 15.56 C
2591 15-08-2019 22:00:00 15.93333 C 94.5833 % 15.06 C
2592 15-08-2019 23:00:00 15.54167 C 95.0000 % 14.74 C
2593 16-08-2019 00:00:00 15.29167 C 95.0833 % 14.51 C
2594 16-08-2019 01:00:00 14.63333 C 95.2500 % 13.88 C
2595 16-08-2019 02:00:00 14.575 C 96.0000 % 13.94 C
2596 16-08-2019 03:00:00 14.64167 C 96.0000 % 14.01 C
2597 16-08-2019 04:00:00 14.08333 C 96.0000 % 13.46 C
2598 16-08-2019 05:00:00 13.575 C 96.2500 % 12.99 C
2599 16-08-2019 06:00:00 13.69167 C 97.0000 % 13.22 C
2600 16-08-2019 07:00:00 14.18333 C 96.5833 % 13.65 C
Sensor: Nr:Datum:Temp:Feuchte:Taupunkt:
Aussen-T/F 2601 16-08-2019 08:00:00 14.45833 C 95.0833 % 13.68 C
2602 16-08-2019 09:00:00 15.54167 C 89.7500 % 13.87 C
2603 16-08-2019 10:00:00 16.26667 C 85.7500 % 13.88 C
2604 16-08-2019 11:00:00 17.1 C 82.4167 % 14.08 C
2605 16-08-2019 12:00:00 18.43333 C 76.4167 % 14.21 C
2606 16-08-2019 13:00:00 19.65 C 70.7500 % 14.19 C
2607 16-08-2019 14:00:00 20.4 C 67.6667 % 14.22 C
2608 16-08-2019 15:00:00 21.90833 C 61.0000 % 14.05 C
2609 16-08-2019 16:00:00 23.63333 C 54.5000 % 13.92 C
2610 16-08-2019 17:00:00 24.475 C 51.8333 % 13.93 C
2611 16-08-2019 18:00:00 24.43333 C 52.0833 % 13.96 C
2612 16-08-2019 19:00:00 23.41667 C 58.1667 % 14.73 C
2613 16-08-2019 20:00:00 20.075 C 71.5833 % 14.78 C
2614 16-08-2019 21:00:00 17.75833 C 80.3333 % 14.33 C
2615 16-08-2019 22:00:00 16.88333 C 84.8333 % 14.32 C
2616 16-08-2019 23:00:00 16.23333 C 86.5833 % 13.99 C
2617 17-08-2019 00:00:00 15.69167 C 87.8333 % 13.68 C
2618 17-08-2019 01:00:00 15.86667 C 88.2500 % 13.93 C
2619 17-08-2019 02:00:00 15.76667 C 88.6667 % 13.9 C
2620 17-08-2019 03:00:00 15.76667 C 91.0833 % 14.32 C
2621 17-08-2019 04:00:00 15.69167 C 93.2500 % 14.6 C
2622 17-08-2019 05:00:00 15.63333 C 94.0000 % 14.67 C
2623 17-08-2019 06:00:00 15.65833 C 94.0000 % 14.7 C
2624 17-08-2019 07:00:00 16.13333 C 94.0000 % 15.17 C
2625 17-08-2019 08:00:00 16.95833 C 90.7500 % 15.44 C
Sensor: Nr:Datum:Temp:Feuchte:Taupunkt:
Aussen-T/F 2626 17-08-2019 09:00:00 18.66667 C 80.1667 % 15.18 C
2627 17-08-2019 10:00:00 19.01667 C 81.0833 % 15.7 C
2628 17-08-2019 11:00:00 18.59167 C 86.8333 % 16.36 C
2629 17-08-2019 12:00:00 19.275 C 85.1667 % 16.72 C
2630 17-08-2019 13:00:00 20.68333 C 76.3333 % 16.37 C
2631 17-08-2019 14:00:00 21 C 74.9167 % 16.38 C
2632 17-08-2019 15:00:00 21.31667 C 74.8333 % 16.67 C
2633 17-08-2019 16:00:00 21 C 75.9167 % 16.59 C
2634 17-08-2019 17:00:00 20.44167 C 77.9167 % 16.46 C
2635 17-08-2019 18:00:00 19.975 C 83.0833 % 17.02 C
2636 17-08-2019 19:00:00 19.125 C 88.2500 % 17.13 C
2637 17-08-2019 20:00:00 18.325 C 91.0833 % 16.84 C
2638 17-08-2019 21:00:00 17.84167 C 92.6667 % 16.64 C
2639 17-08-2019 22:00:00 17.74167 C 94.0000 % 16.76 C
2640 17-08-2019 23:00:00 17.525 C 94.6667 % 16.66 C
2641 18-08-2019 00:00:00 17.4 C 95.0000 % 16.59 C
2642 18-08-2019 01:00:00 17.38333 C 95.5833 % 16.67 C
2643 18-08-2019 02:00:00 17.225 C 96.0000 % 16.58 C
2644 18-08-2019 03:00:00 17.2 C 96.0000 % 16.56 C
2645 18-08-2019 04:00:00 17.18333 C 96.0000 % 16.54 C
2646 18-08-2019 05:00:00 17.3 C 96.7500 % 16.78 C
2647 18-08-2019 06:00:00 17.26667 C 97.0000 % 16.79 C
2648 18-08-2019 07:00:00 17.34167 C 97.0000 % 16.86 C
2649 18-08-2019 08:00:00 17.93333 C 97.0000 % 17.45 C
2650 18-08-2019 09:00:00 18.85833 C 97.2500 % 18.41 C
Sensor: Nr:Datum:Temp:Feuchte:Taupunkt:
Aussen-T/F 2651 18-08-2019 10:00:00 19.93333 C 97.4167 % 19.51 C
2652 18-08-2019 11:00:00 22.19167 C 92.0833 % 20.84 C
2653 18-08-2019 12:00:00 24.075 C 77.7500 % 19.95 C
2654 18-08-2019 13:00:00 24.4 C 75.8333 % 19.86 C
2655 18-08-2019 14:00:00 24.725 C 74.8333 % 19.96 C
2656 18-08-2019 15:00:00 24.7 C 75.8333 % 20.15 C
2657 18-08-2019 16:00:00 24.99167 C 72.7500 % 19.76 C
2658 18-08-2019 17:00:00 24.35 C 72.7500 % 19.14 C
2659 18-08-2019 18:00:00 20.49167 C 91.6667 % 19.09 C
2660 18-08-2019 19:00:00 20.00833 C 93.8333 % 18.98 C
2661 18-08-2019 20:00:00 19.45833 C 94.6667 % 18.58 C
2662 18-08-2019 21:00:00 18.8 C 94.3333 % 17.87 C
2663 18-08-2019 22:00:00 17.65 C 94.5000 % 16.76 C
2664 18-08-2019 23:00:00 16.59167 C 95.0000 % 15.79 C
2665 19-08-2019 00:00:00 16.14167 C 96.0000 % 15.5 C
2666 19-08-2019 01:00:00 16.10833 C 96.0000 % 15.47 C
2667 19-08-2019 02:00:00 15.81667 C 96.0000 % 15.18 C
2668 19-08-2019 03:00:00 15.38333 C 96.0833 % 14.76 C
2669 19-08-2019 04:00:00 14.78333 C 96.1667 % 14.18 C
2670 19-08-2019 05:00:00 15.125 C 97.0000 % 14.65 C
2671 19-08-2019 06:00:00 14.61667 C 96.8333 % 14.12 C
2672 19-08-2019 07:00:00 15.025 C 97.1667 % 14.58 C
2673 19-08-2019 08:00:00 15.65833 C 97.0000 % 15.18 C
2674 19-08-2019 09:00:00 15.89167 C 96.5833 % 15.35 C
2675 19-08-2019 10:00:00 16.63333 C 87.6667 % 14.58 C
Sensor: Nr:Datum:Temp:Feuchte:Taupunkt:
Aussen-T/F 2676 19-08-2019 11:00:00 18.55833 C 74.7500 % 13.99 C
2677 19-08-2019 12:00:00 20.275 C 64.5000 % 13.37 C
2678 19-08-2019 13:00:00 21.525 C 58.3333 % 13 C
2679 19-08-2019 14:00:00 22.79167 C 53.8333 % 12.96 C
2680 19-08-2019 15:00:00 23.46667 C 50.6667 % 12.65 C
2681 19-08-2019 16:00:00 23.78333 C 50.6667 % 12.94 C
2682 19-08-2019 17:00:00 24.025 C 48.4167 % 12.47 C
2683 19-08-2019 18:00:00 23.51667 C 50.5000 % 12.65 C
2684 19-08-2019 19:00:00 22.95833 C 56.3333 % 13.81 C
2685 19-08-2019 20:00:00 19.71667 C 69.6667 % 14.02 C
2686 19-08-2019 21:00:00 17.30833 C 74.8333 % 12.8 C
2687 19-08-2019 22:00:00 16.51667 C 80.3333 % 13.12 C
2688 19-08-2019 23:00:00 15.21667 C 83.5833 % 12.46 C
2689 20-08-2019 00:00:00 13.975 C 86.5833 % 11.77 C
2690 20-08-2019 01:00:00 13.21667 C 88.4167 % 11.35 C
2691 20-08-2019 02:00:00 12.825 C 89.9167 % 11.21 C
2692 20-08-2019 03:00:00 12.21667 C 90.6667 % 10.74 C
2693 20-08-2019 04:00:00 11.34167 C 92.5000 % 10.17 C
2694 20-08-2019 05:00:00 10.9 C 93.6667 % 9.92 C
2695 20-08-2019 06:00:00 10.425 C 94.5000 % 9.58 C
2696 20-08-2019 07:00:00 10.78333 C 95.3333 % 10.07 C
2697 20-08-2019 08:00:00 11.425 C 95.5833 % 10.74 C
2698 20-08-2019 09:00:00 12.61667 C 95.0833 % 11.85 C
2699 20-08-2019 10:00:00 15.26667 C 86.0000 % 12.94 C
2700 20-08-2019 11:00:00 17.375 C 73.5833 % 12.61 C
Sensor: Nr:Datum:Temp:Feuchte:Taupunkt:
Aussen-T/F 2701 20-08-2019 12:00:00 18.625 C 66.8333 % 12.34 C
2702 20-08-2019 13:00:00 19.525 C 62.1667 % 12.1 C
2703 20-08-2019 14:00:00 20.43333 C 57.3333 % 11.72 C
2704 20-08-2019 15:00:00 21.10833 C 56.2500 % 12.06 C
2705 20-08-2019 16:00:00 21.41667 C 58.8333 % 13.03 C
2706 20-08-2019 17:00:00 20.68333 C 64.4167 % 13.73 C
2707 20-08-2019 18:00:00 20.375 C 73.9167 % 15.57 C
2708 20-08-2019 19:00:00 18.88333 C 74.8333 % 14.32 C
2709 20-08-2019 20:00:00 17.58333 C 75.7500 % 13.26 C
2710 20-08-2019 21:00:00 16.76667 C 79.9167 % 13.28 C
2711 20-08-2019 22:00:00 15.925 C 83.7500 % 13.18 C
2712 20-08-2019 23:00:00 15.175 C 85.0000 % 12.67 C
2713 21-08-2019 00:00:00 14.11667 C 87.1667 % 12.02 C
2714 21-08-2019 01:00:00 13.55833 C 88.7500 % 11.74 C
2715 21-08-2019 02:00:00 12.65833 C 90.7500 % 11.19 C
2716 21-08-2019 03:00:00 11.99167 C 92.5000 % 10.81 C
2717 21-08-2019 04:00:00 11.30833 C 93.5000 % 10.3 C
2718 21-08-2019 05:00:00 10.73333 C 94.0000 % 9.81 C
2719 21-08-2019 06:00:00 10.325 C 94.9167 % 9.55 C
2720 21-08-2019 07:00:00 10.35833 C 95.3333 % 9.65 C
2721 21-08-2019 08:00:00 10.85833 C 96.0000 % 10.25 C
2722 21-08-2019 09:00:00 11.86667 C 96.0833 % 11.26 C
2723 21-08-2019 10:00:00 13.33333 C 96.2500 % 12.75 C
2724 21-08-2019 11:00:00 15.80833 C 90.0833 % 14.19 C
2725 21-08-2019 12:00:00 18.54167 C 73.0000 % 13.61 C
Sensor: Nr:Datum:Temp:Feuchte:Taupunkt:
Aussen-T/F 2726 21-08-2019 13:00:00 20.375 C 58.0000 % 11.84 C
2727 21-08-2019 14:00:00 21.79167 C 52.3333 % 11.6 C
2728 21-08-2019 15:00:00 22.95833 C 50.2500 % 12.06 C
2729 21-08-2019 16:00:00 24.475 C 42.0000 % 10.73 C
2730 21-08-2019 17:00:00 24.65 C 41.6667 % 10.77 C
2731 21-08-2019 18:00:00 24.64167 C 44.3333 % 11.7 C
2732 21-08-2019 19:00:00 23.46667 C 55.0000 % 13.91 C
2733 21-08-2019 20:00:00 19.875 C 64.6667 % 13.03 C
2734 21-08-2019 21:00:00 17.49167 C 66.9167 % 11.28 C
2735 21-08-2019 22:00:00 16.29167 C 69.1667 % 10.64 C
2736 21-08-2019 23:00:00 15.05833 C 77.6667 % 11.19 C
2737 22-08-2019 00:00:00 13.475 C 83.5000 % 10.74 C
2738 22-08-2019 01:00:00 12.41667 C 86.0000 % 10.14 C
2739 22-08-2019 02:00:00 11.66667 C 88.5833 % 9.85 C
2740 22-08-2019 03:00:00 11.125 C 90.4167 % 9.62 C
2741 22-08-2019 04:00:00 10.55833 C 91.6667 % 9.26 C
2742 22-08-2019 05:00:00 9.99167 C 92.6667 % 8.86 C
2743 22-08-2019 06:00:00 9.71667 C 93.7500 % 8.76 C
2744 22-08-2019 07:00:00 9.7 C 94.6667 % 8.89 C
2745 22-08-2019 08:00:00 10.30833 C 95.3333 % 9.6 C
2746 22-08-2019 09:00:00 11.525 C 96.0000 % 10.91 C
2747 22-08-2019 10:00:00 13.51667 C 94.5833 % 12.66 C
2748 22-08-2019 11:00:00 16.925 C 82.4167 % 13.91 C
2749 22-08-2019 12:00:00 20.11667 C 65.8333 % 13.53 C
2750 22-08-2019 13:00:00 22.71667 C 53.8333 % 12.89 C
Sensor: Nr:Datum:Temp:Feuchte:Taupunkt:
Aussen-T/F 2751 22-08-2019 14:00:00 24.08333 C 48.0000 % 12.39 C
2752 22-08-2019 15:00:00 25.89167 C 40.9167 % 11.61 C
2753 22-08-2019 16:00:00 27.33333 C 37.2500 % 11.47 C
2754 22-08-2019 17:00:00 28.01667 C 34.5833 % 10.95 C
2755 22-08-2019 18:00:00 28.38333 C 34.8333 % 11.38 C
2756 22-08-2019 19:00:00 26.06667 C 49.0000 % 14.52 C
2757 22-08-2019 20:00:00 21.49167 C 58.5833 % 13.04 C
2758 22-08-2019 21:00:00 18.25 C 68.9167 % 12.45 C
2759 22-08-2019 22:00:00 16.40833 C 75.9167 % 12.15 C
2760 22-08-2019 23:00:00 14.90833 C 79.3333 % 11.37 C
2761 23-08-2019 00:00:00 13.94167 C 82.9167 % 11.09 C
2762 23-08-2019 01:00:00 13.26667 C 85.0833 % 10.82 C
2763 23-08-2019 02:00:00 12.775 C 86.9167 % 10.65 C
2764 23-08-2019 03:00:00 11.975 C 89.1667 % 10.25 C
2765 23-08-2019 04:00:00 11.56667 C 91.0833 % 10.16 C
2766 23-08-2019 05:00:00 11.06667 C 91.9167 % 9.8 C
2767 23-08-2019 06:00:00 10.66667 C 93.2500 % 9.62 C
2768 23-08-2019 07:00:00 10.7 C 94.1667 % 9.8 C
2769 23-08-2019 08:00:00 11.3 C 94.9167 % 10.52 C
2770 23-08-2019 09:00:00 12.35 C 95.0000 % 11.57 C
2771 23-08-2019 10:00:00 14.34167 C 94.0833 % 13.4 C
2772 23-08-2019 11:00:00 17.6 C 85.0000 % 15.05 C
2773 23-08-2019 12:00:00 21.16667 C 69.0000 % 15.26 C
2774 23-08-2019 13:00:00 24.1 C 50.8333 % 13.28 C
2775 23-08-2019 14:00:00 26.13333 C 42.2500 % 12.31 C
Sensor: Nr:Datum:Temp:Feuchte:Taupunkt:
Aussen-T/F 2776 23-08-2019 15:00:00 27.85833 C 38.2500 % 12.34 C
2777 23-08-2019 16:00:00 29.15 C 34.9167 % 12.09 C
2778 23-08-2019 17:00:00 29.375 C 34.0000 % 11.88 C
2779 23-08-2019 18:00:00 28.94167 C 33.0833 % 11.09 C
2780 23-08-2019 19:00:00 27.20833 C 46.3333 % 14.7 C
2781 23-08-2019 20:00:00 23.01667 C 55.5000 % 13.63 C
2782 23-08-2019 21:00:00 20.16667 C 65.0000 % 13.38 C
2783 23-08-2019 22:00:00 17.85 C 72.8333 % 12.91 C
2784 23-08-2019 23:00:00 16.23333 C 76.7500 % 12.15 C
2785 24-08-2019 00:00:00 14.96667 C 80.7500 % 11.69 C
2786 24-08-2019 01:00:00 14.05833 C 84.5000 % 11.49 C
2787 24-08-2019 02:00:00 13.425 C 86.5000 % 11.22 C
2788 24-08-2019 03:00:00 12.7 C 88.7500 % 10.89 C
2789 24-08-2019 04:00:00 12.06667 C 90.3333 % 10.53 C
2790 24-08-2019 05:00:00 11.66667 C 91.7500 % 10.37 C
2791 24-08-2019 06:00:00 11.425 C 92.8333 % 10.31 C
2792 24-08-2019 07:00:00 11.575 C 94.0000 % 10.64 C
2793 24-08-2019 08:00:00 12.06667 C 94.1667 % 11.16 C
2794 24-08-2019 09:00:00 13.23333 C 94.0000 % 12.29 C
2795 24-08-2019 10:00:00 15.5 C 91.5000 % 14.12 C
2796 24-08-2019 11:00:00 18.88333 C 79.6667 % 15.29 C
2797 24-08-2019 12:00:00 22.24167 C 66.0833 % 15.61 C
2798 24-08-2019 13:00:00 25.4 C 52.1667 % 14.88 C
2799 24-08-2019 14:00:00 27.05 C 43.6667 % 13.64 C
2800 24-08-2019 15:00:00 28.69167 C 37.6667 % 12.84 C
Sensor: Nr:Datum:Temp:Feuchte:Taupunkt:
Aussen-T/F 2801 24-08-2019 16:00:00 29.81667 C 34.4167 % 12.45 C
2802 24-08-2019 17:00:00 30.29167 C 32.7500 % 12.11 C
2803 24-08-2019 18:00:00 30.66667 C 34.8333 % 13.38 C
2804 24-08-2019 19:00:00 28.56667 C 48.9167 % 16.78 C
2805 24-08-2019 20:00:00 24.29167 C 59.2500 % 15.83 C
2806 24-08-2019 21:00:00 22.01667 C 66.2500 % 15.43 C
2807 24-08-2019 22:00:00 19.78333 C 74.0833 % 15.03 C
2808 24-08-2019 23:00:00 18.175 C 78.3333 % 14.34 C
2809 25-08-2019 00:00:00 17.35833 C 81.7500 % 14.21 C
2810 25-08-2019 01:00:00 16.96667 C 82.7500 % 14.01 C
2811 25-08-2019 02:00:00 16.15833 C 85.2500 % 13.68 C
2812 25-08-2019 03:00:00 15.53333 C 88.0000 % 13.55 C
2813 25-08-2019 04:00:00 15.19167 C 88.4167 % 13.29 C
2814 25-08-2019 05:00:00 14.65833 C 89.8333 % 13.01 C
2815 25-08-2019 06:00:00 14.41667 C 90.8333 % 12.94 C
2816 25-08-2019 07:00:00 14.80833 C 91.4167 % 13.42 C
2817 25-08-2019 08:00:00 15.84167 C 90.5000 % 14.29 C
2818 25-08-2019 09:00:00 17.2 C 88.3333 % 15.25 C
2819 25-08-2019 10:00:00 18.78333 C 84.6667 % 16.15 C
2820 25-08-2019 11:00:00 21.64167 C 77.4167 % 17.52 C
2821 25-08-2019 12:00:00 24.54167 C 70.0000 % 18.71 C
2822 25-08-2019 13:00:00 26.76667 C 62.9167 % 19.11 C
2823 25-08-2019 14:00:00 28.375 C 57.0000 % 19.03 C
2824 25-08-2019 15:00:00 30.28333 C 51.4167 % 19.14 C
2825 25-08-2019 16:00:00 31.18333 C 49.6667 % 19.41 C
Sensor: Nr:Datum:Temp:Feuchte:Taupunkt:
Aussen-T/F 2826 25-08-2019 17:00:00 32.3 C 47.0000 % 19.54 C
2827 25-08-2019 18:00:00 30.05 C 52.9167 % 19.39 C
2828 25-08-2019 19:00:00 27.125 C 63.3333 % 19.55 C
2829 25-08-2019 20:00:00 24.31667 C 71.4167 % 18.81 C
2830 25-08-2019 21:00:00 22.98333 C 77.1667 % 18.77 C
2831 25-08-2019 22:00:00 21.19167 C 82.4167 % 18.08 C
2832 25-08-2019 23:00:00 20.10833 C 85.4167 % 17.58 C
2833 26-08-2019 00:00:00 19.475 C 88.0833 % 17.45 C
2834 26-08-2019 01:00:00 19.14167 C 89.1667 % 17.31 C
2835 26-08-2019 02:00:00 18.53333 C 90.7500 % 16.99 C
2836 26-08-2019 03:00:00 18.025 C 91.6667 % 16.65 C
2837 26-08-2019 04:00:00 17.41667 C 93.0000 % 16.27 C
2838 26-08-2019 05:00:00 17.14167 C 94.1667 % 16.2 C
2839 26-08-2019 06:00:00 16.76667 C 94.3333 % 15.85 C
2840 26-08-2019 07:00:00 16.71667 C 95.2500 % 15.95 C
2841 26-08-2019 08:00:00 17.475 C 96.0000 % 16.83 C
2842 26-08-2019 09:00:00 18.55 C 95.8333 % 17.87 C
2843 26-08-2019 10:00:00 20.15833 C 92.4167 % 18.89 C
2844 26-08-2019 11:00:00 22.95 C 83.6667 % 20.04 C
2845 26-08-2019 12:00:00 25.70833 C 72.8333 % 20.46 C
2846 26-08-2019 13:00:00 28.3 C 60.3333 % 19.88 C
2847 26-08-2019 14:00:00 30.01667 C 52.6667 % 19.29 C
2848 26-08-2019 15:00:00 30.85833 C 50.5000 % 19.38 C
2849 26-08-2019 16:00:00 28.55 C 59.1667 % 19.8 C
2850 26-08-2019 17:00:00 27.475 C 67.2500 % 20.86 C
Sensor: Nr:Datum:Temp:Feuchte:Taupunkt:
Aussen-T/F 2851 26-08-2019 18:00:00 27.10833 C 70.0833 % 21.18 C
2852 26-08-2019 19:00:00 28.06667 C 66.0000 % 21.11 C
2853 26-08-2019 20:00:00 24.69167 C 73.5833 % 19.65 C
2854 26-08-2019 21:00:00 22.45 C 80.5000 % 18.93 C
2855 26-08-2019 22:00:00 21.09167 C 84.7500 % 18.42 C
2856 26-08-2019 23:00:00 20.175 C 87.8333 % 18.09 C
2857 27-08-2019 00:00:00 19.40833 C 89.9167 % 17.71 C
2858 27-08-2019 01:00:00 19.01667 C 92.0000 % 17.69 C
2859 27-08-2019 02:00:00 18.39167 C 92.8333 % 17.21 C
2860 27-08-2019 03:00:00 17.91667 C 94.0833 % 16.95 C
2861 27-08-2019 04:00:00 17.55833 C 94.2500 % 16.62 C
2862 27-08-2019 05:00:00 17.15833 C 95.0000 % 16.35 C
2863 27-08-2019 06:00:00 16.79167 C 95.3333 % 16.04 C
2864 27-08-2019 07:00:00 16.85 C 96.0000 % 16.21 C
2865 27-08-2019 08:00:00 17.325 C 96.5000 % 16.76 C
2866 27-08-2019 09:00:00 18.4 C 97.0000 % 17.91 C
2867 27-08-2019 10:00:00 19.78333 C 96.0833 % 19.14 C
2868 27-08-2019 11:00:00 22.275 C 90.2500 % 20.6 C
2869 27-08-2019 12:00:00 25.41667 C 76.2500 % 20.93 C
2870 27-08-2019 13:00:00 28.99167 C 57.0000 % 19.61 C
2871 27-08-2019 14:00:00 30.54167 C 49.2500 % 18.69 C
2872 27-08-2019 15:00:00 31.89167 C 43.0833 % 17.78 C
2873 27-08-2019 16:00:00 33.23333 C 41.6667 % 18.45 C
2874 27-08-2019 17:00:00 32.29167 C 47.5000 % 19.71 C
2875 27-08-2019 18:00:00 29.55833 C 57.0833 % 20.16 C
Sensor: Nr:Datum:Temp:Feuchte:Taupunkt:
Aussen-T/F 2876 27-08-2019 19:00:00 27.7 C 63.8333 % 20.22 C
2877 27-08-2019 20:00:00 23.50833 C 81.8333 % 20.22 C
2878 27-08-2019 21:00:00 22.09167 C 84.5833 % 19.37 C
2879 27-08-2019 22:00:00 21.14167 C 86.4167 % 18.78 C
2880 27-08-2019 23:00:00 20.43333 C 88.1667 % 18.41 C
2881 28-08-2019 00:00:00 19.9 C 90.0833 % 18.23 C
2882 28-08-2019 01:00:00 19.61667 C 91.7500 % 18.24 C
2883 28-08-2019 02:00:00 19.24167 C 92.6667 % 18.02 C
2884 28-08-2019 03:00:00 18.71667 C 93.5000 % 17.65 C
2885 28-08-2019 04:00:00 18.33333 C 93.9167 % 17.34 C
2886 28-08-2019 05:00:00 17.96667 C 94.4167 % 17.06 C
2887 28-08-2019 06:00:00 18.01667 C 95.0833 % 17.22 C
2888 28-08-2019 07:00:00 17.85833 C 95.2500 % 17.09 C
2889 28-08-2019 08:00:00 18.64167 C 95.7500 % 17.95 C
2890 28-08-2019 09:00:00 19.75833 C 93.2500 % 18.64 C
2891 28-08-2019 10:00:00 22.45 C 77.7500 % 18.37 C
2892 28-08-2019 11:00:00 23.975 C 71.6667 % 18.54 C
2893 28-08-2019 12:00:00 24.49167 C 70.8333 % 18.85 C
2894 28-08-2019 13:00:00 26.54167 C 58.8333 % 17.83 C
2895 28-08-2019 14:00:00 29.44167 C 50.3333 % 18.03 C
2896 28-08-2019 15:00:00 30.35833 C 44.2500 % 16.83 C
2897 28-08-2019 16:00:00 31.55833 C 41.3333 % 16.83 C
2898 28-08-2019 17:00:00 31.80833 C 42.0000 % 17.3 C
2899 28-08-2019 18:00:00 31.18333 C 45.7500 % 18.1 C
2900 28-08-2019 19:00:00 27.875 C 52.1667 % 17.16 C
Sensor: Nr:Datum:Temp:Feuchte:Taupunkt:
Aussen-T/F 2901 28-08-2019 20:00:00 25.59167 C 56.5833 % 16.33 C
2902 28-08-2019 21:00:00 24.2 C 62.5000 % 16.59 C
2903 28-08-2019 22:00:00 22.43333 C 70.0833 % 16.71 C
2904 28-08-2019 23:00:00 21.38333 C 74.3333 % 16.63 C
2905 29-08-2019 00:00:00 20.775 C 76.8333 % 16.56 C
2906 29-08-2019 01:00:00 20.10833 C 79.0833 % 16.37 C
2907 29-08-2019 02:00:00 19.2 C 82.1667 % 16.08 C
2908 29-08-2019 03:00:00 18.225 C 84.8333 % 15.63 C
2909 29-08-2019 04:00:00 17.53333 C 88.0000 % 15.52 C
2910 29-08-2019 05:00:00 17.78333 C 89.9167 % 16.11 C
2911 29-08-2019 06:00:00 18.34167 C 89.8333 % 16.64 C
2912 29-08-2019 07:00:00 19.04167 C 89.2500 % 17.23 C
2913 29-08-2019 08:00:00 19.89167 C 87.0833 % 17.68 C
2914 29-08-2019 09:00:00 20.7 C 84.8333 % 18.06 C
2915 29-08-2019 10:00:00 21.175 C 86.5000 % 18.83 C
2916 29-08-2019 11:00:00 22.13333 C 82.5000 % 19.01 C
2917 29-08-2019 12:00:00 23.29167 C 77.6667 % 19.17 C
2918 29-08-2019 13:00:00 25.45 C 68.7500 % 19.29 C
2919 29-08-2019 14:00:00 26.78333 C 64.8333 % 19.61 C
2920 29-08-2019 15:00:00 27.53333 C 62.5833 % 19.75 C
2921 29-08-2019 16:00:00 27.875 C 59.9167 % 19.37 C
2922 29-08-2019 17:00:00 27.28333 C 60.2500 % 18.9 C
2923 29-08-2019 18:00:00 26.44167 C 60.8333 % 18.27 C
2924 29-08-2019 19:00:00 24.73333 C 64.6667 % 17.63 C
2925 29-08-2019 20:00:00 22.80833 C 70.6667 % 17.2 C
Sensor: Nr:Datum:Temp:Feuchte:Taupunkt:
Aussen-T/F 2926 29-08-2019 21:00:00 20.89167 C 76.7500 % 16.66 C
2927 29-08-2019 22:00:00 20.525 C 78.8333 % 16.72 C
2928 29-08-2019 23:00:00 20.48333 C 79.5833 % 16.83 C
2929 30-08-2019 00:00:00 20.30833 C 79.0000 % 16.55 C
2930 30-08-2019 01:00:00 19.18333 C 82.9167 % 16.21 C
2931 30-08-2019 02:00:00 18.2 C 86.0833 % 15.83 C
2932 30-08-2019 03:00:00 17.48333 C 88.4167 % 15.55 C
2933 30-08-2019 04:00:00 16.65833 C 90.0833 % 15.03 C
2934 30-08-2019 05:00:00 15.975 C 92.7500 % 14.8 C
2935 30-08-2019 06:00:00 15.91667 C 93.2500 % 14.83 C
2936 30-08-2019 07:00:00 15.41667 C 93.6667 % 14.4 C
2937 30-08-2019 08:00:00 16.09167 C 94.4167 % 15.19 C
2938 30-08-2019 09:00:00 17.96667 C 88.6667 % 16.07 C
2939 30-08-2019 10:00:00 19.41667 C 81.7500 % 16.22 C
2940 30-08-2019 11:00:00 20.825 C 76.0000 % 16.44 C
2941 30-08-2019 12:00:00 22.16667 C 72.6667 % 17.03 C
2942 30-08-2019 13:00:00 23.59167 C 68.2500 % 17.4 C
2943 30-08-2019 14:00:00 25 C 60.8333 % 16.91 C
2944 30-08-2019 15:00:00 26.16667 C 51.2500 % 15.31 C
2945 30-08-2019 16:00:00 27.98333 C 45.6667 % 15.17 C
2946 30-08-2019 17:00:00 29.66667 C 37.8333 % 13.77 C
2947 30-08-2019 18:00:00 29.54167 C 37.5833 % 13.56 C
2948 30-08-2019 19:00:00 27.175 C 47.0833 % 14.91 C
2949 30-08-2019 20:00:00 23 C 55.5833 % 13.64 C
2950 30-08-2019 21:00:00 20.38333 C 65.0833 % 13.61 C
Sensor: Nr:Datum:Temp:Feuchte:Taupunkt:
Aussen-T/F 2951 30-08-2019 22:00:00 18.64167 C 72.5833 % 13.62 C
2952 30-08-2019 23:00:00 17.38333 C 77.2500 % 13.36 C
2953 31-08-2019 00:00:00 16.65 C 81.0000 % 13.38 C
2954 31-08-2019 01:00:00 15.825 C 84.1667 % 13.16 C
2955 31-08-2019 02:00:00 15.21667 C 86.2500 % 12.94 C
2956 31-08-2019 03:00:00 14.75 C 88.5000 % 12.87 C
2957 31-08-2019 04:00:00 14.31667 C 90.1667 % 12.73 C
2958 31-08-2019 05:00:00 14.15 C 91.5833 % 12.8 C
2959 31-08-2019 06:00:00 14.1 C 92.0000 % 12.82 C
2960 31-08-2019 07:00:00 14.10833 C 92.6667 % 12.94 C
2961 31-08-2019 08:00:00 14.76667 C 92.6667 % 13.59 C
2962 31-08-2019 09:00:00 15.89167 C 92.2500 % 14.64 C
2963 31-08-2019 10:00:00 17.8 C 89.0000 % 15.96 C
2964 31-08-2019 11:00:00 20.6 C 81.2500 % 17.27 C
2965 31-08-2019 12:00:00 23.625 C 73.0833 % 18.52 C
2966 31-08-2019 13:00:00 28.49167 C 54.5833 % 18.45 C
2967 31-08-2019 14:00:00 30.36667 C 47.3333 % 17.9 C
2968 31-08-2019 15:00:00 31.43333 C 43.3333 % 17.46 C
2969 31-08-2019 16:00:00 32.48333 C 42.3333 % 18.03 C
2970 31-08-2019 17:00:00 33.89167 C 39.8333 % 18.32 C
2971 31-08-2019 18:00:00 33.71667 C 40.0000 % 18.23 C
2972 31-08-2019 19:00:00 31.13333 C 48.8333 % 19.1 C
2973 31-08-2019 20:00:00 25.89167 C 60.0000 % 17.53 C
2974 31-08-2019 21:00:00 24.875 C 62.0000 % 17.09 C
2975 31-08-2019 22:00:00 24.58333 C 70.5000 % 18.86 C
Sensor: Nr:Datum:Temp:Feuchte:Taupunkt:
Aussen-T/F 2976 31-08-2019 23:00:00 20.69167 C 87.5833 % 18.56 C
2977 01-09-2019 00:00:00 19.66667 C 91.2500 % 18.2 C
2978 01-09-2019 01:00:00 19.34167 C 90.9167 % 17.82 C
2979 01-09-2019 02:00:00 19.10833 C 85.9167 % 16.7 C
2980 01-09-2019 03:00:00 18.325 C 84.0833 % 15.59 C
2981 01-09-2019 04:00:00 17.88333 C 80.1667 % 14.42 C
2982 01-09-2019 05:00:00 17.84167 C 79.0833 % 14.17 C
2983 01-09-2019 06:00:00 17.30833 C 79.5833 % 13.75 C
2984 01-09-2019 07:00:00 16.1 C 85.6667 % 13.7 C
2985 01-09-2019 08:00:00 17.48333 C 82.5833 % 14.49 C
2986 01-09-2019 09:00:00 18.13333 C 80.5000 % 14.73 C
2987 01-09-2019 10:00:00 19.10833 C 76.5000 % 14.88 C
2988 01-09-2019 11:00:00 20.025 C 74.2500 % 15.3 C
2989 01-09-2019 12:00:00 20.05 C 74.8333 % 15.45 C
2990 01-09-2019 13:00:00 19.69167 C 77.9167 % 15.73 C
2991 01-09-2019 14:00:00 20.075 C 75.6667 % 15.65 C
2992 01-09-2019 15:00:00 20.61667 C 71.6667 % 15.32 C
2993 01-09-2019 16:00:00 20.38333 C 68.0000 % 14.28 C
2994 01-09-2019 17:00:00 19.975 C 65.4167 % 13.3 C
2995 01-09-2019 18:00:00 20.75833 C 60.5833 % 12.86 C
2996 01-09-2019 19:00:00 20.60833 C 57.9167 % 12.04 C
2997 01-09-2019 20:00:00 18.38333 C 66.5000 % 12.04 C
2998 01-09-2019 21:00:00 16.68333 C 72.3333 % 11.69 C
2999 01-09-2019 22:00:00 16.39167 C 71.4167 % 11.21 C
3000 01-09-2019 23:00:00 15.59167 C 75.0000 % 11.18 C
Sensor: Nr:Datum:Temp:Feuchte:Taupunkt:
Aussen-T/F 3001 02-09-2019 00:00:00 14.44167 C 75.5000 % 10.17 C
3002 02-09-2019 01:00:00 13.29167 C 77.8333 % 9.51 C
3003 02-09-2019 02:00:00 13.3 C 80.2500 % 9.97 C
3004 02-09-2019 03:00:00 13.025 C 82.5000 % 10.12 C
3005 02-09-2019 04:00:00 12 C 83.9167 % 9.37 C
3006 02-09-2019 05:00:00 11.21667 C 85.9167 % 8.95 C
3007 02-09-2019 06:00:00 10.15 C 89.0833 % 8.43 C
3008 02-09-2019 07:00:00 9.73333 C 91.6667 % 8.44 C
3009 02-09-2019 08:00:00 10.03333 C 92.9167 % 8.94 C
3010 02-09-2019 09:00:00 10.83333 C 92.5833 % 9.68 C
3011 02-09-2019 10:00:00 12.85833 C 88.0833 % 10.94 C
3012 02-09-2019 11:00:00 16.2 C 66.4167 % 9.94 C
3013 02-09-2019 12:00:00 17.53333 C 56.5000 % 8.8 C
3014 02-09-2019 13:00:00 18.70833 C 49.6667 % 7.98 C
3015 02-09-2019 14:00:00 19.83333 C 46.2500 % 7.97 C
3016 02-09-2019 15:00:00 20.175 C 45.2500 % 7.96 C
3017 02-09-2019 16:00:00 21.80833 C 41.5833 % 8.19 C
3018 02-09-2019 17:00:00 23.09167 C 37.9167 % 7.98 C
3019 02-09-2019 18:00:00 22.99167 C 37.3333 % 7.66 C
3020 02-09-2019 19:00:00 20.575 C 46.7500 % 8.8 C
3021 02-09-2019 20:00:00 16.9 C 56.3333 % 8.16 C
3022 02-09-2019 21:00:00 15.39167 C 60.6667 % 7.84 C
3023 02-09-2019 22:00:00 13.475 C 70.1667 % 8.15 C
3024 02-09-2019 23:00:00 12.98333 C 72.7500 % 8.21 C
3025 03-09-2019 00:00:00 12.39167 C 74.8333 % 8.06 C
Sensor: Nr:Datum:Temp:Feuchte:Taupunkt:
Aussen-T/F 3026 03-09-2019 01:00:00 12.125 C 76.5000 % 8.12 C
3027 03-09-2019 02:00:00 10.89167 C 79.0833 % 7.41 C
3028 03-09-2019 03:00:00 10.175 C 81.5833 % 7.17 C
3029 03-09-2019 04:00:00 10.08333 C 83.8333 % 7.48 C
3030 03-09-2019 05:00:00 9.45 C 85.0833 % 7.07 C
3031 03-09-2019 06:00:00 8.91667 C 87.0833 % 6.89 C
3032 03-09-2019 07:00:00 8.65833 C 88.8333 % 6.92 C
3033 03-09-2019 08:00:00 9.08333 C 89.7500 % 7.49 C
3034 03-09-2019 09:00:00 10.375 C 88.9167 % 8.63 C
3035 03-09-2019 10:00:00 13.225 C 81.5833 % 10.15 C
3036 03-09-2019 11:00:00 17.34167 C 63.2500 % 10.29 C
3037 03-09-2019 12:00:00 19.95833 C 53.5000 % 10.24 C
3038 03-09-2019 13:00:00 21.25 C 49.6667 % 10.32 C
3039 03-09-2019 14:00:00 22.64167 C 45.5000 % 10.28 C
3040 03-09-2019 15:00:00 23.75 C 45.8333 % 11.39 C
3041 03-09-2019 16:00:00 23.58333 C 49.8333 % 12.51 C
3042 03-09-2019 17:00:00 23.65 C 50.9167 % 12.9 C
3043 03-09-2019 18:00:00 23.225 C 52.5833 % 13 C
3044 03-09-2019 19:00:00 21.11667 C 58.7500 % 12.73 C
3045 03-09-2019 20:00:00 18.86667 C 65.9167 % 12.36 C
3046 03-09-2019 21:00:00 16.325 C 75.0000 % 11.89 C
3047 03-09-2019 22:00:00 15.33333 C 79.2500 % 11.76 C
3048 03-09-2019 23:00:00 14.05 C 83.3333 % 11.27 C
3049 04-09-2019 00:00:00 13.05 C 87.0000 % 10.94 C
3050 04-09-2019 01:00:00 12.35 C 89.4167 % 10.66 C
Sensor: Nr:Datum:Temp:Feuchte:Taupunkt:
Aussen-T/F 3051 04-09-2019 02:00:00 11.85833 C 90.6667 % 10.38 C
3052 04-09-2019 03:00:00 11.325 C 91.9167 % 10.06 C
3053 04-09-2019 04:00:00 10.74167 C 92.5833 % 9.59 C
3054 04-09-2019 05:00:00 10.36667 C 93.5833 % 9.38 C
3055 04-09-2019 06:00:00 10.15833 C 94.2500 % 9.28 C
3056 04-09-2019 07:00:00 10.09167 C 94.7500 % 9.29 C
3057 04-09-2019 08:00:00 10.675 C 95.3333 % 9.96 C
3058 04-09-2019 09:00:00 13.11667 C 92.2500 % 11.89 C
3059 04-09-2019 10:00:00 14.875 C 85.4167 % 12.45 C
3060 04-09-2019 11:00:00 18.09167 C 72.6667 % 13.11 C
3061 04-09-2019 12:00:00 19.78333 C 65.9167 % 13.23 C
3062 04-09-2019 13:00:00 21.16667 C 62.0000 % 13.6 C
3063 04-09-2019 14:00:00 22.59167 C 57.5833 % 13.8 C
3064 04-09-2019 15:00:00 23.85 C 53.5000 % 13.84 C
3065 04-09-2019 16:00:00 25.11667 C 50.6667 % 14.17 C
3066 04-09-2019 17:00:00 26.875 C 44.8333 % 13.89 C
3067 04-09-2019 18:00:00 25.04167 C 47.0000 % 12.95 C
3068 04-09-2019 19:00:00 23.58333 C 52.2500 % 13.23 C
3069 04-09-2019 20:00:00 19.81667 C 69.4167 % 14.06 C
3070 04-09-2019 21:00:00 17.625 C 85.0000 % 15.07 C
3071 04-09-2019 22:00:00 16.28333 C 90.3333 % 14.7 C
3072 04-09-2019 23:00:00 15.64167 C 90.9167 % 14.16 C
3073 05-09-2019 00:00:00 15.6 C 91.0000 % 14.14 C
3074 05-09-2019 01:00:00 15.41667 C 89.1667 % 13.64 C
3075 05-09-2019 02:00:00 14.29167 C 86.8333 % 12.13 C
Sensor: Nr:Datum:Temp:Feuchte:Taupunkt:
Aussen-T/F 3076 05-09-2019 03:00:00 13.975 C 86.6667 % 11.79 C
3077 05-09-2019 04:00:00 14.075 C 85.0000 % 11.59 C
3078 05-09-2019 05:00:00 13.48333 C 84.1667 % 10.87 C
3079 05-09-2019 06:00:00 12.56667 C 86.0000 % 10.29 C
3080 05-09-2019 07:00:00 12.20833 C 86.9167 % 10.1 C
3081 05-09-2019 08:00:00 12.58333 C 85.4167 % 10.2 C
3082 05-09-2019 09:00:00 13.59167 C 82.2500 % 10.63 C
3083 05-09-2019 10:00:00 15.475 C 77.3333 % 11.53 C
3084 05-09-2019 11:00:00 16.775 C 70.4167 % 11.37 C
3085 05-09-2019 12:00:00 17.09167 C 67.3333 % 11 C
3086 05-09-2019 13:00:00 18.1 C 60.9167 % 10.45 C
3087 05-09-2019 14:00:00 18.09167 C 62.9167 % 10.92 C
3088 05-09-2019 15:00:00 18.5 C 57.5833 % 9.98 C
3089 05-09-2019 16:00:00 18.91667 C 55.9167 % 9.93 C
3090 05-09-2019 17:00:00 17.225 C 63.8333 % 10.32 C
3091 05-09-2019 18:00:00 16.4 C 67.6667 % 10.41 C
3092 05-09-2019 19:00:00 16.46667 C 64.3333 % 9.72 C
3093 05-09-2019 20:00:00 15.70833 C 69.0833 % 10.06 C
3094 05-09-2019 21:00:00 14.93333 C 70.2500 % 9.57 C
3095 05-09-2019 22:00:00 14.49167 C 72.5000 % 9.61 C
3096 05-09-2019 23:00:00 13.94167 C 74.0000 % 9.39 C
3097 06-09-2019 00:00:00 12.025 C 79.8333 % 8.65 C
3098 06-09-2019 01:00:00 11.23333 C 82.8333 % 8.43 C
3099 06-09-2019 02:00:00 10.40833 C 86.5000 % 8.26 C
3100 06-09-2019 03:00:00 9.875 C 88.0833 % 8 C
Sensor: Nr:Datum:Temp:Feuchte:Taupunkt:
Aussen-T/F 3101 06-09-2019 04:00:00 9.00833 C 89.4167 % 7.36 C
3102 06-09-2019 05:00:00 8.075 C 91.5000 % 6.78 C
3103 06-09-2019 06:00:00 7.56667 C 92.7500 % 6.47 C
3104 06-09-2019 07:00:00 7.31667 C 93.6667 % 6.37 C
3105 06-09-2019 08:00:00 7.85 C 94.9167 % 7.09 C
3106 06-09-2019 09:00:00 8.75 C 95.0833 % 8.01 C
3107 06-09-2019 10:00:00 10.175 C 95.0000 % 9.41 C
3108 06-09-2019 11:00:00 12.55833 C 83.1667 % 9.78 C
3109 06-09-2019 12:00:00 15.03333 C 64.4167 % 8.38 C
3110 06-09-2019 13:00:00 16.51667 C 57.9167 % 8.21 C
3111 06-09-2019 14:00:00 18.3 C 49.5833 % 7.59 C
3112 06-09-2019 15:00:00 19.475 C 44.9167 % 7.21 C
3113 06-09-2019 16:00:00 20.7 C 39.8333 % 6.57 C
3114 06-09-2019 17:00:00 22.36667 C 37.2500 % 7.08 C
3115 06-09-2019 18:00:00 22.25 C 39.3333 % 7.77 C
3116 06-09-2019 19:00:00 19.41667 C 48.3333 % 8.23 C
3117 06-09-2019 20:00:00 16.04167 C 56.4167 % 7.38 C
3118 06-09-2019 21:00:00 14.65 C 60.5833 % 7.12 C
3119 06-09-2019 22:00:00 12.74167 C 68.5000 % 7.1 C
3120 06-09-2019 23:00:00 12.69167 C 71.4167 % 7.66 C
3121 07-09-2019 00:00:00 12.25833 C 73.7500 % 7.72 C
3122 07-09-2019 01:00:00 12.41667 C 73.6667 % 7.85 C
3123 07-09-2019 02:00:00 12.19167 C 75.0000 % 7.9 C
3124 07-09-2019 03:00:00 12.375 C 74.7500 % 8.03 C
3125 07-09-2019 04:00:00 12.69167 C 74.2500 % 8.23 C
Sensor: Nr:Datum:Temp:Feuchte:Taupunkt:
Aussen-T/F 3126 07-09-2019 05:00:00 12.64167 C 74.5833 % 8.25 C
3127 07-09-2019 06:00:00 12.29167 C 76.9167 % 8.36 C
3128 07-09-2019 07:00:00 11.96667 C 84.7500 % 9.48 C
3129 07-09-2019 08:00:00 11.78333 C 90.5000 % 10.28 C
3130 07-09-2019 09:00:00 11.80833 C 92.9167 % 10.7 C
3131 07-09-2019 10:00:00 12.225 C 94.0000 % 11.29 C
3132 07-09-2019 11:00:00 12.80833 C 93.8333 % 11.84 C
3133 07-09-2019 12:00:00 13.475 C 93.5833 % 12.46 C
3134 07-09-2019 13:00:00 14.19167 C 92.6667 % 13.02 C
3135 07-09-2019 14:00:00 14.46667 C 91.6667 % 13.13 C
3136 07-09-2019 15:00:00 14.93333 C 90.2500 % 13.35 C
3137 07-09-2019 16:00:00 15.25 C 89.3333 % 13.51 C
3138 07-09-2019 17:00:00 15.30833 C 89.2500 % 13.55 C
3139 07-09-2019 18:00:00 14.29167 C 90.7500 % 12.8 C
3140 07-09-2019 19:00:00 13.34167 C 91.4167 % 11.97 C
3141 07-09-2019 20:00:00 12.64167 C 93.0000 % 11.54 C
3142 07-09-2019 21:00:00 12.00833 C 93.3333 % 10.97 C
3143 07-09-2019 22:00:00 11.8 C 94.4167 % 10.93 C
3144 07-09-2019 23:00:00 11.725 C 95.0000 % 10.95 C
3145 08-09-2019 00:00:00 11.7 C 95.0000 % 10.93 C
3146 08-09-2019 01:00:00 11.75833 C 95.6667 % 11.09 C
3147 08-09-2019 02:00:00 11.29167 C 95.5000 % 10.6 C
3148 08-09-2019 03:00:00 11.3 C 96.0000 % 10.69 C
3149 08-09-2019 04:00:00 11.7 C 96.3333 % 11.14 C
3150 08-09-2019 05:00:00 11.90833 C 96.0000 % 11.29 C
Sensor: Nr:Datum:Temp:Feuchte:Taupunkt:
Aussen-T/F 3151 08-09-2019 06:00:00 12.075 C 96.7500 % 11.57 C
3152 08-09-2019 07:00:00 12.20833 C 96.4167 % 11.66 C
3153 08-09-2019 08:00:00 12.31667 C 96.0000 % 11.7 C
3154 08-09-2019 09:00:00 12.325 C 95.4167 % 11.61 C
3155 08-09-2019 10:00:00 12.575 C 95.6667 % 11.9 C
3156 08-09-2019 11:00:00 12.625 C 96.0000 % 12 C
3157 08-09-2019 12:00:00 12.81667 C 95.8333 % 12.17 C
3158 08-09-2019 13:00:00 13.94167 C 93.5000 % 12.91 C
3159 08-09-2019 14:00:00 14.875 C 88.3333 % 12.96 C
3160 08-09-2019 15:00:00 15.73333 C 84.0833 % 13.05 C
3161 08-09-2019 16:00:00 15.65833 C 84.8333 % 13.12 C
3162 08-09-2019 17:00:00 13.49167 C 92.6667 % 12.33 C
3163 08-09-2019 18:00:00 12.8 C 94.2500 % 11.9 C
3164 08-09-2019 19:00:00 12.96667 C 95.4167 % 12.25 C
3165 08-09-2019 20:00:00 12.56667 C 95.0833 % 11.8 C
3166 08-09-2019 21:00:00 12.1 C 95.4167 % 11.39 C
3167 08-09-2019 22:00:00 11.81667 C 96.0000 % 11.2 C
3168 08-09-2019 23:00:00 11.71667 C 96.0000 % 11.1 C
3169 09-09-2019 00:00:00 11.45 C 96.0000 % 10.84 C
3170 09-09-2019 01:00:00 11.26667 C 96.0833 % 10.67 C
3171 09-09-2019 02:00:00 11.29167 C 96.8333 % 10.81 C
3172 09-09-2019 03:00:00 11.36667 C 97.0000 % 10.91 C
3173 09-09-2019 04:00:00 11.36667 C 97.0000 % 10.91 C
3174 09-09-2019 05:00:00 11.29167 C 97.0000 % 10.83 C
3175 09-09-2019 06:00:00 11.3 C 97.0000 % 10.84 C
Sensor: Nr:Datum:Temp:Feuchte:Taupunkt:
Aussen-T/F 3176 09-09-2019 07:00:00 11.275 C 97.0000 % 10.82 C
3177 09-09-2019 08:00:00 11.39167 C 97.0000 % 10.93 C
3178 09-09-2019 09:00:00 12.01667 C 97.0000 % 11.56 C
3179 09-09-2019 10:00:00 12.23333 C 97.0000 % 11.77 C
3180 09-09-2019 11:00:00 12.55833 C 96.2500 % 11.98 C
3181 09-09-2019 12:00:00 13.15 C 91.5833 % 11.81 C
3182 09-09-2019 13:00:00 14.2 C 86.5833 % 12 C
3183 09-09-2019 14:00:00 14.81667 C 79.7500 % 11.36 C
3184 09-09-2019 15:00:00 15.175 C 80.1667 % 11.78 C
3185 09-09-2019 16:00:00 15.475 C 77.3333 % 11.53 C
3186 09-09-2019 17:00:00 15.74167 C 73.7500 % 11.07 C
3187 09-09-2019 18:00:00 16.33333 C 73.7500 % 11.64 C
3188 09-09-2019 19:00:00 14.35 C 82.0000 % 11.32 C
3189 09-09-2019 20:00:00 12.00833 C 87.7500 % 10.04 C
3190 09-09-2019 21:00:00 10.79167 C 90.6667 % 9.33 C
3191 09-09-2019 22:00:00 10.05 C 92.6667 % 8.92 C
3192 09-09-2019 23:00:00 9.30833 C 93.8333 % 8.37 C
3193 10-09-2019 00:00:00 8.75833 C 94.7500 % 7.96 C
3194 10-09-2019 01:00:00 8.44167 C 95.0833 % 7.7 C
3195 10-09-2019 02:00:00 8.3 C 95.7500 % 7.66 C
3196 10-09-2019 03:00:00 8.625 C 96.0000 % 8.02 C
3197 10-09-2019 04:00:00 8.65 C 96.0000 % 8.05 C
3198 10-09-2019 05:00:00 8.55833 C 96.1667 % 7.98 C
3199 10-09-2019 06:00:00 8.2 C 96.7500 % 7.72 C
3200 10-09-2019 07:00:00 8.225 C 97.0000 % 7.78 C
Sensor: Nr:Datum:Temp:Feuchte:Taupunkt:
Aussen-T/F 3201 10-09-2019 08:00:00 8.21667 C 97.0000 % 7.77 C
3202 10-09-2019 09:00:00 8.45833 C 97.0000 % 8.01 C
3203 10-09-2019 10:00:00 9.05 C 97.0000 % 8.6 C
3204 10-09-2019 11:00:00 9.94167 C 97.0000 % 9.49 C
3205 10-09-2019 12:00:00 11.78333 C 94.3333 % 10.9 C
3206 10-09-2019 13:00:00 14.85833 C 78.0000 % 11.06 C
3207 10-09-2019 14:00:00 17.25 C 64.2500 % 10.44 C
3208 10-09-2019 15:00:00 18.43333 C 58.3333 % 10.11 C
3209 10-09-2019 16:00:00 19.65 C 52.0000 % 9.53 C
3210 10-09-2019 17:00:00 18.38333 C 67.1667 % 12.19 C
3211 10-09-2019 18:00:00 18.33333 C 70.0000 % 12.77 C
3212 10-09-2019 19:00:00 16.4 C 72.3333 % 11.41 C
3213 10-09-2019 20:00:00 13.775 C 75.0833 % 9.44 C
3214 10-09-2019 21:00:00 12.03333 C 83.0000 % 9.24 C
3215 10-09-2019 22:00:00 10.66667 C 86.9167 % 8.58 C
3216 10-09-2019 23:00:00 9.78333 C 88.7500 % 8.02 C
3217 11-09-2019 00:00:00 9.2 C 90.0833 % 7.66 C
3218 11-09-2019 01:00:00 8.61667 C 91.3333 % 7.29 C
3219 11-09-2019 02:00:00 8.04167 C 92.7500 % 6.94 C
3220 11-09-2019 03:00:00 7.64167 C 93.5000 % 6.66 C
3221 11-09-2019 04:00:00 7.26667 C 94.0000 % 6.37 C
3222 11-09-2019 05:00:00 6.90833 C 94.7500 % 6.13 C
3223 11-09-2019 06:00:00 6.65833 C 95.0000 % 5.92 C
3224 11-09-2019 07:00:00 6.55 C 95.6667 % 5.91 C
3225 11-09-2019 08:00:00 7.99167 C 96.5000 % 7.47 C
Sensor: Nr:Datum:Temp:Feuchte:Taupunkt:
Aussen-T/F 3226 11-09-2019 09:00:00 9.51667 C 94.2500 % 8.64 C
3227 11-09-2019 10:00:00 10.85 C 93.6667 % 9.87 C
3228 11-09-2019 11:00:00 13.10833 C 88.7500 % 11.3 C
3229 11-09-2019 12:00:00 17.29167 C 66.9167 % 11.09 C
3230 11-09-2019 13:00:00 19.9 C 57.9167 % 11.38 C
3231 11-09-2019 14:00:00 20.58333 C 55.2500 % 11.3 C
3232 11-09-2019 15:00:00 20.53333 C 56.5000 % 11.59 C
3233 11-09-2019 16:00:00 20.03333 C 64.5000 % 13.14 C
3234 11-09-2019 17:00:00 19.16667 C 66.0000 % 12.67 C
3235 11-09-2019 18:00:00 18.35833 C 68.1667 % 12.39 C
3236 11-09-2019 19:00:00 17.26667 C 70.8333 % 11.93 C
3237 11-09-2019 20:00:00 16.50833 C 75.7500 % 12.22 C
3238 11-09-2019 21:00:00 16.275 C 78.0833 % 12.45 C
3239 11-09-2019 22:00:00 16.41667 C 79.1667 % 12.8 C
3240 11-09-2019 23:00:00 15.7 C 83.3333 % 12.88 C
3241 12-09-2019 00:00:00 15.51667 C 82.9167 % 12.63 C
3242 12-09-2019 01:00:00 16.14167 C 80.6667 % 12.82 C
3243 12-09-2019 02:00:00 17.23333 C 73.6667 % 12.49 C
3244 12-09-2019 03:00:00 17.24167 C 74.9167 % 12.76 C
3245 12-09-2019 04:00:00 17.05 C 76.3333 % 12.86 C
3246 12-09-2019 05:00:00 16.975 C 77.8333 % 13.08 C
3247 12-09-2019 06:00:00 16.9 C 79.2500 % 13.29 C
3248 12-09-2019 07:00:00 16.24167 C 83.4167 % 13.43 C
3249 12-09-2019 08:00:00 16.83333 C 84.1667 % 14.15 C
3250 12-09-2019 09:00:00 17.40833 C 84.5000 % 14.77 C
Sensor: Nr:Datum:Temp:Feuchte:Taupunkt:
Aussen-T/F 3251 12-09-2019 10:00:00 18.21667 C 84.0833 % 15.48 C
3252 12-09-2019 11:00:00 19.21667 C 81.9167 % 16.05 C
3253 12-09-2019 12:00:00 20.25833 C 79.4167 % 16.58 C
3254 12-09-2019 13:00:00 20.9 C 78.3333 % 16.99 C
3255 12-09-2019 14:00:00 21.38333 C 78.4167 % 17.47 C
3256 12-09-2019 15:00:00 22.25833 C 75.0000 % 17.61 C
3257 12-09-2019 16:00:00 22.95 C 71.5833 % 17.54 C
3258 12-09-2019 17:00:00 24.44167 C 64.8333 % 17.39 C
3259 12-09-2019 18:00:00 24.95833 C 63.8333 % 17.63 C
3260 12-09-2019 19:00:00 22.86667 C 69.7500 % 17.05 C
3261 12-09-2019 20:00:00 19.11667 C 81.0000 % 15.78 C
3262 12-09-2019 21:00:00 18.225 C 84.7500 % 15.62 C
3263 12-09-2019 22:00:00 18.35 C 84.0000 % 15.6 C
3264 12-09-2019 23:00:00 17.06667 C 86.7500 % 14.84 C
3265 13-09-2019 00:00:00 15.98333 C 90.0833 % 14.36 C
3266 13-09-2019 01:00:00 15.55 C 91.8333 % 14.23 C
3267 13-09-2019 02:00:00 15.25 C 92.5833 % 14.06 C
3268 13-09-2019 03:00:00 15.1 C 93.5833 % 14.07 C
3269 13-09-2019 04:00:00 15.575 C 93.4167 % 14.52 C
3270 13-09-2019 05:00:00 16.19167 C 91.0833 % 14.74 C
3271 13-09-2019 06:00:00 16.25833 C 90.9167 % 14.77 C
3272 13-09-2019 07:00:00 16.64167 C 90.0000 % 14.99 C
3273 13-09-2019 08:00:00 16.85833 C 90.6667 % 15.32 C
3274 13-09-2019 09:00:00 17.49167 C 89.3333 % 15.72 C
3275 13-09-2019 10:00:00 18.51667 C 86.0833 % 16.15 C
Sensor: Nr:Datum:Temp:Feuchte:Taupunkt:
Aussen-T/F 3276 13-09-2019 11:00:00 19.6 C 82.4167 % 16.52 C
3277 13-09-2019 12:00:00 20.35 C 79.5000 % 16.69 C
3278 13-09-2019 13:00:00 20.60833 C 77.1667 % 16.47 C
3279 13-09-2019 14:00:00 21.16667 C 75.8333 % 16.73 C
3280 13-09-2019 15:00:00 20.85833 C 77.7500 % 16.83 C
3281 13-09-2019 16:00:00 19.325 C 87.2500 % 17.15 C
3282 13-09-2019 17:00:00 19.20833 C 89.3333 % 17.41 C
3283 13-09-2019 18:00:00 20 C 89.2500 % 18.18 C
3284 13-09-2019 19:00:00 19.48333 C 86.2500 % 17.13 C
3285 13-09-2019 20:00:00 17.60833 C 91.5000 % 16.21 C
3286 13-09-2019 21:00:00 16.95 C 92.8333 % 15.78 C
3287 13-09-2019 22:00:00 16.25833 C 93.0000 % 15.12 C
3288 13-09-2019 23:00:00 15.48333 C 93.7500 % 14.48 C
3289 14-09-2019 00:00:00 15.39167 C 94.5000 % 14.51 C
3290 14-09-2019 01:00:00 14.63333 C 94.5833 % 13.77 C
3291 14-09-2019 02:00:00 13.525 C 94.5000 % 12.66 C
3292 14-09-2019 03:00:00 12.70833 C 95.0000 % 11.93 C
3293 14-09-2019 04:00:00 12.00833 C 95.5000 % 11.31 C
3294 14-09-2019 05:00:00 11.31667 C 95.8333 % 10.68 C
3295 14-09-2019 06:00:00 10.78333 C 96.0000 % 10.17 C
3296 14-09-2019 07:00:00 10.4 C 96.0000 % 9.79 C
3297 14-09-2019 08:00:00 10.40833 C 96.0000 % 9.8 C
3298 14-09-2019 09:00:00 11.00833 C 97.0000 % 10.55 C
3299 14-09-2019 10:00:00 12.25833 C 97.0000 % 11.8 C
3300 14-09-2019 11:00:00 13.69167 C 95.1667 % 12.93 C
Sensor: Nr:Datum:Temp:Feuchte:Taupunkt:
Aussen-T/F 3301 14-09-2019 12:00:00 16.14167 C 84.0000 % 13.44 C
3302 14-09-2019 13:00:00 18.675 C 70.0833 % 13.11 C
3303 14-09-2019 14:00:00 20.43333 C 62.1667 % 12.95 C
3304 14-09-2019 15:00:00 21.74167 C 55.7500 % 12.52 C
3305 14-09-2019 16:00:00 22.44167 C 52.4167 % 12.23 C
3306 14-09-2019 17:00:00 24.14167 C 46.9167 % 12.1 C
3307 14-09-2019 18:00:00 23.6 C 54.6667 % 13.94 C
3308 14-09-2019 19:00:00 19.45833 C 64.9167 % 12.69 C
3309 14-09-2019 20:00:00 16.95833 C 70.0833 % 11.47 C
3310 14-09-2019 21:00:00 15.96667 C 73.5833 % 11.25 C
3311 14-09-2019 22:00:00 13.8 C 81.2500 % 10.65 C
3312 14-09-2019 23:00:00 12.48333 C 85.4167 % 10.11 C
3313 15-09-2019 00:00:00 11.65 C 87.5000 % 9.65 C
3314 15-09-2019 01:00:00 10.825 C 89.7500 % 9.21 C
3315 15-09-2019 02:00:00 10.375 C 91.7500 % 9.09 C
3316 15-09-2019 03:00:00 10.16667 C 92.5833 % 9.02 C
3317 15-09-2019 04:00:00 9.75833 C 93.0833 % 8.7 C
3318 15-09-2019 05:00:00 9.31667 C 94.0000 % 8.4 C
3319 15-09-2019 06:00:00 8.76667 C 94.0833 % 7.87 C
3320 15-09-2019 07:00:00 8.775 C 95.0000 % 8.02 C
3321 15-09-2019 08:00:00 9.29167 C 95.9167 % 8.67 C
3322 15-09-2019 09:00:00 10.03333 C 96.0000 % 9.43 C
3323 15-09-2019 10:00:00 11.35833 C 96.0000 % 10.74 C
3324 15-09-2019 11:00:00 13.71667 C 94.7500 % 12.89 C
3325 15-09-2019 12:00:00 16.96667 C 85.3333 % 14.49 C
Sensor: Nr:Datum:Temp:Feuchte:Taupunkt:
Aussen-T/F 3326 15-09-2019 13:00:00 20.45833 C 69.8333 % 14.77 C
3327 15-09-2019 14:00:00 22.79167 C 61.0833 % 14.9 C
3328 15-09-2019 15:00:00 24.05 C 56.5833 % 14.89 C
3329 15-09-2019 16:00:00 24.65833 C 52.8333 % 14.39 C
3330 15-09-2019 17:00:00 25.84167 C 47.7500 % 13.92 C
3331 15-09-2019 18:00:00 26.43333 C 46.0000 % 13.88 C
3332 15-09-2019 19:00:00 21.96667 C 57.3333 % 13.15 C
3333 15-09-2019 20:00:00 18.225 C 63.3333 % 11.15 C
3334 15-09-2019 21:00:00 16.76667 C 67.0000 % 10.61 C
3335 15-09-2019 22:00:00 14.475 C 76.3333 % 10.37 C
3336 15-09-2019 23:00:00 12.99167 C 81.2500 % 9.86 C
3337 16-09-2019 00:00:00 12.55 C 83.7500 % 9.88 C
3338 16-09-2019 01:00:00 12.25833 C 85.5000 % 9.9 C
3339 16-09-2019 02:00:00 11.41667 C 87.8333 % 9.47 C
3340 16-09-2019 03:00:00 11.11667 C 90.1667 % 9.57 C
3341 16-09-2019 04:00:00 11.45833 C 90.4167 % 9.95 C
3342 16-09-2019 05:00:00 11.51667 C 89.6667 % 9.88 C
3343 16-09-2019 06:00:00 11.23333 C 90.7500 % 9.78 C
3344 16-09-2019 07:00:00 11.31667 C 91.5833 % 10 C
3345 16-09-2019 08:00:00 12.075 C 90.0833 % 10.5 C
3346 16-09-2019 09:00:00 13.4 C 86.1667 % 11.14 C
3347 16-09-2019 10:00:00 14.99167 C 82.0833 % 11.96 C
3348 16-09-2019 11:00:00 17.41667 C 76.0833 % 13.16 C
3349 16-09-2019 12:00:00 19.64167 C 69.0833 % 13.82 C
3350 16-09-2019 13:00:00 21.18333 C 61.5833 % 13.51 C
Sensor: Nr:Datum:Temp:Feuchte:Taupunkt:
Aussen-T/F 3351 16-09-2019 14:00:00 22.05 C 57.5000 % 13.27 C
3352 16-09-2019 15:00:00 22.075 C 59.1667 % 13.74 C
3353 16-09-2019 16:00:00 22.10833 C 55.6667 % 12.83 C
3354 16-09-2019 17:00:00 21.8 C 60.8333 % 13.91 C
3355 16-09-2019 18:00:00 20.725 C 63.2500 % 13.49 C
3356 16-09-2019 19:00:00 19.71667 C 68.0833 % 13.67 C
3357 16-09-2019 20:00:00 17.64167 C 82.8333 % 14.69 C
3358 16-09-2019 21:00:00 16.74167 C 87.9167 % 14.73 C
3359 16-09-2019 22:00:00 16.43333 C 88.5833 % 14.54 C
3360 16-09-2019 23:00:00 15.4 C 91.5833 % 14.04 C
3361 17-09-2019 00:00:00 15.05833 C 91.2500 % 13.64 C
3362 17-09-2019 01:00:00 14.81667 C 90.0833 % 13.21 C
3363 17-09-2019 02:00:00 14.66667 C 89.5833 % 12.97 C
3364 17-09-2019 03:00:00 14.54167 C 89.0000 % 12.75 C
3365 17-09-2019 04:00:00 14.30833 C 89.7500 % 12.65 C
3366 17-09-2019 05:00:00 14.16667 C 90.2500 % 12.59 C
3367 17-09-2019 06:00:00 14.1 C 90.2500 % 12.53 C
3368 17-09-2019 07:00:00 14.01667 C 89.5000 % 12.32 C
3369 17-09-2019 08:00:00 14 C 87.6667 % 11.99 C
3370 17-09-2019 09:00:00 14.04167 C 83.3333 % 11.26 C
3371 17-09-2019 10:00:00 14.925 C 74.5000 % 10.44 C
3372 17-09-2019 11:00:00 15.73333 C 71.0000 % 10.49 C
3373 17-09-2019 12:00:00 16.125 C 68.0833 % 10.24 C
3374 17-09-2019 13:00:00 16.625 C 64.4167 % 9.89 C
3375 17-09-2019 14:00:00 17.44167 C 60.6667 % 9.77 C
Sensor: Nr:Datum:Temp:Feuchte:Taupunkt:
Aussen-T/F 3376 17-09-2019 15:00:00 17.66667 C 57.9167 % 9.29 C
3377 17-09-2019 16:00:00 18.05833 C 55.8333 % 9.11 C
3378 17-09-2019 17:00:00 18.125 C 55.7500 % 9.15 C
3379 17-09-2019 18:00:00 18.45 C 54.0000 % 8.98 C
3380 17-09-2019 19:00:00 17.3 C 59.6667 % 9.39 C
3381 17-09-2019 20:00:00 16.71667 C 62.8333 % 9.6 C
3382 17-09-2019 21:00:00 16.00833 C 64.0833 % 9.23 C
3383 17-09-2019 22:00:00 14.55833 C 63.0000 % 7.6 C
3384 17-09-2019 23:00:00 13.40833 C 65.7500 % 7.14 C
3385 18-09-2019 00:00:00 11.80833 C 70.5833 % 6.64 C
3386 18-09-2019 01:00:00 10.83333 C 75.4167 % 6.67 C
3387 18-09-2019 02:00:00 9.26667 C 81.5833 % 6.28 C
3388 18-09-2019 03:00:00 8.25 C 85.5833 % 5.98 C
3389 18-09-2019 04:00:00 7.425 C 88.5000 % 5.65 C
3390 18-09-2019 05:00:00 6.76667 C 90.3333 % 5.3 C
3391 18-09-2019 06:00:00 6.08333 C 91.8333 % 4.86 C
3392 18-09-2019 07:00:00 5.8 C 93.1667 % 4.78 C
3393 18-09-2019 08:00:00 6.10833 C 94.0000 % 5.22 C
3394 18-09-2019 09:00:00 7.01667 C 95.0000 % 6.27 C
3395 18-09-2019 10:00:00 8.375 C 95.0000 % 7.62 C
3396 18-09-2019 11:00:00 10.625 C 88.5000 % 8.81 C
3397 18-09-2019 12:00:00 13.6 C 71.3333 % 8.52 C
3398 18-09-2019 13:00:00 15.1 C 60.1667 % 7.44 C
3399 18-09-2019 14:00:00 16.25 C 53.7500 % 6.87 C
3400 18-09-2019 15:00:00 17.00833 C 50.2500 % 6.59 C
Sensor: Nr:Datum:Temp:Feuchte:Taupunkt:
Aussen-T/F 3401 18-09-2019 16:00:00 17.225 C 51.0000 % 7.01 C
3402 18-09-2019 17:00:00 18.14167 C 45.8333 % 6.3 C
3403 18-09-2019 18:00:00 18.08333 C 44.8333 % 5.92 C
3404 18-09-2019 19:00:00 15.75 C 54.2500 % 6.54 C
3405 18-09-2019 20:00:00 12.30833 C 67.0000 % 6.36 C
3406 18-09-2019 21:00:00 11.525 C 72.0000 % 6.66 C
3407 18-09-2019 22:00:00 10.68333 C 75.7500 % 6.58 C
3408 18-09-2019 23:00:00 9.85833 C 79.9167 % 6.56 C
3409 19-09-2019 00:00:00 9.16667 C 83.0833 % 6.45 C
3410 19-09-2019 01:00:00 8.5 C 84.6667 % 6.07 C
3411 19-09-2019 02:00:00 7.20833 C 88.7500 % 5.48 C
3412 19-09-2019 03:00:00 6.58333 C 91.0000 % 5.22 C
3413 19-09-2019 04:00:00 6.08333 C 92.1667 % 4.91 C
3414 19-09-2019 05:00:00 5.65833 C 93.0000 % 4.62 C
3415 19-09-2019 06:00:00 5.26667 C 93.6667 % 4.33 C
3416 19-09-2019 07:00:00 5.14167 C 94.0000 % 4.26 C
3417 19-09-2019 08:00:00 5.33333 C 94.9167 % 4.59 C
3418 19-09-2019 09:00:00 6.31667 C 95.5833 % 5.66 C
3419 19-09-2019 10:00:00 7.725 C 96.0000 % 7.13 C
3420 19-09-2019 11:00:00 9.70833 C 91.2500 % 8.35 C
3421 19-09-2019 12:00:00 13.33333 C 65.0833 % 6.92 C
3422 19-09-2019 13:00:00 14.46667 C 56.8333 % 6.02 C
3423 19-09-2019 14:00:00 15.7 C 50.5000 % 5.46 C
3424 19-09-2019 15:00:00 16.48333 C 47.7500 % 5.37 C
3425 19-09-2019 16:00:00 17.08333 C 45.8333 % 5.33 C
Sensor: Nr:Datum:Temp:Feuchte:Taupunkt:
Aussen-T/F 3426 19-09-2019 17:00:00 18.04167 C 42.2500 % 5.03 C
3427 19-09-2019 18:00:00 18.01667 C 43.1667 % 5.32 C
3428 19-09-2019 19:00:00 15.00833 C 54.9167 % 6.03 C
3429 19-09-2019 20:00:00 11.975 C 63.7500 % 5.33 C
3430 19-09-2019 21:00:00 10.525 C 69.8333 % 5.26 C
3431 19-09-2019 22:00:00 9.59167 C 74.0000 % 5.19 C
3432 19-09-2019 23:00:00 8.45 C 78.1667 % 4.87 C
3433 20-09-2019 00:00:00 7.625 C 80.0833 % 4.42 C
3434 20-09-2019 01:00:00 7.05 C 82.5833 % 4.29 C
3435 20-09-2019 02:00:00 6.21667 C 85.1667 % 3.92 C
3436 20-09-2019 03:00:00 5.75 C 86.6667 % 3.7 C
3437 20-09-2019 04:00:00 5.15 C 88.7500 % 3.45 C
3438 20-09-2019 05:00:00 4.69167 C 90.5833 % 3.29 C
3439 20-09-2019 06:00:00 4.325 C 91.9167 % 3.13 C
3440 20-09-2019 07:00:00 4.125 C 93.0000 % 3.1 C
3441 20-09-2019 08:00:00 4.65 C 94.0000 % 3.77 C
3442 20-09-2019 09:00:00 5.625 C 94.5000 % 4.81 C
3443 20-09-2019 10:00:00 7.39167 C 94.0000 % 6.49 C
3444 20-09-2019 11:00:00 10 C 86.1667 % 7.8 C
3445 20-09-2019 12:00:00 13.41667 C 66.0000 % 7.2 C
3446 20-09-2019 13:00:00 15.83333 C 53.7500 % 6.48 C
3447 20-09-2019 14:00:00 17.63333 C 47.5000 % 6.35 C
3448 20-09-2019 15:00:00 18.525 C 43.5000 % 5.89 C
3449 20-09-2019 16:00:00 19.26667 C 42.3333 % 6.16 C
3450 20-09-2019 17:00:00 20.33333 C 39.8333 % 6.24 C
Sensor: Nr:Datum:Temp:Feuchte:Taupunkt:
Aussen-T/F 3451 20-09-2019 18:00:00 20.525 C 40.2500 % 6.56 C
3452 20-09-2019 19:00:00 15.85 C 52.5000 % 6.16 C
3453 20-09-2019 20:00:00 13.7 C 58.7500 % 5.78 C
3454 20-09-2019 21:00:00 11.68333 C 68.3333 % 6.05 C
3455 20-09-2019 22:00:00 9.525 C 76.5000 % 5.61 C
3456 20-09-2019 23:00:00 8.425 C 80.8333 % 5.33 C
3457 21-09-2019 00:00:00 7.44167 C 83.9167 % 4.91 C
3458 21-09-2019 01:00:00 6.85 C 85.3333 % 4.56 C
3459 21-09-2019 02:00:00 6.34167 C 86.1667 % 4.2 C
3460 21-09-2019 03:00:00 5.80833 C 87.4167 % 3.88 C
3461 21-09-2019 04:00:00 5.45833 C 89.0833 % 3.81 C
3462 21-09-2019 05:00:00 5.275 C 90.2500 % 3.81 C
3463 21-09-2019 06:00:00 4.80833 C 90.9167 % 3.45 C
3464 21-09-2019 07:00:00 4.60833 C 91.9167 % 3.41 C
3465 21-09-2019 08:00:00 4.725 C 93.0000 % 3.69 C
3466 21-09-2019 09:00:00 5.79167 C 93.9167 % 4.89 C
3467 21-09-2019 10:00:00 8.225 C 90.4167 % 6.75 C
3468 21-09-2019 11:00:00 11.40833 C 81.8333 % 8.42 C
3469 21-09-2019 12:00:00 14.95 C 67.2500 % 8.94 C
3470 21-09-2019 13:00:00 18.2 C 50.0833 % 7.64 C
3471 21-09-2019 14:00:00 21.43333 C 33.1667 % 4.58 C
3472 21-09-2019 15:00:00 22.63333 C 30.3333 % 4.35 C
3473 21-09-2019 16:00:00 23.23333 C 31.3333 % 5.33 C
3474 21-09-2019 17:00:00 24.65833 C 31.5833 % 6.68 C
3475 21-09-2019 18:00:00 22.74167 C 39.3333 % 8.21 C
Sensor: Nr:Datum:Temp:Feuchte:Taupunkt:
Aussen-T/F 3476 21-09-2019 19:00:00 18.49167 C 47.6667 % 7.18 C
3477 21-09-2019 20:00:00 16.16667 C 55.3333 % 7.22 C
3478 21-09-2019 21:00:00 13.66667 C 66.0000 % 7.44 C
3479 21-09-2019 22:00:00 11.99167 C 71.5000 % 7.01 C
3480 21-09-2019 23:00:00 10.88333 C 75.6667 % 6.76 C
3481 22-09-2019 00:00:00 9.825 C 79.9167 % 6.53 C
3482 22-09-2019 01:00:00 9.08333 C 83.4167 % 6.43 C
3483 22-09-2019 02:00:00 8.425 C 85.2500 % 6.1 C
3484 22-09-2019 03:00:00 7.96667 C 87.5833 % 6.04 C
3485 22-09-2019 04:00:00 7.39167 C 89.0000 % 5.7 C
3486 22-09-2019 05:00:00 7.06667 C 90.7500 % 5.66 C
3487 22-09-2019 06:00:00 6.99167 C 91.9167 % 5.77 C
3488 22-09-2019 07:00:00 6.93333 C 92.5000 % 5.8 C
3489 22-09-2019 08:00:00 7.55833 C 93.0000 % 6.5 C
3490 22-09-2019 09:00:00 8.63333 C 93.1667 % 7.59 C
3491 22-09-2019 10:00:00 11.05 C 91.5000 % 9.72 C
3492 22-09-2019 11:00:00 14.83333 C 79.8333 % 11.39 C
3493 22-09-2019 12:00:00 17.68333 C 72.9167 % 12.77 C
3494 22-09-2019 13:00:00 20.70833 C 64.5833 % 13.8 C
3495 22-09-2019 14:00:00 24.05 C 53.3333 % 13.98 C
3496 22-09-2019 15:00:00 24.85 C 49.7500 % 13.64 C
3497 22-09-2019 16:00:00 24.73333 C 54.0000 % 14.8 C
3498 22-09-2019 17:00:00 23.48333 C 59.5833 % 15.16 C
3499 22-09-2019 18:00:00 21.74167 C 64.0000 % 14.63 C
3500 22-09-2019 19:00:00 20.33333 C 65.0000 % 13.54 C
Sensor: Nr:Datum:Temp:Feuchte:Taupunkt:
Aussen-T/F 3501 22-09-2019 20:00:00 19.075 C 66.5833 % 12.71 C
3502 22-09-2019 21:00:00 18.175 C 68.6667 % 12.33 C
3503 22-09-2019 22:00:00 18.3 C 69.8333 % 12.7 C
3504 22-09-2019 23:00:00 17.80833 C 75.0833 % 13.34 C
3505 23-09-2019 00:00:00 17.55833 C 80.5000 % 14.17 C
3506 23-09-2019 01:00:00 18.375 C 81.5833 % 15.17 C
3507 23-09-2019 02:00:00 18.10833 C 79.0000 % 14.41 C
3508 23-09-2019 03:00:00 17.2 C 82.3333 % 14.16 C
3509 23-09-2019 04:00:00 16.05833 C 86.4167 % 13.79 C
3510 23-09-2019 05:00:00 15.14167 C 91.2500 % 13.73 C
3511 23-09-2019 06:00:00 14.43333 C 93.0833 % 13.33 C
3512 23-09-2019 07:00:00 14.23333 C 94.1667 % 13.31 C
3513 23-09-2019 08:00:00 14.25 C 95.0000 % 13.46 C
3514 23-09-2019 09:00:00 14.74167 C 95.8333 % 14.08 C
3515 23-09-2019 10:00:00 15.425 C 96.0000 % 14.79 C
3516 23-09-2019 11:00:00 16.26667 C 94.5000 % 15.38 C
3517 23-09-2019 12:00:00 17.06667 C 90.7500 % 15.54 C
3518 23-09-2019 13:00:00 18.2 C 81.5000 % 14.98 C
3519 23-09-2019 14:00:00 19.425 C 71.1667 % 14.07 C
3520 23-09-2019 15:00:00 19.61667 C 68.8333 % 13.74 C
3521 23-09-2019 16:00:00 19.94167 C 67.4167 % 13.73 C
3522 23-09-2019 17:00:00 20.24167 C 66.0000 % 13.69 C
3523 23-09-2019 18:00:00 18.46667 C 74.1667 % 13.78 C
3524 23-09-2019 19:00:00 16 C 81.9167 % 12.92 C
3525 23-09-2019 20:00:00 14.34167 C 87.2500 % 12.25 C
Sensor: Nr:Datum:Temp:Feuchte:Taupunkt:
Aussen-T/F 3526 23-09-2019 21:00:00 13.96667 C 90.1667 % 12.38 C
3527 23-09-2019 22:00:00 13.9 C 92.0000 % 12.62 C
3528 23-09-2019 23:00:00 14.11667 C 92.2500 % 12.88 C
3529 24-09-2019 00:00:00 14.33333 C 92.3333 % 13.11 C
3530 24-09-2019 01:00:00 13.95 C 91.5833 % 12.6 C
3531 24-09-2019 02:00:00 12.66667 C 92.5833 % 11.5 C
3532 24-09-2019 03:00:00 11.96667 C 93.8333 % 11.01 C
3533 24-09-2019 04:00:00 11.50833 C 94.5000 % 10.66 C
3534 24-09-2019 05:00:00 10.675 C 94.9167 % 9.89 C
3535 24-09-2019 06:00:00 10.25 C 95.3333 % 9.54 C
3536 24-09-2019 07:00:00 9.89167 C 95.8333 % 9.26 C
3537 24-09-2019 08:00:00 10.65 C 96.4167 % 10.1 C
3538 24-09-2019 09:00:00 11.35833 C 97.0000 % 10.9 C
3539 24-09-2019 10:00:00 12.49167 C 97.0000 % 12.03 C
3540 24-09-2019 11:00:00 14.48333 C 94.8333 % 13.67 C
3541 24-09-2019 12:00:00 17.53333 C 80.5000 % 14.14 C
3542 24-09-2019 13:00:00 18.59167 C 72.9167 % 13.64 C
3543 24-09-2019 14:00:00 19.21667 C 68.6667 % 13.32 C
3544 24-09-2019 15:00:00 18.63333 C 70.8333 % 13.24 C
3545 24-09-2019 16:00:00 17.70833 C 81.9167 % 14.58 C
3546 24-09-2019 17:00:00 16.95 C 89.8333 % 15.27 C
3547 24-09-2019 18:00:00 16.125 C 92.0833 % 14.84 C
3548 24-09-2019 19:00:00 15.1 C 93.0833 % 13.99 C
3549 24-09-2019 20:00:00 14.01667 C 94.1667 % 13.09 C
3550 24-09-2019 21:00:00 13.65 C 95.0000 % 12.86 C
Sensor: Nr:Datum:Temp:Feuchte:Taupunkt:
Aussen-T/F 3551 24-09-2019 22:00:00 13.64167 C 95.6667 % 12.96 C
3552 24-09-2019 23:00:00 13.775 C 96.0000 % 13.15 C
3553 25-09-2019 00:00:00 13.99167 C 96.0000 % 13.36 C
3554 25-09-2019 01:00:00 14.13333 C 96.3333 % 13.56 C
3555 25-09-2019 02:00:00 14.49167 C 96.0000 % 13.86 C
3556 25-09-2019 03:00:00 14.6 C 96.0000 % 13.97 C
3557 25-09-2019 04:00:00 14.55833 C 96.0000 % 13.93 C
3558 25-09-2019 05:00:00 14.01667 C 96.0000 % 13.39 C
3559 25-09-2019 06:00:00 13.64167 C 96.0000 % 13.02 C
3560 25-09-2019 07:00:00 13.61667 C 96.1667 % 13.02 C
3561 25-09-2019 08:00:00 13.75 C 96.9167 % 13.27 C
3562 25-09-2019 09:00:00 14.33333 C 97.0000 % 13.86 C
3563 25-09-2019 10:00:00 14.90833 C 94.3333 % 14.01 C
3564 25-09-2019 11:00:00 16.225 C 86.4167 % 13.96 C
3565 25-09-2019 12:00:00 16.875 C 80.5833 % 13.52 C
3566 25-09-2019 13:00:00 17.38333 C 77.4167 % 13.4 C
3567 25-09-2019 14:00:00 17.38333 C 78.1667 % 13.54 C
3568 25-09-2019 15:00:00 16.325 C 89.2500 % 14.55 C
3569 25-09-2019 16:00:00 17.08333 C 85.0000 % 14.54 C
3570 25-09-2019 17:00:00 17.53333 C 81.5833 % 14.35 C
3571 25-09-2019 18:00:00 16.775 C 83.4167 % 13.95 C
3572 25-09-2019 19:00:00 15.625 C 88.0000 % 13.65 C
3573 25-09-2019 20:00:00 15.10833 C 91.0833 % 13.66 C
3574 25-09-2019 21:00:00 14.71667 C 92.7500 % 13.56 C
3575 25-09-2019 22:00:00 14.7 C 93.7500 % 13.7 C
Sensor: Nr:Datum:Temp:Feuchte:Taupunkt:
Aussen-T/F 3576 25-09-2019 23:00:00 14.65833 C 95.0000 % 13.87 C
3577 26-09-2019 00:00:00 14.55833 C 95.0000 % 13.77 C
3578 26-09-2019 01:00:00 14.23333 C 95.2500 % 13.48 C
3579 26-09-2019 02:00:00 14.13333 C 96.0000 % 13.51 C
3580 26-09-2019 03:00:00 13.60833 C 95.9167 % 12.97 C
3581 26-09-2019 04:00:00 13.25833 C 96.1667 % 12.66 C
3582 26-09-2019 05:00:00 13.90833 C 96.7500 % 13.4 C
3583 26-09-2019 06:00:00 14.125 C 96.9167 % 13.64 C
3584 26-09-2019 07:00:00 14.35833 C 96.0000 % 13.73 C
3585 26-09-2019 08:00:00 14.74167 C 96.0000 % 14.11 C
3586 26-09-2019 09:00:00 15.10833 C 95.6667 % 14.42 C
3587 26-09-2019 10:00:00 15.86667 C 95.5000 % 15.15 C
3588 26-09-2019 11:00:00 16.59167 C 94.6667 % 15.73 C
3589 26-09-2019 12:00:00 17.61667 C 91.5833 % 16.23 C
3590 26-09-2019 13:00:00 17.775 C 91.7500 % 16.42 C
3591 26-09-2019 14:00:00 17.51667 C 92.7500 % 16.33 C
3592 26-09-2019 15:00:00 18.05833 C 91.6667 % 16.68 C
3593 26-09-2019 16:00:00 18.83333 C 88.7500 % 16.94 C
3594 26-09-2019 17:00:00 18.91667 C 87.5833 % 16.81 C
3595 26-09-2019 18:00:00 18.71667 C 88.8333 % 16.84 C
3596 26-09-2019 19:00:00 18.04167 C 90.8333 % 16.52 C
3597 26-09-2019 20:00:00 17.39167 C 89.7500 % 15.69 C
3598 26-09-2019 21:00:00 17.36667 C 89.0000 % 15.54 C
3599 26-09-2019 22:00:00 17.725 C 86.5833 % 15.46 C
3600 26-09-2019 23:00:00 17.81667 C 85.5000 % 15.35 C
Sensor: Nr:Datum:Temp:Feuchte:Taupunkt:
Aussen-T/F 3601 27-09-2019 00:00:00 17.98333 C 83.8333 % 15.21 C
3602 27-09-2019 01:00:00 18.05 C 82.3333 % 14.99 C
3603 27-09-2019 02:00:00 17.96667 C 82.0833 % 14.87 C
3604 27-09-2019 03:00:00 16.71667 C 90.0833 % 15.08 C
3605 27-09-2019 04:00:00 16.29167 C 92.5000 % 15.07 C
3606 27-09-2019 05:00:00 16.16667 C 93.0833 % 15.05 C
3607 27-09-2019 06:00:00 15.78333 C 94.2500 % 14.86 C
3608 27-09-2019 07:00:00 14.41667 C 94.6667 % 13.57 C
3609 27-09-2019 08:00:00 14.1 C 95.7500 % 13.43 C
3610 27-09-2019 09:00:00 13.99167 C 96.0000 % 13.36 C
3611 27-09-2019 10:00:00 14.69167 C 95.5000 % 13.98 C
3612 27-09-2019 11:00:00 15.35 C 92.8333 % 14.2 C
3613 27-09-2019 12:00:00 15.96667 C 89.0833 % 14.17 C
3614 27-09-2019 13:00:00 17.29167 C 81.1667 % 14.03 C
3615 27-09-2019 14:00:00 18.15833 C 75.9167 % 13.84 C
3616 27-09-2019 15:00:00 18.21667 C 75.7500 % 13.87 C
3617 27-09-2019 16:00:00 17.96667 C 76.9167 % 13.86 C
3618 27-09-2019 17:00:00 18.98333 C 72.3333 % 13.9 C
3619 27-09-2019 18:00:00 18.01667 C 75.0833 % 13.54 C
3620 27-09-2019 19:00:00 16.05833 C 82.2500 % 13.03 C
3621 27-09-2019 20:00:00 15.13333 C 87.9167 % 13.15 C
3622 27-09-2019 21:00:00 14.275 C 90.1667 % 12.69 C
3623 27-09-2019 22:00:00 13.83333 C 92.5000 % 12.64 C
3624 27-09-2019 23:00:00 13.5 C 93.8333 % 12.53 C
3625 28-09-2019 00:00:00 12.875 C 94.5833 % 12.03 C
Sensor: Nr:Datum:Temp:Feuchte:Taupunkt:
Aussen-T/F 3626 28-09-2019 01:00:00 12.90833 C 95.0833 % 12.14 C
3627 28-09-2019 02:00:00 14.21667 C 91.3333 % 12.82 C
3628 28-09-2019 03:00:00 14.825 C 89.3333 % 13.09 C
3629 28-09-2019 04:00:00 14.04167 C 92.3333 % 12.82 C
3630 28-09-2019 05:00:00 13.95 C 91.9167 % 12.66 C
3631 28-09-2019 06:00:00 14.4 C 90.6667 % 12.89 C
3632 28-09-2019 07:00:00 14.1 C 92.9167 % 12.97 C
3633 28-09-2019 08:00:00 13.89167 C 93.3333 % 12.83 C
3634 28-09-2019 09:00:00 14.35833 C 90.0833 % 12.75 C
3635 28-09-2019 10:00:00 15.4 C 85.3333 % 12.95 C
3636 28-09-2019 11:00:00 16.30833 C 80.3333 % 12.92 C
3637 28-09-2019 12:00:00 16.85 C 78.5833 % 13.11 C
3638 28-09-2019 13:00:00 17.21667 C 77.0833 % 13.17 C
3639 28-09-2019 14:00:00 17.49167 C 76.5000 % 13.32 C
3640 28-09-2019 15:00:00 17.16667 C 77.3333 % 13.17 C
3641 28-09-2019 16:00:00 17.35833 C 77.6667 % 13.42 C
3642 28-09-2019 17:00:00 17.71667 C 75.6667 % 13.37 C
3643 28-09-2019 18:00:00 17.14167 C 76.5833 % 13 C
3644 28-09-2019 19:00:00 15.7 C 80.5833 % 12.37 C
3645 28-09-2019 20:00:00 15.24167 C 82.2500 % 12.24 C
3646 28-09-2019 21:00:00 14.975 C 82.6667 % 12.05 C
3647 28-09-2019 22:00:00 15.13333 C 81.3333 % 11.96 C
3648 28-09-2019 23:00:00 14.15 C 84.8333 % 11.64 C
3649 29-09-2019 00:00:00 13.875 C 86.3333 % 11.63 C
3650 29-09-2019 01:00:00 13.95 C 86.5000 % 11.74 C
Sensor: Nr:Datum:Temp:Feuchte:Taupunkt:
Aussen-T/F 3651 29-09-2019 02:00:00 13.65 C 88.8333 % 11.84 C
3652 29-09-2019 03:00:00 13.48333 C 90.1667 % 11.9 C
3653 29-09-2019 04:00:00 13.525 C 91.0000 % 12.09 C
3654 29-09-2019 05:00:00 13.81667 C 89.4167 % 12.11 C
3655 29-09-2019 06:00:00 13.94167 C 86.7500 % 11.77 C
3656 29-09-2019 07:00:00 14.025 C 86.5833 % 11.82 C
3657 29-09-2019 08:00:00 14.95833 C 82.8333 % 12.07 C
3658 29-09-2019 09:00:00 16.53333 C 77.0000 % 12.49 C
3659 29-09-2019 10:00:00 17.45833 C 73.5833 % 12.69 C
3660 29-09-2019 11:00:00 17.74167 C 72.7500 % 12.79 C
3661 29-09-2019 12:00:00 18.25833 C 71.7500 % 13.07 C
3662 29-09-2019 13:00:00 18.1 C 72.1667 % 13.01 C
3663 29-09-2019 14:00:00 18.61667 C 68.4167 % 12.69 C
3664 29-09-2019 15:00:00 18.21667 C 73.1667 % 13.33 C
3665 29-09-2019 16:00:00 17.10833 C 81.7500 % 13.97 C
3666 29-09-2019 17:00:00 17 C 82.4167 % 13.98 C
3667 29-09-2019 18:00:00 17.5 C 82.9167 % 14.57 C
3668 29-09-2019 19:00:00 17.70833 C 83.0833 % 14.8 C
3669 29-09-2019 20:00:00 17.275 C 88.0833 % 15.28 C
3670 29-09-2019 21:00:00 16.79167 C 92.1667 % 15.51 C
3671 29-09-2019 22:00:00 16.91667 C 92.3333 % 15.66 C
3672 29-09-2019 23:00:00 16.61667 C 91.9167 % 15.3 C
3673 30-09-2019 00:00:00 15.65 C 87.4167 % 13.57 C
3674 30-09-2019 01:00:00 15.34167 C 86.0833 % 13.03 C
3675 30-09-2019 02:00:00 15.15833 C 86.5000 % 12.92 C
Sensor: Nr:Datum:Temp:Feuchte:Taupunkt:
Aussen-T/F 3676 30-09-2019 03:00:00 15.25833 C 86.8333 % 13.08 C
3677 30-09-2019 04:00:00 15.04167 C 88.5000 % 13.16 C
3678 30-09-2019 05:00:00 13.75833 C 92.1667 % 12.51 C
3679 30-09-2019 06:00:00 13.19167 C 92.8333 % 12.06 C
3680 30-09-2019 07:00:00 13.08333 C 90.6667 % 11.59 C
3681 30-09-2019 08:00:00 13.29167 C 87.1667 % 11.2 C
3682 30-09-2019 09:00:00 13.94167 C 83.1667 % 11.13 C
3683 30-09-2019 10:00:00 14.45 C 81.3333 % 11.29 C
3684 30-09-2019 11:00:00 15.13333 C 78.0833 % 11.34 C
3685 30-09-2019 12:00:00 15.71667 C 73.2500 % 10.95 C
3686 30-09-2019 13:00:00 16.40833 C 69.3333 % 10.78 C
3687 30-09-2019 14:00:00 17.10833 C 66.6667 % 10.86 C
3688 30-09-2019 15:00:00 17.75833 C 64.9167 % 11.08 C
3689 30-09-2019 16:00:00 18.45833 C 62.4167 % 11.15 C
3690 30-09-2019 17:00:00 18.45 C 60.5000 % 10.67 C
3691 30-09-2019 18:00:00 17.69167 C 67.9167 % 11.7 C
3692 30-09-2019 19:00:00 14.83333 C 80.5000 % 11.51 C
3693 30-09-2019 20:00:00 14.20833 C 85.2500 % 11.77 C
3694 30-09-2019 21:00:00 14.69167 C 85.0833 % 12.21 C
3695 30-09-2019 22:00:00 14.68333 C 85.0833 % 12.21 C
3696 30-09-2019 23:00:00 14.23333 C 85.3333 % 11.81 C
3697 01-10-2019 00:00:00 14.33333 C 84.5833 % 11.77 C
3698 01-10-2019 01:00:00 14.025 C 86.6667 % 11.84 C
3699 01-10-2019 02:00:00 13.60833 C 87.0000 % 11.49 C
3700 01-10-2019 03:00:00 12.65 C 89.0000 % 10.89 C
Sensor: Nr:Datum:Temp:Feuchte:Taupunkt:
Aussen-T/F 3701 01-10-2019 04:00:00 13.275 C 89.2500 % 11.54 C
3702 01-10-2019 05:00:00 14.40833 C 85.3333 % 11.98 C
3703 01-10-2019 06:00:00 15.00833 C 85.5833 % 12.61 C
3704 01-10-2019 07:00:00 15.375 C 86.7500 % 13.18 C
3705 01-10-2019 08:00:00 15.5 C 87.3333 % 13.41 C
3706 01-10-2019 09:00:00 16.125 C 86.0833 % 13.8 C
3707 01-10-2019 10:00:00 17.09167 C 84.9167 % 14.54 C
3708 01-10-2019 11:00:00 17.53333 C 84.9167 % 14.97 C
3709 01-10-2019 12:00:00 17.36667 C 88.6667 % 15.48 C
3710 01-10-2019 13:00:00 18.575 C 78.4167 % 14.75 C
3711 01-10-2019 14:00:00 18.35833 C 82.9167 % 15.4 C
3712 01-10-2019 15:00:00 19.08333 C 82.8333 % 16.1 C
3713 01-10-2019 16:00:00 18.26667 C 88.3333 % 16.3 C
3714 01-10-2019 17:00:00 17.6 C 93.0000 % 16.45 C
3715 01-10-2019 18:00:00 16.725 C 92.8333 % 15.56 C
3716 01-10-2019 19:00:00 16.19167 C 94.1667 % 15.25 C
3717 01-10-2019 20:00:00 15.875 C 94.8333 % 15.05 C
3718 01-10-2019 21:00:00 15.85 C 95.1667 % 15.08 C
3719 01-10-2019 22:00:00 15.5 C 95.0000 % 14.7 C
3720 01-10-2019 23:00:00 15.225 C 95.0000 % 14.43 C
3721 02-10-2019 00:00:00 15.15833 C 95.0000 % 14.36 C
3722 02-10-2019 01:00:00 15.20833 C 94.2500 % 14.29 C
3723 02-10-2019 02:00:00 14.975 C 93.7500 % 13.98 C
3724 02-10-2019 03:00:00 14.95833 C 93.5000 % 13.92 C
3725 02-10-2019 04:00:00 15.08333 C 92.0000 % 13.79 C
Sensor: Nr:Datum:Temp:Feuchte:Taupunkt:
Aussen-T/F 3726 02-10-2019 05:00:00 14.69167 C 92.6667 % 13.52 C
3727 02-10-2019 06:00:00 13.59167 C 92.0000 % 12.32 C
3728 02-10-2019 07:00:00 11.80833 C 92.2500 % 10.59 C
3729 02-10-2019 08:00:00 10.74167 C 93.0000 % 9.66 C
3730 02-10-2019 09:00:00 10.46667 C 90.9167 % 9.05 C
3731 02-10-2019 10:00:00 10.86667 C 88.0000 % 8.96 C
3732 02-10-2019 11:00:00 11.33333 C 83.7500 % 8.69 C
3733 02-10-2019 12:00:00 11.86667 C 80.5833 % 8.64 C
3734 02-10-2019 13:00:00 12.65833 C 76.4167 % 8.62 C
3735 02-10-2019 14:00:00 13.49167 C 70.0833 % 8.15 C
3736 02-10-2019 15:00:00 13.66667 C 66.5833 % 7.57 C
3737 02-10-2019 16:00:00 13.8 C 61.8333 % 6.62 C
3738 02-10-2019 17:00:00 14.26667 C 61.5833 % 7 C
3739 02-10-2019 18:00:00 12.9 C 68.1667 % 7.18 C
3740 02-10-2019 19:00:00 11.325 C 74.5000 % 6.96 C
3741 02-10-2019 20:00:00 10.04167 C 79.5833 % 6.68 C
3742 02-10-2019 21:00:00 9.875 C 80.5833 % 6.7 C
3743 02-10-2019 22:00:00 8.61667 C 85.6667 % 6.35 C
3744 02-10-2019 23:00:00 8.48333 C 87.1667 % 6.48 C
3745 03-10-2019 00:00:00 9.33333 C 85.0833 % 6.96 C
3746 03-10-2019 01:00:00 9.25833 C 86.4167 % 7.11 C
3747 03-10-2019 02:00:00 9.21667 C 86.5000 % 7.08 C
3748 03-10-2019 03:00:00 8.525 C 87.9167 % 6.64 C
3749 03-10-2019 04:00:00 7.63333 C 90.3333 % 6.15 C
3750 03-10-2019 05:00:00 7.94167 C 91.0000 % 6.57 C
Sensor: Nr:Datum:Temp:Feuchte:Taupunkt:
Aussen-T/F 3751 03-10-2019 06:00:00 7.45 C 91.0000 % 6.08 C
3752 03-10-2019 07:00:00 7.2 C 92.9167 % 6.13 C
3753 03-10-2019 08:00:00 7.74167 C 92.1667 % 6.55 C
3754 03-10-2019 09:00:00 9.34167 C 87.6667 % 7.4 C
3755 03-10-2019 10:00:00 10.36667 C 85.5833 % 8.06 C
3756 03-10-2019 11:00:00 12.23333 C 80.9167 % 9.06 C
3757 03-10-2019 12:00:00 12.55833 C 81.7500 % 9.53 C
3758 03-10-2019 13:00:00 12.225 C 88.5833 % 10.4 C